Ticket #15276: 02.09.2017_07;33;46_2017-09-02_07-33-46.gpx

File 02.09.2017_07;33;46_2017-09-02_07-33-46.gpx, 194.3 KB (added by starkad, 9 years ago)

GPX-file to reproduce error

Line 
1<?xml version="1.0" encoding="UTF-8" ?>
2<gpx xmlns="http://www.topografix.com/GPX/1/1" version="1.1" creator="OSMTracker for Android™ - https://github.com/nguillaumin/osmtracker-android" xmlns:xsi="http://www.w3.org/2001/XMLSchema-instance" xsi:schemaLocation="http://www.topografix.com/GPX/1/1 http://www.topografix.com/GPX/1/1/gpx.xsd ">
3 <wpt lat="48.74328234" lon="11.01678767">
4 <ele>448.0</ele>
5 <time>2017-09-02T05:34:42Z</time>
6 <name><![CDATA[Hostel]]></name>
7 <cmt><![CDATA[compass: 352.8879089355469
8 compass accuracy: 0]]></cmt>
9 <sat>0</sat>
10 </wpt>
11 <wpt lat="48.74375529" lon="11.01605108">
12 <ele>442.0</ele>
13 <time>2017-09-02T05:35:43Z</time>
14 <name><![CDATA[Lampe]]></name>
15 <cmt><![CDATA[compass: 119.5042724609375
16 compass accuracy: 0]]></cmt>
17 <sat>0</sat>
18 </wpt>
19 <wpt lat="48.74411423" lon="11.01559192">
20 <ele>443.0</ele>
21 <time>2017-09-02T05:36:47Z</time>
22 <name><![CDATA[Lampe]]></name>
23 <cmt><![CDATA[compass: 153.0079345703125
24 compass accuracy: 0]]></cmt>
25 <sat>0</sat>
26 </wpt>
27 <wpt lat="48.74493707" lon="11.01529833">
28 <ele>450.0</ele>
29 <time>2017-09-02T05:37:45Z</time>
30 <name><![CDATA[Lampe]]></name>
31 <cmt><![CDATA[compass: 239.29913330078125
32 compass accuracy: 0]]></cmt>
33 <sat>0</sat>
34 </wpt>
35 <wpt lat="48.74545853" lon="11.01536075">
36 <ele>449.0</ele>
37 <time>2017-09-02T05:41:12Z</time>
38 <name><![CDATA[Lampe]]></name>
39 <cmt><![CDATA[compass: 145.19195556640625
40 compass accuracy: 0]]></cmt>
41 <sat>0</sat>
42 </wpt>
43 <wpt lat="48.74521183" lon="11.01526094">
44 <ele>448.0</ele>
45 <time>2017-09-02T05:41:49Z</time>
46 <name><![CDATA[Treppe]]></name>
47 <cmt><![CDATA[compass: 165.91119384765625
48 compass accuracy: 0]]></cmt>
49 <sat>0</sat>
50 </wpt>
51 <wpt lat="48.74505456" lon="11.01472723">
52 <ele>441.0</ele>
53 <time>2017-09-02T05:42:27Z</time>
54 <name><![CDATA[Lampe]]></name>
55 <cmt><![CDATA[compass: 147.68011474609375
56 compass accuracy: 0]]></cmt>
57 <sat>0</sat>
58 </wpt>
59 <wpt lat="48.74466824" lon="11.01493141">
60 <ele>442.0</ele>
61 <time>2017-09-02T05:43:09Z</time>
62 <name><![CDATA[Lampe]]></name>
63 <cmt><![CDATA[compass: 54.074981689453125
64 compass accuracy: 0]]></cmt>
65 <sat>0</sat>
66 </wpt>
67 <wpt lat="48.74453132" lon="11.01516681">
68 <ele>445.0</ele>
69 <time>2017-09-02T05:43:32Z</time>
70 <name><![CDATA[apfelbaum 1m]]></name>
71 <cmt><![CDATA[compass: 47.07196044921875
72 compass accuracy: 0]]></cmt>
73 <sat>0</sat>
74 </wpt>
75 <wpt lat="48.74350524" lon="11.01636602">
76 <ele>440.0</ele>
77 <time>2017-09-02T05:45:52Z</time>
78 <name><![CDATA[Pv Dach Garage]]></name>
79 <cmt><![CDATA[compass: 11.2958984375
80 compass accuracy: 0]]></cmt>
81 <sat>0</sat>
82 </wpt>
83 <trk>
84 <name><![CDATA[Aufgezeichnet mit OSMTracker für Android™]]></name>
85 <trkseg>
86 <trkpt lat="48.74336042" lon="11.01684143">
87 <ele>467.0</ele>
88 <time>2017-09-02T05:34:14Z</time>
89 <cmt><![CDATA[compass: 69.20541381835938
90 compAccuracy: 0]]></cmt>
91 <extensions>
92 <speed>0.18000000715255737</speed>
93 </extensions>
94 </trkpt>
95 <trkpt lat="48.74334093" lon="11.01683872">
96 <ele>457.0</ele>
97 <time>2017-09-02T05:34:15Z</time>
98 <cmt><![CDATA[compass: 66.08334350585938
99 compAccuracy: 0]]></cmt>
100 <extensions>
101 <speed>0.0</speed>
102 </extensions>
103 </trkpt>
104 <trkpt lat="48.74335637" lon="11.01688067">
105 <ele>453.0</ele>
106 <time>2017-09-02T05:34:16Z</time>
107 <cmt><![CDATA[compass: 102.14450073242188
108 compAccuracy: 0]]></cmt>
109 <extensions>
110 <speed>0.0</speed>
111 </extensions>
112 </trkpt>
113 <trkpt lat="48.7433522" lon="11.01687974">
114 <ele>452.0</ele>
115 <time>2017-09-02T05:34:17Z</time>
116 <cmt><![CDATA[compass: 96.36355590820312
117 compAccuracy: 0]]></cmt>
118 <extensions>
119 <speed>0.0</speed>
120 </extensions>
121 </trkpt>
122 <trkpt lat="48.74332488" lon="11.01688654">
123 <ele>447.0</ele>
124 <time>2017-09-02T05:34:18Z</time>
125 <cmt><![CDATA[compass: 94.91485595703125
126 compAccuracy: 0]]></cmt>
127 <extensions>
128 <speed>0.0</speed>
129 </extensions>
130 </trkpt>
131 <trkpt lat="48.74330375" lon="11.01690086">
132 <ele>442.0</ele>
133 <time>2017-09-02T05:34:19Z</time>
134 <cmt><![CDATA[compass: 95.38134765625
135 compAccuracy: 0]]></cmt>
136 <extensions>
137 <speed>0.0</speed>
138 </extensions>
139 </trkpt>
140 <trkpt lat="48.74329807" lon="11.01689905">
141 <ele>443.0</ele>
142 <time>2017-09-02T05:34:20Z</time>
143 <cmt><![CDATA[compass: 95.3685302734375
144 compAccuracy: 0]]></cmt>
145 <extensions>
146 <speed>0.0</speed>
147 </extensions>
148 </trkpt>
149 <trkpt lat="48.74329028" lon="11.01689614">
150 <ele>441.0</ele>
151 <time>2017-09-02T05:34:21Z</time>
152 <cmt><![CDATA[compass: 96.16253662109375
153 compAccuracy: 0]]></cmt>
154 <extensions>
155 <speed>0.0</speed>
156 </extensions>
157 </trkpt>
158 <trkpt lat="48.74328218" lon="11.016903">
159 <ele>439.0</ele>
160 <time>2017-09-02T05:34:22Z</time>
161 <cmt><![CDATA[compass: 99.11083984375
162 compAccuracy: 0]]></cmt>
163 <extensions>
164 <speed>0.0</speed>
165 </extensions>
166 </trkpt>
167 <trkpt lat="48.74328134" lon="11.01690499">
168 <ele>440.0</ele>
169 <time>2017-09-02T05:34:23Z</time>
170 <cmt><![CDATA[compass: 100.81405639648438
171 compAccuracy: 0]]></cmt>
172 <extensions>
173 <speed>0.0</speed>
174 </extensions>
175 </trkpt>
176 <trkpt lat="48.74328628" lon="11.01690983">
177 <ele>441.0</ele>
178 <time>2017-09-02T05:34:24Z</time>
179 <cmt><![CDATA[compass: 101.9815673828125
180 compAccuracy: 0]]></cmt>
181 <extensions>
182 <speed>0.0</speed>
183 </extensions>
184 </trkpt>
185 <trkpt lat="48.74328316" lon="11.0169076">
186 <ele>442.0</ele>
187 <time>2017-09-02T05:34:25Z</time>
188 <cmt><![CDATA[compass: 104.40625
189 compAccuracy: 0]]></cmt>
190 <extensions>
191 <speed>0.0</speed>
192 </extensions>
193 </trkpt>
194 <trkpt lat="48.74328351" lon="11.01690789">
195 <ele>442.0</ele>
196 <time>2017-09-02T05:34:26Z</time>
197 <cmt><![CDATA[compass: 102.87106323242188
198 compAccuracy: 0]]></cmt>
199 <extensions>
200 <speed>0.0</speed>
201 </extensions>
202 </trkpt>
203 <trkpt lat="48.74328356" lon="11.01690775">
204 <ele>442.0</ele>
205 <time>2017-09-02T05:34:27Z</time>
206 <cmt><![CDATA[compass: 107.35440063476562
207 compAccuracy: 0]]></cmt>
208 <extensions>
209 <speed>0.0</speed>
210 </extensions>
211 </trkpt>
212 <trkpt lat="48.7432834" lon="11.01690768">
213 <ele>442.0</ele>
214 <time>2017-09-02T05:34:28Z</time>
215 <cmt><![CDATA[compass: 101.36227416992188
216 compAccuracy: 0]]></cmt>
217 <extensions>
218 <speed>0.0</speed>
219 </extensions>
220 </trkpt>
221 <trkpt lat="48.74328328" lon="11.01690763">
222 <ele>442.0</ele>
223 <time>2017-09-02T05:34:29Z</time>
224 <cmt><![CDATA[compass: 100.97494506835938
225 compAccuracy: 0]]></cmt>
226 <extensions>
227 <speed>0.0</speed>
228 </extensions>
229 </trkpt>
230 <trkpt lat="48.74333164" lon="11.01692198">
231 <ele>442.0</ele>
232 <time>2017-09-02T05:34:30Z</time>
233 <cmt><![CDATA[compass: 93.62942504882812
234 compAccuracy: 0]]></cmt>
235 <extensions>
236 <speed>0.4399999976158142</speed>
237 </extensions>
238 </trkpt>
239 <trkpt lat="48.74336312" lon="11.01692578">
240 <ele>444.0</ele>
241 <time>2017-09-02T05:34:31Z</time>
242 <cmt><![CDATA[compass: 78.03717041015625
243 compAccuracy: 0]]></cmt>
244 <extensions>
245 <speed>0.9900000095367432</speed>
246 </extensions>
247 </trkpt>
248 <trkpt lat="48.74338032" lon="11.0169257">
249 <ele>446.0</ele>
250 <time>2017-09-02T05:34:32Z</time>
251 <cmt><![CDATA[compass: 69.7003173828125
252 compAccuracy: 0]]></cmt>
253 <extensions>
254 <speed>1.3600000143051147</speed>
255 </extensions>
256 </trkpt>
257 <trkpt lat="48.74336832" lon="11.01690831">
258 <ele>447.0</ele>
259 <time>2017-09-02T05:34:33Z</time>
260 <cmt><![CDATA[compass: 81.9635009765625
261 compAccuracy: 0]]></cmt>
262 <extensions>
263 <speed>0.9599999785423279</speed>
264 </extensions>
265 </trkpt>
266 <trkpt lat="48.74335908" lon="11.01688598">
267 <ele>447.0</ele>
268 <time>2017-09-02T05:34:34Z</time>
269 <cmt><![CDATA[compass: 62.157745361328125
270 compAccuracy: 0]]></cmt>
271 <extensions>
272 <speed>1.0299999713897705</speed>
273 </extensions>
274 </trkpt>
275 <trkpt lat="48.74334979" lon="11.01686894">
276 <ele>447.0</ele>
277 <time>2017-09-02T05:34:35Z</time>
278 <cmt><![CDATA[compass: 43.44195556640625
279 compAccuracy: 0]]></cmt>
280 <extensions>
281 <speed>1.190000057220459</speed>
282 </extensions>
283 </trkpt>
284 <trkpt lat="48.74334414" lon="11.01685413">
285 <ele>447.0</ele>
286 <time>2017-09-02T05:34:36Z</time>
287 <cmt><![CDATA[compass: 32.433624267578125
288 compAccuracy: 0]]></cmt>
289 <extensions>
290 <speed>1.2899999618530273</speed>
291 </extensions>
292 </trkpt>
293 <trkpt lat="48.74332622" lon="11.01683601">
294 <ele>447.0</ele>
295 <time>2017-09-02T05:34:37Z</time>
296 <cmt><![CDATA[compass: 5.6114501953125
297 compAccuracy: 0]]></cmt>
298 <extensions>
299 <speed>1.2799999713897705</speed>
300 </extensions>
301 </trkpt>
302 <trkpt lat="48.7433087" lon="11.01682196">
303 <ele>447.0</ele>
304 <time>2017-09-02T05:34:38Z</time>
305 <cmt><![CDATA[compass: 6.311187744140625
306 compAccuracy: 0]]></cmt>
307 <extensions>
308 <speed>1.190000057220459</speed>
309 </extensions>
310 </trkpt>
311 <trkpt lat="48.74330187" lon="11.01681128">
312 <ele>447.0</ele>
313 <time>2017-09-02T05:34:39Z</time>
314 <cmt><![CDATA[compass: 11.858978271484375
315 compAccuracy: 0]]></cmt>
316 <extensions>
317 <speed>0.9900000095367432</speed>
318 </extensions>
319 </trkpt>
320 <trkpt lat="48.74329535" lon="11.01680672">
321 <ele>447.0</ele>
322 <time>2017-09-02T05:34:40Z</time>
323 <cmt><![CDATA[compass: 6.0684814453125
324 compAccuracy: 0]]></cmt>
325 <extensions>
326 <speed>0.9700000286102295</speed>
327 </extensions>
328 </trkpt>
329 <trkpt lat="48.7432884" lon="11.01679875">
330 <ele>447.0</ele>
331 <time>2017-09-02T05:34:41Z</time>
332 <cmt><![CDATA[compass: 356.2026672363281
333 compAccuracy: 0]]></cmt>
334 <extensions>
335 <speed>0.8700000047683716</speed>
336 </extensions>
337 </trkpt>
338 <trkpt lat="48.74328234" lon="11.01678767">
339 <ele>448.0</ele>
340 <time>2017-09-02T05:34:42Z</time>
341 <cmt><![CDATA[compass: 353.4348449707031
342 compAccuracy: 0]]></cmt>
343 <extensions>
344 <speed>1.0</speed>
345 </extensions>
346 </trkpt>
347 <trkpt lat="48.74327949" lon="11.0167738">
348 <ele>449.0</ele>
349 <time>2017-09-02T05:34:43Z</time>
350 <cmt><![CDATA[compass: 341.1417541503906
351 compAccuracy: 0]]></cmt>
352 <extensions>
353 <speed>1.399999976158142</speed>
354 </extensions>
355 </trkpt>
356 <trkpt lat="48.74327253" lon="11.01675839">
357 <ele>447.0</ele>
358 <time>2017-09-02T05:34:44Z</time>
359 <cmt><![CDATA[compass: 355.24737548828125
360 compAccuracy: 0]]></cmt>
361 <extensions>
362 <speed>1.2300000190734863</speed>
363 </extensions>
364 </trkpt>
365 <trkpt lat="48.74326749" lon="11.01674251">
366 <ele>447.0</ele>
367 <time>2017-09-02T05:34:45Z</time>
368 <cmt><![CDATA[compass: 351.46832275390625
369 compAccuracy: 0]]></cmt>
370 <extensions>
371 <speed>1.2599999904632568</speed>
372 </extensions>
373 </trkpt>
374 <trkpt lat="48.74326423" lon="11.01673044">
375 <ele>447.0</ele>
376 <time>2017-09-02T05:34:46Z</time>
377 <cmt><![CDATA[compass: 341.33233642578125
378 compAccuracy: 0]]></cmt>
379 <extensions>
380 <speed>0.9700000286102295</speed>
381 </extensions>
382 </trkpt>
383 <trkpt lat="48.74325898" lon="11.01671765">
384 <ele>448.0</ele>
385 <time>2017-09-02T05:34:47Z</time>
386 <cmt><![CDATA[compass: 5.851409912109375
387 compAccuracy: 0]]></cmt>
388 <extensions>
389 <speed>1.2400000095367432</speed>
390 </extensions>
391 </trkpt>
392 <trkpt lat="48.74325421" lon="11.01670298">
393 <ele>447.0</ele>
394 <time>2017-09-02T05:34:48Z</time>
395 <cmt><![CDATA[compass: 46.814483642578125
396 compAccuracy: 0]]></cmt>
397 <extensions>
398 <speed>0.9300000071525574</speed>
399 </extensions>
400 </trkpt>
401 <trkpt lat="48.74325245" lon="11.01668749">
402 <ele>447.0</ele>
403 <time>2017-09-02T05:34:49Z</time>
404 <cmt><![CDATA[compass: 67.86334228515625
405 compAccuracy: 0]]></cmt>
406 <extensions>
407 <speed>1.1799999475479126</speed>
408 </extensions>
409 </trkpt>
410 <trkpt lat="48.74325518" lon="11.01666148">
411 <ele>447.0</ele>
412 <time>2017-09-02T05:34:50Z</time>
413 <cmt><![CDATA[compass: 358.3600158691406
414 compAccuracy: 0]]></cmt>
415 <extensions>
416 <speed>2.369999885559082</speed>
417 </extensions>
418 </trkpt>
419 <trkpt lat="48.74326326" lon="11.01662938">
420 <ele>447.0</ele>
421 <time>2017-09-02T05:34:51Z</time>
422 <cmt><![CDATA[compass: 210.36703491210938
423 compAccuracy: 0]]></cmt>
424 <extensions>
425 <speed>2.369999885559082</speed>
426 </extensions>
427 </trkpt>
428 <trkpt lat="48.74327001" lon="11.01660606">
429 <ele>447.0</ele>
430 <time>2017-09-02T05:34:52Z</time>
431 <cmt><![CDATA[compass: 269.6728820800781
432 compAccuracy: 0]]></cmt>
433 <extensions>
434 <speed>1.409999966621399</speed>
435 </extensions>
436 </trkpt>
437 <trkpt lat="48.74327748" lon="11.01658839">
438 <ele>449.0</ele>
439 <time>2017-09-02T05:34:53Z</time>
440 <cmt><![CDATA[compass: 226.8247528076172
441 compAccuracy: 0]]></cmt>
442 <extensions>
443 <speed>1.9500000476837158</speed>
444 </extensions>
445 </trkpt>
446 <trkpt lat="48.74328752" lon="11.0165697">
447 <ele>449.0</ele>
448 <time>2017-09-02T05:34:54Z</time>
449 <cmt><![CDATA[compass: 229.65518188476562
450 compAccuracy: 0]]></cmt>
451 <extensions>
452 <speed>1.840000033378601</speed>
453 </extensions>
454 </trkpt>
455 <trkpt lat="48.74330007" lon="11.01655345">
456 <ele>450.0</ele>
457 <time>2017-09-02T05:34:55Z</time>
458 <cmt><![CDATA[compass: 225.45724487304688
459 compAccuracy: 0]]></cmt>
460 <extensions>
461 <speed>2.200000047683716</speed>
462 </extensions>
463 </trkpt>
464 <trkpt lat="48.74331385" lon="11.01653765">
465 <ele>450.0</ele>
466 <time>2017-09-02T05:34:56Z</time>
467 <cmt><![CDATA[compass: 227.36563110351562
468 compAccuracy: 0]]></cmt>
469 <extensions>
470 <speed>1.9199999570846558</speed>
471 </extensions>
472 </trkpt>
473 <trkpt lat="48.7433267" lon="11.0165236">
474 <ele>450.0</ele>
475 <time>2017-09-02T05:34:57Z</time>
476 <cmt><![CDATA[compass: 222.2369842529297
477 compAccuracy: 0]]></cmt>
478 <extensions>
479 <speed>1.7599999904632568</speed>
480 </extensions>
481 </trkpt>
482 <trkpt lat="48.74333802" lon="11.01650669">
483 <ele>450.0</ele>
484 <time>2017-09-02T05:34:58Z</time>
485 <cmt><![CDATA[compass: 196.45407104492188
486 compAccuracy: 0]]></cmt>
487 <extensions>
488 <speed>1.9700000286102295</speed>
489 </extensions>
490 </trkpt>
491 <trkpt lat="48.74334742" lon="11.01648434">
492 <ele>449.0</ele>
493 <time>2017-09-02T05:34:59Z</time>
494 <cmt><![CDATA[compass: 199.09881591796875
495 compAccuracy: 0]]></cmt>
496 <extensions>
497 <speed>1.9500000476837158</speed>
498 </extensions>
499 </trkpt>
500 <trkpt lat="48.74335145" lon="11.0164586">
501 <ele>449.0</ele>
502 <time>2017-09-02T05:35:00Z</time>
503 <cmt><![CDATA[compass: 198.8997802734375
504 compAccuracy: 0]]></cmt>
505 <extensions>
506 <speed>1.9500000476837158</speed>
507 </extensions>
508 </trkpt>
509 <trkpt lat="48.74335375" lon="11.01643171">
510 <ele>449.0</ele>
511 <time>2017-09-02T05:35:01Z</time>
512 <cmt><![CDATA[compass: 194.66464233398438
513 compAccuracy: 0]]></cmt>
514 <extensions>
515 <speed>1.840000033378601</speed>
516 </extensions>
517 </trkpt>
518 <trkpt lat="48.74335512" lon="11.01641442">
519 <ele>446.0</ele>
520 <time>2017-09-02T05:35:02Z</time>
521 <cmt><![CDATA[compass: 141.98574829101562
522 compAccuracy: 0]]></cmt>
523 <extensions>
524 <speed>1.2200000286102295</speed>
525 </extensions>
526 </trkpt>
527 <trkpt lat="48.74335707" lon="11.0164012">
528 <ele>446.0</ele>
529 <time>2017-09-02T05:35:03Z</time>
530 <cmt><![CDATA[compass: 223.53042602539062
531 compAccuracy: 0]]></cmt>
532 <extensions>
533 <speed>1.2200000286102295</speed>
534 </extensions>
535 </trkpt>
536 <trkpt lat="48.74336102" lon="11.01639027">
537 <ele>446.0</ele>
538 <time>2017-09-02T05:35:04Z</time>
539 <cmt><![CDATA[compass: 226.8550262451172
540 compAccuracy: 0]]></cmt>
541 <extensions>
542 <speed>1.1200000047683716</speed>
543 </extensions>
544 </trkpt>
545 <trkpt lat="48.74336642" lon="11.0163808">
546 <ele>446.0</ele>
547 <time>2017-09-02T05:35:05Z</time>
548 <cmt><![CDATA[compass: 237.2650909423828
549 compAccuracy: 0]]></cmt>
550 <extensions>
551 <speed>1.1200000047683716</speed>
552 </extensions>
553 </trkpt>
554 <trkpt lat="48.7433757" lon="11.01637005">
555 <ele>445.0</ele>
556 <time>2017-09-02T05:35:06Z</time>
557 <cmt><![CDATA[compass: 234.67172241210938
558 compAccuracy: 0]]></cmt>
559 <extensions>
560 <speed>1.649999976158142</speed>
561 </extensions>
562 </trkpt>
563 <trkpt lat="48.74338843" lon="11.01636006">
564 <ele>445.0</ele>
565 <time>2017-09-02T05:35:07Z</time>
566 <cmt><![CDATA[compass: 237.55316162109375
567 compAccuracy: 0]]></cmt>
568 <extensions>
569 <speed>1.649999976158142</speed>
570 </extensions>
571 </trkpt>
572 <trkpt lat="48.7433996" lon="11.01635221">
573 <ele>443.0</ele>
574 <time>2017-09-02T05:35:08Z</time>
575 <cmt><![CDATA[compass: 240.2222900390625
576 compAccuracy: 0]]></cmt>
577 <extensions>
578 <speed>1.2899999618530273</speed>
579 </extensions>
580 </trkpt>
581 <trkpt lat="48.74341324" lon="11.01635055">
582 <ele>441.0</ele>
583 <time>2017-09-02T05:35:09Z</time>
584 <cmt><![CDATA[compass: 237.685302734375
585 compAccuracy: 0]]></cmt>
586 <extensions>
587 <speed>2.0199999809265137</speed>
588 </extensions>
589 </trkpt>
590 <trkpt lat="48.74343051" lon="11.01634852">
591 <ele>441.0</ele>
592 <time>2017-09-02T05:35:10Z</time>
593 <cmt><![CDATA[compass: 238.17784118652344
594 compAccuracy: 0]]></cmt>
595 <extensions>
596 <speed>2.0199999809265137</speed>
597 </extensions>
598 </trkpt>
599 <trkpt lat="48.74344127" lon="11.0163449">
600 <ele>443.0</ele>
601 <time>2017-09-02T05:35:11Z</time>
602 <cmt><![CDATA[compass: 238.91098022460938
603 compAccuracy: 0]]></cmt>
604 <extensions>
605 <speed>1.1100000143051147</speed>
606 </extensions>
607 </trkpt>
608 <trkpt lat="48.74344811" lon="11.01634021">
609 <ele>443.0</ele>
610 <time>2017-09-02T05:35:12Z</time>
611 <cmt><![CDATA[compass: 243.063232421875
612 compAccuracy: 0]]></cmt>
613 <extensions>
614 <speed>1.1100000143051147</speed>
615 </extensions>
616 </trkpt>
617 <trkpt lat="48.74345423" lon="11.01633312">
618 <ele>442.0</ele>
619 <time>2017-09-02T05:35:13Z</time>
620 <cmt><![CDATA[compass: 257.8457946777344
621 compAccuracy: 0]]></cmt>
622 <extensions>
623 <speed>1.2999999523162842</speed>
624 </extensions>
625 </trkpt>
626 <trkpt lat="48.74346122" lon="11.01632467">
627 <ele>442.0</ele>
628 <time>2017-09-02T05:35:14Z</time>
629 <cmt><![CDATA[compass: 255.65994262695312
630 compAccuracy: 0]]></cmt>
631 <extensions>
632 <speed>1.2799999713897705</speed>
633 </extensions>
634 </trkpt>
635 <trkpt lat="48.7434678" lon="11.01631203">
636 <ele>442.0</ele>
637 <time>2017-09-02T05:35:15Z</time>
638 <cmt><![CDATA[compass: 260.0950927734375
639 compAccuracy: 0]]></cmt>
640 <extensions>
641 <speed>1.5700000524520874</speed>
642 </extensions>
643 </trkpt>
644 <trkpt lat="48.74347759" lon="11.01629759">
645 <ele>443.0</ele>
646 <time>2017-09-02T05:35:16Z</time>
647 <cmt><![CDATA[compass: 244.80661010742188
648 compAccuracy: 0]]></cmt>
649 <extensions>
650 <speed>1.4900000095367432</speed>
651 </extensions>
652 </trkpt>
653 <trkpt lat="48.74348834" lon="11.01628481">
654 <ele>443.0</ele>
655 <time>2017-09-02T05:35:17Z</time>
656 <cmt><![CDATA[compass: 239.5194854736328
657 compAccuracy: 0]]></cmt>
658 <extensions>
659 <speed>1.5700000524520874</speed>
660 </extensions>
661 </trkpt>
662 <trkpt lat="48.74350032" lon="11.01627469">
663 <ele>443.0</ele>
664 <time>2017-09-02T05:35:18Z</time>
665 <cmt><![CDATA[compass: 43.28729248046875
666 compAccuracy: 0]]></cmt>
667 <extensions>
668 <speed>1.600000023841858</speed>
669 </extensions>
670 </trkpt>
671 <trkpt lat="48.74351538" lon="11.01626795">
672 <ele>443.0</ele>
673 <time>2017-09-02T05:35:19Z</time>
674 <cmt><![CDATA[compass: 101.82574462890625
675 compAccuracy: 0]]></cmt>
676 <extensions>
677 <speed>1.600000023841858</speed>
678 </extensions>
679 </trkpt>
680 <trkpt lat="48.74352893" lon="11.01626248">
681 <ele>443.0</ele>
682 <time>2017-09-02T05:35:20Z</time>
683 <cmt><![CDATA[compass: 218.7163543701172
684 compAccuracy: 0]]></cmt>
685 <extensions>
686 <speed>1.1699999570846558</speed>
687 </extensions>
688 </trkpt>
689 <trkpt lat="48.74354013" lon="11.01625659">
690 <ele>443.0</ele>
691 <time>2017-09-02T05:35:21Z</time>
692 <cmt><![CDATA[compass: 247.80653381347656
693 compAccuracy: 0]]></cmt>
694 <extensions>
695 <speed>1.25</speed>
696 </extensions>
697 </trkpt>
698 <trkpt lat="48.74355073" lon="11.01624861">
699 <ele>442.0</ele>
700 <time>2017-09-02T05:35:22Z</time>
701 <cmt><![CDATA[compass: 245.6123504638672
702 compAccuracy: 0]]></cmt>
703 <extensions>
704 <speed>1.309999942779541</speed>
705 </extensions>
706 </trkpt>
707 <trkpt lat="48.74355872" lon="11.01624102">
708 <ele>442.0</ele>
709 <time>2017-09-02T05:35:23Z</time>
710 <cmt><![CDATA[compass: 232.33714294433594
711 compAccuracy: 0]]></cmt>
712 <extensions>
713 <speed>0.5799999833106995</speed>
714 </extensions>
715 </trkpt>
716 <trkpt lat="48.74356561" lon="11.01623157">
717 <ele>442.0</ele>
718 <time>2017-09-02T05:35:24Z</time>
719 <cmt><![CDATA[compass: 232.19110107421875
720 compAccuracy: 0]]></cmt>
721 <extensions>
722 <speed>1.1100000143051147</speed>
723 </extensions>
724 </trkpt>
725 <trkpt lat="48.74357349" lon="11.01621923">
726 <ele>442.0</ele>
727 <time>2017-09-02T05:35:25Z</time>
728 <cmt><![CDATA[compass: 233.17733764648438
729 compAccuracy: 0]]></cmt>
730 <extensions>
731 <speed>1.1100000143051147</speed>
732 </extensions>
733 </trkpt>
734 <trkpt lat="48.74358278" lon="11.01620182">
735 <ele>443.0</ele>
736 <time>2017-09-02T05:35:26Z</time>
737 <cmt><![CDATA[compass: 237.84933471679688
738 compAccuracy: 0]]></cmt>
739 <extensions>
740 <speed>1.5800000429153442</speed>
741 </extensions>
742 </trkpt>
743 <trkpt lat="48.74359173" lon="11.01618676">
744 <ele>445.0</ele>
745 <time>2017-09-02T05:35:27Z</time>
746 <cmt><![CDATA[compass: 238.8797607421875
747 compAccuracy: 0]]></cmt>
748 <extensions>
749 <speed>0.75</speed>
750 </extensions>
751 </trkpt>
752 <trkpt lat="48.74359687" lon="11.01617688">
753 <ele>444.0</ele>
754 <time>2017-09-02T05:35:28Z</time>
755 <cmt><![CDATA[compass: 251.05276489257812
756 compAccuracy: 0]]></cmt>
757 <extensions>
758 <speed>0.5799999833106995</speed>
759 </extensions>
760 </trkpt>
761 <trkpt lat="48.74360168" lon="11.01616928">
762 <ele>445.0</ele>
763 <time>2017-09-02T05:35:29Z</time>
764 <cmt><![CDATA[compass: 215.68434143066406
765 compAccuracy: 0]]></cmt>
766 <extensions>
767 <speed>0.6800000071525574</speed>
768 </extensions>
769 </trkpt>
770 <trkpt lat="48.74361379" lon="11.01616407">
771 <ele>444.0</ele>
772 <time>2017-09-02T05:35:30Z</time>
773 <cmt><![CDATA[compass: 146.8839111328125
774 compAccuracy: 0]]></cmt>
775 <extensions>
776 <speed>1.6799999475479126</speed>
777 </extensions>
778 </trkpt>
779 <trkpt lat="48.74362853" lon="11.01615514">
780 <ele>444.0</ele>
781 <time>2017-09-02T05:35:31Z</time>
782 <cmt><![CDATA[compass: 168.4293212890625
783 compAccuracy: 0]]></cmt>
784 <extensions>
785 <speed>1.5199999809265137</speed>
786 </extensions>
787 </trkpt>
788 <trkpt lat="48.74364267" lon="11.01614197">
789 <ele>445.0</ele>
790 <time>2017-09-02T05:35:32Z</time>
791 <cmt><![CDATA[compass: 89.21322631835938
792 compAccuracy: 0]]></cmt>
793 <extensions>
794 <speed>1.590000033378601</speed>
795 </extensions>
796 </trkpt>
797 <trkpt lat="48.74365436" lon="11.01612962">
798 <ele>445.0</ele>
799 <time>2017-09-02T05:35:33Z</time>
800 <cmt><![CDATA[compass: 97.7373046875
801 compAccuracy: 0]]></cmt>
802 <extensions>
803 <speed>1.4800000190734863</speed>
804 </extensions>
805 </trkpt>
806 <trkpt lat="48.74366424" lon="11.01611697">
807 <ele>446.0</ele>
808 <time>2017-09-02T05:35:34Z</time>
809 <cmt><![CDATA[compass: 102.4627685546875
810 compAccuracy: 0]]></cmt>
811 <extensions>
812 <speed>0.9399999976158142</speed>
813 </extensions>
814 </trkpt>
815 <trkpt lat="48.74367408" lon="11.0161067">
816 <ele>445.0</ele>
817 <time>2017-09-02T05:35:35Z</time>
818 <cmt><![CDATA[compass: 110.56484985351562
819 compAccuracy: 0]]></cmt>
820 <extensions>
821 <speed>1.3700000047683716</speed>
822 </extensions>
823 </trkpt>
824 <trkpt lat="48.74368764" lon="11.01609495">
825 <ele>446.0</ele>
826 <time>2017-09-02T05:35:36Z</time>
827 <cmt><![CDATA[compass: 114.47836303710938
828 compAccuracy: 0]]></cmt>
829 <extensions>
830 <speed>1.399999976158142</speed>
831 </extensions>
832 </trkpt>
833 <trkpt lat="48.74370173" lon="11.0160828">
834 <ele>446.0</ele>
835 <time>2017-09-02T05:35:37Z</time>
836 <cmt><![CDATA[compass: 121.44479370117188
837 compAccuracy: 0]]></cmt>
838 <extensions>
839 <speed>1.690000057220459</speed>
840 </extensions>
841 </trkpt>
842 <trkpt lat="48.74371171" lon="11.01607332">
843 <ele>443.0</ele>
844 <time>2017-09-02T05:35:38Z</time>
845 <cmt><![CDATA[compass: 124.28048706054688
846 compAccuracy: 0]]></cmt>
847 <extensions>
848 <speed>1.4199999570846558</speed>
849 </extensions>
850 </trkpt>
851 <trkpt lat="48.74372013" lon="11.01606717">
852 <ele>443.0</ele>
853 <time>2017-09-02T05:35:39Z</time>
854 <cmt><![CDATA[compass: 118.61611938476562
855 compAccuracy: 0]]></cmt>
856 <extensions>
857 <speed>1.1299999952316284</speed>
858 </extensions>
859 </trkpt>
860 <trkpt lat="48.7437283" lon="11.01606345">
861 <ele>442.0</ele>
862 <time>2017-09-02T05:35:40Z</time>
863 <cmt><![CDATA[compass: 94.37612915039062
864 compAccuracy: 0]]></cmt>
865 <extensions>
866 <speed>1.090000033378601</speed>
867 </extensions>
868 </trkpt>
869 <trkpt lat="48.74373873" lon="11.01606078">
870 <ele>442.0</ele>
871 <time>2017-09-02T05:35:41Z</time>
872 <cmt><![CDATA[compass: 116.55264282226562
873 compAccuracy: 0]]></cmt>
874 <extensions>
875 <speed>1.4299999475479126</speed>
876 </extensions>
877 </trkpt>
878 <trkpt lat="48.74375005" lon="11.01605665">
879 <ele>441.0</ele>
880 <time>2017-09-02T05:35:42Z</time>
881 <cmt><![CDATA[compass: 117.498779296875
882 compAccuracy: 0]]></cmt>
883 <extensions>
884 <speed>1.0299999713897705</speed>
885 </extensions>
886 </trkpt>
887 <trkpt lat="48.74375529" lon="11.01605108">
888 <ele>442.0</ele>
889 <time>2017-09-02T05:35:43Z</time>
890 <cmt><![CDATA[compass: 113.82315063476562
891 compAccuracy: 0]]></cmt>
892 <extensions>
893 <speed>0.0</speed>
894 </extensions>
895 </trkpt>
896 <trkpt lat="48.7437549" lon="11.01604848">
897 <ele>442.0</ele>
898 <time>2017-09-02T05:35:44Z</time>
899 <cmt><![CDATA[compass: 113.74383544921875
900 compAccuracy: 0]]></cmt>
901 <extensions>
902 <speed>0.0</speed>
903 </extensions>
904 </trkpt>
905 <trkpt lat="48.7437546" lon="11.01604712">
906 <ele>442.0</ele>
907 <time>2017-09-02T05:35:45Z</time>
908 <cmt><![CDATA[compass: 110.6204833984375
909 compAccuracy: 0]]></cmt>
910 <extensions>
911 <speed>0.0</speed>
912 </extensions>
913 </trkpt>
914 <trkpt lat="48.7437548" lon="11.01604423">
915 <ele>443.0</ele>
916 <time>2017-09-02T05:35:46Z</time>
917 <cmt><![CDATA[compass: 106.96392822265625
918 compAccuracy: 0]]></cmt>
919 <extensions>
920 <speed>0.0</speed>
921 </extensions>
922 </trkpt>
923 <trkpt lat="48.74375352" lon="11.01604457">
924 <ele>443.0</ele>
925 <time>2017-09-02T05:35:47Z</time>
926 <cmt><![CDATA[compass: 105.9583740234375
927 compAccuracy: 0]]></cmt>
928 <extensions>
929 <speed>0.0</speed>
930 </extensions>
931 </trkpt>
932 <trkpt lat="48.74375294" lon="11.01604389">
933 <ele>443.0</ele>
934 <time>2017-09-02T05:35:48Z</time>
935 <cmt><![CDATA[compass: 100.9029541015625
936 compAccuracy: 0]]></cmt>
937 <extensions>
938 <speed>0.0</speed>
939 </extensions>
940 </trkpt>
941 <trkpt lat="48.74375228" lon="11.01604271">
942 <ele>443.0</ele>
943 <time>2017-09-02T05:35:49Z</time>
944 <cmt><![CDATA[compass: 113.57940673828125
945 compAccuracy: 0]]></cmt>
946 <extensions>
947 <speed>0.0</speed>
948 </extensions>
949 </trkpt>
950 <trkpt lat="48.74375261" lon="11.01604183">
951 <ele>443.0</ele>
952 <time>2017-09-02T05:35:50Z</time>
953 <cmt><![CDATA[compass: 114.556396484375
954 compAccuracy: 0]]></cmt>
955 <extensions>
956 <speed>0.0</speed>
957 </extensions>
958 </trkpt>
959 <trkpt lat="48.74375424" lon="11.01603951">
960 <ele>443.0</ele>
961 <time>2017-09-02T05:35:51Z</time>
962 <cmt><![CDATA[compass: 115.70358276367188
963 compAccuracy: 0]]></cmt>
964 <extensions>
965 <speed>0.0</speed>
966 </extensions>
967 </trkpt>
968 <trkpt lat="48.74375012" lon="11.01603739">
969 <ele>442.0</ele>
970 <time>2017-09-02T05:35:52Z</time>
971 <cmt><![CDATA[compass: 112.38021850585938
972 compAccuracy: 0]]></cmt>
973 <extensions>
974 <speed>0.0</speed>
975 </extensions>
976 </trkpt>
977 <trkpt lat="48.74374816" lon="11.01603654">
978 <ele>442.0</ele>
979 <time>2017-09-02T05:35:53Z</time>
980 <cmt><![CDATA[compass: 114.59854125976562
981 compAccuracy: 0]]></cmt>
982 <extensions>
983 <speed>0.0</speed>
984 </extensions>
985 </trkpt>
986 <trkpt lat="48.74374808" lon="11.01603548">
987 <ele>443.0</ele>
988 <time>2017-09-02T05:35:54Z</time>
989 <cmt><![CDATA[compass: 119.95147705078125
990 compAccuracy: 0]]></cmt>
991 <extensions>
992 <speed>0.0</speed>
993 </extensions>
994 </trkpt>
995 <trkpt lat="48.74374744" lon="11.0160335">
996 <ele>443.0</ele>
997 <time>2017-09-02T05:35:55Z</time>
998 <cmt><![CDATA[compass: 120.77923583984375
999 compAccuracy: 0]]></cmt>
1000 <extensions>
1001 <speed>0.0</speed>
1002 </extensions>
1003 </trkpt>
1004 <trkpt lat="48.74374726" lon="11.01603243">
1005 <ele>443.0</ele>
1006 <time>2017-09-02T05:35:56Z</time>
1007 <cmt><![CDATA[compass: 120.89675903320312
1008 compAccuracy: 0]]></cmt>
1009 <extensions>
1010 <speed>0.0</speed>
1011 </extensions>
1012 </trkpt>
1013 <trkpt lat="48.74374741" lon="11.01603186">
1014 <ele>443.0</ele>
1015 <time>2017-09-02T05:35:57Z</time>
1016 <cmt><![CDATA[compass: 119.038330078125
1017 compAccuracy: 0]]></cmt>
1018 <extensions>
1019 <speed>0.0</speed>
1020 </extensions>
1021 </trkpt>
1022 <trkpt lat="48.74374762" lon="11.01603148">
1023 <ele>443.0</ele>
1024 <time>2017-09-02T05:35:58Z</time>
1025 <cmt><![CDATA[compass: 121.28955078125
1026 compAccuracy: 0]]></cmt>
1027 <extensions>
1028 <speed>0.0</speed>
1029 </extensions>
1030 </trkpt>
1031 <trkpt lat="48.74374783" lon="11.01603127">
1032 <ele>443.0</ele>
1033 <time>2017-09-02T05:35:59Z</time>
1034 <cmt><![CDATA[compass: 120.548583984375
1035 compAccuracy: 0]]></cmt>
1036 <extensions>
1037 <speed>0.0</speed>
1038 </extensions>
1039 </trkpt>
1040 <trkpt lat="48.74374796" lon="11.01603115">
1041 <ele>443.0</ele>
1042 <time>2017-09-02T05:36:00Z</time>
1043 <cmt><![CDATA[compass: 121.798583984375
1044 compAccuracy: 0]]></cmt>
1045 <extensions>
1046 <speed>0.0</speed>
1047 </extensions>
1048 </trkpt>
1049 <trkpt lat="48.74374805" lon="11.0160311">
1050 <ele>443.0</ele>
1051 <time>2017-09-02T05:36:01Z</time>
1052 <cmt><![CDATA[compass: 120.55545043945312
1053 compAccuracy: 0]]></cmt>
1054 <extensions>
1055 <speed>0.0</speed>
1056 </extensions>
1057 </trkpt>
1058 <trkpt lat="48.74374812" lon="11.01603107">
1059 <ele>443.0</ele>
1060 <time>2017-09-02T05:36:02Z</time>
1061 <cmt><![CDATA[compass: 122.48245239257812
1062 compAccuracy: 0]]></cmt>
1063 <extensions>
1064 <speed>0.0</speed>
1065 </extensions>
1066 </trkpt>
1067 <trkpt lat="48.7437482" lon="11.01603105">
1068 <ele>443.0</ele>
1069 <time>2017-09-02T05:36:03Z</time>
1070 <cmt><![CDATA[compass: 121.398193359375
1071 compAccuracy: 0]]></cmt>
1072 <extensions>
1073 <speed>0.0</speed>
1074 </extensions>
1075 </trkpt>
1076 <trkpt lat="48.74374825" lon="11.01603102">
1077 <ele>443.0</ele>
1078 <time>2017-09-02T05:36:04Z</time>
1079 <cmt><![CDATA[compass: 119.494140625
1080 compAccuracy: 0]]></cmt>
1081 <extensions>
1082 <speed>0.0</speed>
1083 </extensions>
1084 </trkpt>
1085 <trkpt lat="48.74375488" lon="11.01602379">
1086 <ele>443.0</ele>
1087 <time>2017-09-02T05:36:05Z</time>
1088 <cmt><![CDATA[compass: 62.65399169921875
1089 compAccuracy: 0]]></cmt>
1090 <extensions>
1091 <speed>1.3899999856948853</speed>
1092 </extensions>
1093 </trkpt>
1094 <trkpt lat="48.74376507" lon="11.0160085">
1095 <ele>442.0</ele>
1096 <time>2017-09-02T05:36:06Z</time>
1097 <cmt><![CDATA[compass: 198.56068420410156
1098 compAccuracy: 0]]></cmt>
1099 <extensions>
1100 <speed>1.5499999523162842</speed>
1101 </extensions>
1102 </trkpt>
1103 <trkpt lat="48.74377757" lon="11.01599051">
1104 <ele>443.0</ele>
1105 <time>2017-09-02T05:36:07Z</time>
1106 <cmt><![CDATA[compass: 62.7822265625
1107 compAccuracy: 0]]></cmt>
1108 <extensions>
1109 <speed>1.9700000286102295</speed>
1110 </extensions>
1111 </trkpt>
1112 <trkpt lat="48.74379076" lon="11.01597082">
1113 <ele>444.0</ele>
1114 <time>2017-09-02T05:36:08Z</time>
1115 <cmt><![CDATA[compass: 193.4442596435547
1116 compAccuracy: 0]]></cmt>
1117 <extensions>
1118 <speed>1.850000023841858</speed>
1119 </extensions>
1120 </trkpt>
1121 <trkpt lat="48.74380795" lon="11.01594565">
1122 <ele>445.0</ele>
1123 <time>2017-09-02T05:36:09Z</time>
1124 <cmt><![CDATA[compass: 236.17507934570312
1125 compAccuracy: 0]]></cmt>
1126 <extensions>
1127 <speed>3.009999990463257</speed>
1128 </extensions>
1129 </trkpt>
1130 <trkpt lat="48.74382719" lon="11.01591821">
1131 <ele>445.0</ele>
1132 <time>2017-09-02T05:36:10Z</time>
1133 <cmt><![CDATA[compass: 207.1715087890625
1134 compAccuracy: 0]]></cmt>
1135 <extensions>
1136 <speed>2.700000047683716</speed>
1137 </extensions>
1138 </trkpt>
1139 <trkpt lat="48.74384158" lon="11.01589348">
1140 <ele>442.0</ele>
1141 <time>2017-09-02T05:36:11Z</time>
1142 <cmt><![CDATA[compass: 214.32168579101562
1143 compAccuracy: 0]]></cmt>
1144 <extensions>
1145 <speed>2.390000104904175</speed>
1146 </extensions>
1147 </trkpt>
1148 <trkpt lat="48.74385316" lon="11.0158759">
1149 <ele>443.0</ele>
1150 <time>2017-09-02T05:36:12Z</time>
1151 <cmt><![CDATA[compass: 204.94175720214844
1152 compAccuracy: 0]]></cmt>
1153 <extensions>
1154 <speed>1.659999966621399</speed>
1155 </extensions>
1156 </trkpt>
1157 <trkpt lat="48.74386275" lon="11.01586438">
1158 <ele>445.0</ele>
1159 <time>2017-09-02T05:36:13Z</time>
1160 <cmt><![CDATA[compass: 203.73141479492188
1161 compAccuracy: 0]]></cmt>
1162 <extensions>
1163 <speed>1.3799999952316284</speed>
1164 </extensions>
1165 </trkpt>
1166 <trkpt lat="48.74387279" lon="11.01585683">
1167 <ele>445.0</ele>
1168 <time>2017-09-02T05:36:14Z</time>
1169 <cmt><![CDATA[compass: 264.92584228515625
1170 compAccuracy: 0]]></cmt>
1171 <extensions>
1172 <speed>1.409999966621399</speed>
1173 </extensions>
1174 </trkpt>
1175 <trkpt lat="48.74388481" lon="11.01584936">
1176 <ele>447.0</ele>
1177 <time>2017-09-02T05:36:15Z</time>
1178 <cmt><![CDATA[compass: 224.2218475341797
1179 compAccuracy: 0]]></cmt>
1180 <extensions>
1181 <speed>1.5099999904632568</speed>
1182 </extensions>
1183 </trkpt>
1184 <trkpt lat="48.74389983" lon="11.0158403">
1185 <ele>446.0</ele>
1186 <time>2017-09-02T05:36:16Z</time>
1187 <cmt><![CDATA[compass: 249.1312713623047
1188 compAccuracy: 0]]></cmt>
1189 <extensions>
1190 <speed>2.390000104904175</speed>
1191 </extensions>
1192 </trkpt>
1193 <trkpt lat="48.74391435" lon="11.01582793">
1194 <ele>446.0</ele>
1195 <time>2017-09-02T05:36:17Z</time>
1196 <cmt><![CDATA[compass: 234.0869903564453
1197 compAccuracy: 0]]></cmt>
1198 <extensions>
1199 <speed>1.8899999856948853</speed>
1200 </extensions>
1201 </trkpt>
1202 <trkpt lat="48.74393185" lon="11.01581179">
1203 <ele>446.0</ele>
1204 <time>2017-09-02T05:36:18Z</time>
1205 <cmt><![CDATA[compass: 235.96835327148438
1206 compAccuracy: 0]]></cmt>
1207 <extensions>
1208 <speed>2.7799999713897705</speed>
1209 </extensions>
1210 </trkpt>
1211 <trkpt lat="48.74394692" lon="11.01579653">
1212 <ele>448.0</ele>
1213 <time>2017-09-02T05:36:19Z</time>
1214 <cmt><![CDATA[compass: 235.54656982421875
1215 compAccuracy: 0]]></cmt>
1216 <extensions>
1217 <speed>1.6299999952316284</speed>
1218 </extensions>
1219 </trkpt>
1220 <trkpt lat="48.74395423" lon="11.01578625">
1221 <ele>448.0</ele>
1222 <time>2017-09-02T05:36:20Z</time>
1223 <cmt><![CDATA[compass: 246.0316925048828
1224 compAccuracy: 0]]></cmt>
1225 <extensions>
1226 <speed>1.2599999904632568</speed>
1227 </extensions>
1228 </trkpt>
1229 <trkpt lat="48.74396143" lon="11.01577814">
1230 <ele>448.0</ele>
1231 <time>2017-09-02T05:36:21Z</time>
1232 <cmt><![CDATA[compass: 231.875
1233 compAccuracy: 0]]></cmt>
1234 <extensions>
1235 <speed>1.2899999618530273</speed>
1236 </extensions>
1237 </trkpt>
1238 <trkpt lat="48.74397067" lon="11.01577231">
1239 <ele>448.0</ele>
1240 <time>2017-09-02T05:36:22Z</time>
1241 <cmt><![CDATA[compass: 231.763916015625
1242 compAccuracy: 0]]></cmt>
1243 <extensions>
1244 <speed>1.350000023841858</speed>
1245 </extensions>
1246 </trkpt>
1247 <trkpt lat="48.74398558" lon="11.01576145">
1248 <ele>447.0</ele>
1249 <time>2017-09-02T05:36:23Z</time>
1250 <cmt><![CDATA[compass: 225.6217041015625
1251 compAccuracy: 0]]></cmt>
1252 <extensions>
1253 <speed>2.3299999237060547</speed>
1254 </extensions>
1255 </trkpt>
1256 <trkpt lat="48.74400762" lon="11.01573689">
1257 <ele>446.0</ele>
1258 <time>2017-09-02T05:36:24Z</time>
1259 <cmt><![CDATA[compass: 210.76715087890625
1260 compAccuracy: 0]]></cmt>
1261 <extensions>
1262 <speed>3.4000000953674316</speed>
1263 </extensions>
1264 </trkpt>
1265 <trkpt lat="48.7440292" lon="11.01570908">
1266 <ele>446.0</ele>
1267 <time>2017-09-02T05:36:25Z</time>
1268 <cmt><![CDATA[compass: 207.36117553710938
1269 compAccuracy: 0]]></cmt>
1270 <extensions>
1271 <speed>2.8499999046325684</speed>
1272 </extensions>
1273 </trkpt>
1274 <trkpt lat="48.7440473" lon="11.01568211">
1275 <ele>446.0</ele>
1276 <time>2017-09-02T05:36:26Z</time>
1277 <cmt><![CDATA[compass: 219.24810791015625
1278 compAccuracy: 0]]></cmt>
1279 <extensions>
1280 <speed>2.680000066757202</speed>
1281 </extensions>
1282 </trkpt>
1283 <trkpt lat="48.74406653" lon="11.01565305">
1284 <ele>445.0</ele>
1285 <time>2017-09-02T05:36:27Z</time>
1286 <cmt><![CDATA[compass: 214.8413848876953
1287 compAccuracy: 0]]></cmt>
1288 <extensions>
1289 <speed>3.7200000286102295</speed>
1290 </extensions>
1291 </trkpt>
1292 <trkpt lat="48.74408774" lon="11.01562281">
1293 <ele>447.0</ele>
1294 <time>2017-09-02T05:36:28Z</time>
1295 <cmt><![CDATA[compass: 233.0870361328125
1296 compAccuracy: 0]]></cmt>
1297 <extensions>
1298 <speed>2.890000104904175</speed>
1299 </extensions>
1300 </trkpt>
1301 <trkpt lat="48.74410468" lon="11.0155973">
1302 <ele>447.0</ele>
1303 <time>2017-09-02T05:36:29Z</time>
1304 <cmt><![CDATA[compass: 222.21981811523438
1305 compAccuracy: 0]]></cmt>
1306 <extensions>
1307 <speed>2.4700000286102295</speed>
1308 </extensions>
1309 </trkpt>
1310 <trkpt lat="48.74411655" lon="11.01557887">
1311 <ele>447.0</ele>
1312 <time>2017-09-02T05:36:30Z</time>
1313 <cmt><![CDATA[compass: 219.72784423828125
1314 compAccuracy: 0]]></cmt>
1315 <extensions>
1316 <speed>2.059999942779541</speed>
1317 </extensions>
1318 </trkpt>
1319 <trkpt lat="48.74412884" lon="11.01556438">
1320 <ele>447.0</ele>
1321 <time>2017-09-02T05:36:31Z</time>
1322 <cmt><![CDATA[compass: 225.6791534423828
1323 compAccuracy: 0]]></cmt>
1324 <extensions>
1325 <speed>2.059999942779541</speed>
1326 </extensions>
1327 </trkpt>
1328 <trkpt lat="48.74413327" lon="11.01556551">
1329 <ele>448.0</ele>
1330 <time>2017-09-02T05:36:32Z</time>
1331 <cmt><![CDATA[compass: 223.07424926757812
1332 compAccuracy: 0]]></cmt>
1333 <extensions>
1334 <speed>0.7200000286102295</speed>
1335 </extensions>
1336 </trkpt>
1337 <trkpt lat="48.74413874" lon="11.01556679">
1338 <ele>447.0</ele>
1339 <time>2017-09-02T05:36:33Z</time>
1340 <cmt><![CDATA[compass: 217.4711456298828
1341 compAccuracy: 0]]></cmt>
1342 <extensions>
1343 <speed>1.8600000143051147</speed>
1344 </extensions>
1345 </trkpt>
1346 <trkpt lat="48.74414577" lon="11.01556218">
1347 <ele>447.0</ele>
1348 <time>2017-09-02T05:36:34Z</time>
1349 <cmt><![CDATA[compass: 213.58099365234375
1350 compAccuracy: 0]]></cmt>
1351 <extensions>
1352 <speed>1.7899999618530273</speed>
1353 </extensions>
1354 </trkpt>
1355 <trkpt lat="48.74414771" lon="11.01555467">
1356 <ele>447.0</ele>
1357 <time>2017-09-02T05:36:35Z</time>
1358 <cmt><![CDATA[compass: 118.00704956054688
1359 compAccuracy: 0]]></cmt>
1360 <extensions>
1361 <speed>1.2200000286102295</speed>
1362 </extensions>
1363 </trkpt>
1364 <trkpt lat="48.74415101" lon="11.01554945">
1365 <ele>446.0</ele>
1366 <time>2017-09-02T05:36:36Z</time>
1367 <cmt><![CDATA[compass: 73.63238525390625
1368 compAccuracy: 0]]></cmt>
1369 <extensions>
1370 <speed>1.5</speed>
1371 </extensions>
1372 </trkpt>
1373 <trkpt lat="48.74415619" lon="11.01554647">
1374 <ele>445.0</ele>
1375 <time>2017-09-02T05:36:37Z</time>
1376 <cmt><![CDATA[compass: 126.589111328125
1377 compAccuracy: 0]]></cmt>
1378 <extensions>
1379 <speed>1.4500000476837158</speed>
1380 </extensions>
1381 </trkpt>
1382 <trkpt lat="48.74416026" lon="11.01554242">
1383 <ele>446.0</ele>
1384 <time>2017-09-02T05:36:38Z</time>
1385 <cmt><![CDATA[compass: 124.57748413085938
1386 compAccuracy: 0]]></cmt>
1387 <extensions>
1388 <speed>1.350000023841858</speed>
1389 </extensions>
1390 </trkpt>
1391 <trkpt lat="48.74416051" lon="11.01553969">
1392 <ele>445.0</ele>
1393 <time>2017-09-02T05:36:39Z</time>
1394 <cmt><![CDATA[compass: 126.85317993164062
1395 compAccuracy: 0]]></cmt>
1396 <extensions>
1397 <speed>1.0099999904632568</speed>
1398 </extensions>
1399 </trkpt>
1400 <trkpt lat="48.74415739" lon="11.01553986">
1401 <ele>444.0</ele>
1402 <time>2017-09-02T05:36:40Z</time>
1403 <cmt><![CDATA[compass: 135.55511474609375
1404 compAccuracy: 0]]></cmt>
1405 <extensions>
1406 <speed>0.5400000214576721</speed>
1407 </extensions>
1408 </trkpt>
1409 <trkpt lat="48.74415401" lon="11.01554361">
1410 <ele>444.0</ele>
1411 <time>2017-09-02T05:36:41Z</time>
1412 <cmt><![CDATA[compass: 151.1634521484375
1413 compAccuracy: 0]]></cmt>
1414 <extensions>
1415 <speed>0.25</speed>
1416 </extensions>
1417 </trkpt>
1418 <trkpt lat="48.74414474" lon="11.01556056">
1419 <ele>445.0</ele>
1420 <time>2017-09-02T05:36:42Z</time>
1421 <cmt><![CDATA[compass: 152.7822265625
1422 compAccuracy: 0]]></cmt>
1423 <extensions>
1424 <speed>0.0</speed>
1425 </extensions>
1426 </trkpt>
1427 <trkpt lat="48.74413899" lon="11.01557326">
1428 <ele>445.0</ele>
1429 <time>2017-09-02T05:36:43Z</time>
1430 <cmt><![CDATA[compass: 154.4573974609375
1431 compAccuracy: 0]]></cmt>
1432 <extensions>
1433 <speed>0.0</speed>
1434 </extensions>
1435 </trkpt>
1436 <trkpt lat="48.74413167" lon="11.01558119">
1437 <ele>444.0</ele>
1438 <time>2017-09-02T05:36:44Z</time>
1439 <cmt><![CDATA[compass: 155.24072265625
1440 compAccuracy: 0]]></cmt>
1441 <extensions>
1442 <speed>0.0</speed>
1443 </extensions>
1444 </trkpt>
1445 <trkpt lat="48.7441215" lon="11.0155873">
1446 <ele>443.0</ele>
1447 <time>2017-09-02T05:36:45Z</time>
1448 <cmt><![CDATA[compass: 153.57684326171875
1449 compAccuracy: 0]]></cmt>
1450 <extensions>
1451 <speed>0.0</speed>
1452 </extensions>
1453 </trkpt>
1454 <trkpt lat="48.7441157" lon="11.01559035">
1455 <ele>443.0</ele>
1456 <time>2017-09-02T05:36:46Z</time>
1457 <cmt><![CDATA[compass: 151.6571044921875
1458 compAccuracy: 0]]></cmt>
1459 <extensions>
1460 <speed>0.0</speed>
1461 </extensions>
1462 </trkpt>
1463 <trkpt lat="48.74411423" lon="11.01559192">
1464 <ele>443.0</ele>
1465 <time>2017-09-02T05:36:47Z</time>
1466 <cmt><![CDATA[compass: 152.81591796875
1467 compAccuracy: 0]]></cmt>
1468 <extensions>
1469 <speed>0.0</speed>
1470 </extensions>
1471 </trkpt>
1472 <trkpt lat="48.74411438" lon="11.01559501">
1473 <ele>443.0</ele>
1474 <time>2017-09-02T05:36:48Z</time>
1475 <cmt><![CDATA[compass: 152.972900390625
1476 compAccuracy: 0]]></cmt>
1477 <extensions>
1478 <speed>0.0</speed>
1479 </extensions>
1480 </trkpt>
1481 <trkpt lat="48.74411489" lon="11.01559929">
1482 <ele>443.0</ele>
1483 <time>2017-09-02T05:36:49Z</time>
1484 <cmt><![CDATA[compass: 152.3936767578125
1485 compAccuracy: 0]]></cmt>
1486 <extensions>
1487 <speed>0.0</speed>
1488 </extensions>
1489 </trkpt>
1490 <trkpt lat="48.74412054" lon="11.01559844">
1491 <ele>443.0</ele>
1492 <time>2017-09-02T05:36:50Z</time>
1493 <cmt><![CDATA[compass: 154.97021484375
1494 compAccuracy: 0]]></cmt>
1495 <extensions>
1496 <speed>0.7599999904632568</speed>
1497 </extensions>
1498 </trkpt>
1499 <trkpt lat="48.74413291" lon="11.01559267">
1500 <ele>443.0</ele>
1501 <time>2017-09-02T05:36:51Z</time>
1502 <cmt><![CDATA[compass: 138.70758056640625
1503 compAccuracy: 0]]></cmt>
1504 <extensions>
1505 <speed>1.409999966621399</speed>
1506 </extensions>
1507 </trkpt>
1508 <trkpt lat="48.74415408" lon="11.01557838">
1509 <ele>443.0</ele>
1510 <time>2017-09-02T05:36:52Z</time>
1511 <cmt><![CDATA[compass: 254.322021484375
1512 compAccuracy: 0]]></cmt>
1513 <extensions>
1514 <speed>3.0399999618530273</speed>
1515 </extensions>
1516 </trkpt>
1517 <trkpt lat="48.74417895" lon="11.01555959">
1518 <ele>443.0</ele>
1519 <time>2017-09-02T05:36:53Z</time>
1520 <cmt><![CDATA[compass: 261.176513671875
1521 compAccuracy: 0]]></cmt>
1522 <extensions>
1523 <speed>2.450000047683716</speed>
1524 </extensions>
1525 </trkpt>
1526 <trkpt lat="48.74420195" lon="11.01554091">
1527 <ele>444.0</ele>
1528 <time>2017-09-02T05:36:54Z</time>
1529 <cmt><![CDATA[compass: 249.63916015625
1530 compAccuracy: 0]]></cmt>
1531 <extensions>
1532 <speed>2.5999999046325684</speed>
1533 </extensions>
1534 </trkpt>
1535 <trkpt lat="48.74422364" lon="11.01552581">
1536 <ele>444.0</ele>
1537 <time>2017-09-02T05:36:55Z</time>
1538 <cmt><![CDATA[compass: 145.41546630859375
1539 compAccuracy: 0]]></cmt>
1540 <extensions>
1541 <speed>2.0999999046325684</speed>
1542 </extensions>
1543 </trkpt>
1544 <trkpt lat="48.74424402" lon="11.01551616">
1545 <ele>444.0</ele>
1546 <time>2017-09-02T05:36:56Z</time>
1547 <cmt><![CDATA[compass: 146.08599853515625
1548 compAccuracy: 0]]></cmt>
1549 <extensions>
1550 <speed>1.9700000286102295</speed>
1551 </extensions>
1552 </trkpt>
1553 <trkpt lat="48.7442615" lon="11.01550816">
1554 <ele>444.0</ele>
1555 <time>2017-09-02T05:36:57Z</time>
1556 <cmt><![CDATA[compass: 148.18356323242188
1557 compAccuracy: 0]]></cmt>
1558 <extensions>
1559 <speed>1.7100000381469727</speed>
1560 </extensions>
1561 </trkpt>
1562 <trkpt lat="48.74427592" lon="11.01549906">
1563 <ele>443.0</ele>
1564 <time>2017-09-02T05:36:58Z</time>
1565 <cmt><![CDATA[compass: 155.92706298828125
1566 compAccuracy: 0]]></cmt>
1567 <extensions>
1568 <speed>1.5</speed>
1569 </extensions>
1570 </trkpt>
1571 <trkpt lat="48.74429017" lon="11.0154879">
1572 <ele>442.0</ele>
1573 <time>2017-09-02T05:36:59Z</time>
1574 <cmt><![CDATA[compass: 257.6700439453125
1575 compAccuracy: 0]]></cmt>
1576 <extensions>
1577 <speed>1.7599999904632568</speed>
1578 </extensions>
1579 </trkpt>
1580 <trkpt lat="48.74430621" lon="11.01547782">
1581 <ele>443.0</ele>
1582 <time>2017-09-02T05:37:00Z</time>
1583 <cmt><![CDATA[compass: 263.1169128417969
1584 compAccuracy: 0]]></cmt>
1585 <extensions>
1586 <speed>1.8600000143051147</speed>
1587 </extensions>
1588 </trkpt>
1589 <trkpt lat="48.74432456" lon="11.01546956">
1590 <ele>444.0</ele>
1591 <time>2017-09-02T05:37:01Z</time>
1592 <cmt><![CDATA[compass: 262.5558166503906
1593 compAccuracy: 0]]></cmt>
1594 <extensions>
1595 <speed>1.9800000190734863</speed>
1596 </extensions>
1597 </trkpt>
1598 <trkpt lat="48.74433993" lon="11.0154661">
1599 <ele>444.0</ele>
1600 <time>2017-09-02T05:37:02Z</time>
1601 <cmt><![CDATA[compass: 267.00958251953125
1602 compAccuracy: 0]]></cmt>
1603 <extensions>
1604 <speed>1.2999999523162842</speed>
1605 </extensions>
1606 </trkpt>
1607 <trkpt lat="48.74435127" lon="11.01546303">
1608 <ele>445.0</ele>
1609 <time>2017-09-02T05:37:03Z</time>
1610 <cmt><![CDATA[compass: 237.57241821289062
1611 compAccuracy: 0]]></cmt>
1612 <extensions>
1613 <speed>1.159999966621399</speed>
1614 </extensions>
1615 </trkpt>
1616 <trkpt lat="48.74436187" lon="11.01545724">
1617 <ele>445.0</ele>
1618 <time>2017-09-02T05:37:04Z</time>
1619 <cmt><![CDATA[compass: 261.23089599609375
1620 compAccuracy: 0]]></cmt>
1621 <extensions>
1622 <speed>1.4900000095367432</speed>
1623 </extensions>
1624 </trkpt>
1625 <trkpt lat="48.74437393" lon="11.01545097">
1626 <ele>446.0</ele>
1627 <time>2017-09-02T05:37:05Z</time>
1628 <cmt><![CDATA[compass: 259.4823913574219
1629 compAccuracy: 0]]></cmt>
1630 <extensions>
1631 <speed>1.4299999475479126</speed>
1632 </extensions>
1633 </trkpt>
1634 <trkpt lat="48.74438665" lon="11.01544632">
1635 <ele>446.0</ele>
1636 <time>2017-09-02T05:37:06Z</time>
1637 <cmt><![CDATA[compass: 251.25985717773438
1638 compAccuracy: 0]]></cmt>
1639 <extensions>
1640 <speed>1.409999966621399</speed>
1641 </extensions>
1642 </trkpt>
1643 <trkpt lat="48.74439706" lon="11.01544499">
1644 <ele>446.0</ele>
1645 <time>2017-09-02T05:37:07Z</time>
1646 <cmt><![CDATA[compass: 250.92337036132812
1647 compAccuracy: 0]]></cmt>
1648 <extensions>
1649 <speed>0.9900000095367432</speed>
1650 </extensions>
1651 </trkpt>
1652 <trkpt lat="48.74440725" lon="11.0154424">
1653 <ele>446.0</ele>
1654 <time>2017-09-02T05:37:08Z</time>
1655 <cmt><![CDATA[compass: 265.16552734375
1656 compAccuracy: 0]]></cmt>
1657 <extensions>
1658 <speed>1.1399999856948853</speed>
1659 </extensions>
1660 </trkpt>
1661 <trkpt lat="48.74441656" lon="11.01543969">
1662 <ele>444.0</ele>
1663 <time>2017-09-02T05:37:09Z</time>
1664 <cmt><![CDATA[compass: 269.3790588378906
1665 compAccuracy: 0]]></cmt>
1666 <extensions>
1667 <speed>0.7599999904632568</speed>
1668 </extensions>
1669 </trkpt>
1670 <trkpt lat="48.74442602" lon="11.01543687">
1671 <ele>443.0</ele>
1672 <time>2017-09-02T05:37:10Z</time>
1673 <cmt><![CDATA[compass: 272.9502868652344
1674 compAccuracy: 0]]></cmt>
1675 <extensions>
1676 <speed>1.149999976158142</speed>
1677 </extensions>
1678 </trkpt>
1679 <trkpt lat="48.74443942" lon="11.01543854">
1680 <ele>442.0</ele>
1681 <time>2017-09-02T05:37:11Z</time>
1682 <cmt><![CDATA[compass: 262.8678283691406
1683 compAccuracy: 0]]></cmt>
1684 <extensions>
1685 <speed>1.0099999904632568</speed>
1686 </extensions>
1687 </trkpt>
1688 <trkpt lat="48.74445025" lon="11.01543873">
1689 <ele>442.0</ele>
1690 <time>2017-09-02T05:37:12Z</time>
1691 <cmt><![CDATA[compass: 270.87213134765625
1692 compAccuracy: 0]]></cmt>
1693 <extensions>
1694 <speed>0.7400000095367432</speed>
1695 </extensions>
1696 </trkpt>
1697 <trkpt lat="48.74445764" lon="11.01543723">
1698 <ele>441.0</ele>
1699 <time>2017-09-02T05:37:13Z</time>
1700 <cmt><![CDATA[compass: 268.82501220703125
1701 compAccuracy: 0]]></cmt>
1702 <extensions>
1703 <speed>0.8799999952316284</speed>
1704 </extensions>
1705 </trkpt>
1706 <trkpt lat="48.74446574" lon="11.01543493">
1707 <ele>441.0</ele>
1708 <time>2017-09-02T05:37:14Z</time>
1709 <cmt><![CDATA[compass: 275.6471252441406
1710 compAccuracy: 0]]></cmt>
1711 <extensions>
1712 <speed>0.9300000071525574</speed>
1713 </extensions>
1714 </trkpt>
1715 <trkpt lat="48.74447636" lon="11.01542991">
1716 <ele>441.0</ele>
1717 <time>2017-09-02T05:37:15Z</time>
1718 <cmt><![CDATA[compass: 281.9012451171875
1719 compAccuracy: 0]]></cmt>
1720 <extensions>
1721 <speed>1.1799999475479126</speed>
1722 </extensions>
1723 </trkpt>
1724 <trkpt lat="48.74448523" lon="11.01542731">
1725 <ele>442.0</ele>
1726 <time>2017-09-02T05:37:16Z</time>
1727 <cmt><![CDATA[compass: 288.1522521972656
1728 compAccuracy: 0]]></cmt>
1729 <extensions>
1730 <speed>0.7599999904632568</speed>
1731 </extensions>
1732 </trkpt>
1733 <trkpt lat="48.74449318" lon="11.01542633">
1734 <ele>443.0</ele>
1735 <time>2017-09-02T05:37:17Z</time>
1736 <cmt><![CDATA[compass: 279.7164001464844
1737 compAccuracy: 0]]></cmt>
1738 <extensions>
1739 <speed>0.7799999713897705</speed>
1740 </extensions>
1741 </trkpt>
1742 <trkpt lat="48.74450045" lon="11.01542252">
1743 <ele>443.0</ele>
1744 <time>2017-09-02T05:37:18Z</time>
1745 <cmt><![CDATA[compass: 281.0539855957031
1746 compAccuracy: 0]]></cmt>
1747 <extensions>
1748 <speed>0.7200000286102295</speed>
1749 </extensions>
1750 </trkpt>
1751 <trkpt lat="48.74450671" lon="11.01541487">
1752 <ele>443.0</ele>
1753 <time>2017-09-02T05:37:19Z</time>
1754 <cmt><![CDATA[compass: 321.61358642578125
1755 compAccuracy: 0]]></cmt>
1756 <extensions>
1757 <speed>0.9200000166893005</speed>
1758 </extensions>
1759 </trkpt>
1760 <trkpt lat="48.74451421" lon="11.01540299">
1761 <ele>444.0</ele>
1762 <time>2017-09-02T05:37:20Z</time>
1763 <cmt><![CDATA[compass: 312.9777526855469
1764 compAccuracy: 0]]></cmt>
1765 <extensions>
1766 <speed>1.0499999523162842</speed>
1767 </extensions>
1768 </trkpt>
1769 <trkpt lat="48.74452078" lon="11.01539453">
1770 <ele>443.0</ele>
1771 <time>2017-09-02T05:37:21Z</time>
1772 <cmt><![CDATA[compass: 298.988525390625
1773 compAccuracy: 0]]></cmt>
1774 <extensions>
1775 <speed>0.5400000214576721</speed>
1776 </extensions>
1777 </trkpt>
1778 <trkpt lat="48.7445279" lon="11.01538656">
1779 <ele>443.0</ele>
1780 <time>2017-09-02T05:37:22Z</time>
1781 <cmt><![CDATA[compass: 318.69073486328125
1782 compAccuracy: 0]]></cmt>
1783 <extensions>
1784 <speed>0.8299999833106995</speed>
1785 </extensions>
1786 </trkpt>
1787 <trkpt lat="48.74453896" lon="11.01537884">
1788 <ele>442.0</ele>
1789 <time>2017-09-02T05:37:23Z</time>
1790 <cmt><![CDATA[compass: 351.1455383300781
1791 compAccuracy: 0]]></cmt>
1792 <extensions>
1793 <speed>1.3300000429153442</speed>
1794 </extensions>
1795 </trkpt>
1796 <trkpt lat="48.74455317" lon="11.01537524">
1797 <ele>443.0</ele>
1798 <time>2017-09-02T05:37:24Z</time>
1799 <cmt><![CDATA[compass: 330.523681640625
1800 compAccuracy: 0]]></cmt>
1801 <extensions>
1802 <speed>1.4600000381469727</speed>
1803 </extensions>
1804 </trkpt>
1805 <trkpt lat="48.74457173" lon="11.01537617">
1806 <ele>443.0</ele>
1807 <time>2017-09-02T05:37:25Z</time>
1808 <cmt><![CDATA[compass: 341.8846130371094
1809 compAccuracy: 0]]></cmt>
1810 <extensions>
1811 <speed>2.0799999237060547</speed>
1812 </extensions>
1813 </trkpt>
1814 <trkpt lat="48.74459287" lon="11.01537534">
1815 <ele>443.0</ele>
1816 <time>2017-09-02T05:37:26Z</time>
1817 <cmt><![CDATA[compass: 350.3699645996094
1818 compAccuracy: 0]]></cmt>
1819 <extensions>
1820 <speed>1.7400000095367432</speed>
1821 </extensions>
1822 </trkpt>
1823 <trkpt lat="48.74461099" lon="11.01537377">
1824 <ele>444.0</ele>
1825 <time>2017-09-02T05:37:27Z</time>
1826 <cmt><![CDATA[compass: 347.8358459472656
1827 compAccuracy: 0]]></cmt>
1828 <extensions>
1829 <speed>1.4800000190734863</speed>
1830 </extensions>
1831 </trkpt>
1832 <trkpt lat="48.74462796" lon="11.01537263">
1833 <ele>444.0</ele>
1834 <time>2017-09-02T05:37:28Z</time>
1835 <cmt><![CDATA[compass: 352.9548645019531
1836 compAccuracy: 0]]></cmt>
1837 <extensions>
1838 <speed>1.4199999570846558</speed>
1839 </extensions>
1840 </trkpt>
1841 <trkpt lat="48.7446454" lon="11.01537234">
1842 <ele>444.0</ele>
1843 <time>2017-09-02T05:37:29Z</time>
1844 <cmt><![CDATA[compass: 342.1478576660156
1845 compAccuracy: 0]]></cmt>
1846 <extensions>
1847 <speed>1.649999976158142</speed>
1848 </extensions>
1849 </trkpt>
1850 <trkpt lat="48.74466753" lon="11.01537026">
1851 <ele>444.0</ele>
1852 <time>2017-09-02T05:37:30Z</time>
1853 <cmt><![CDATA[compass: 335.40802001953125
1854 compAccuracy: 0]]></cmt>
1855 <extensions>
1856 <speed>2.450000047683716</speed>
1857 </extensions>
1858 </trkpt>
1859 <trkpt lat="48.74469164" lon="11.01536555">
1860 <ele>445.0</ele>
1861 <time>2017-09-02T05:37:31Z</time>
1862 <cmt><![CDATA[compass: 333.5577087402344
1863 compAccuracy: 0]]></cmt>
1864 <extensions>
1865 <speed>2.0999999046325684</speed>
1866 </extensions>
1867 </trkpt>
1868 <trkpt lat="48.74470992" lon="11.01535666">
1869 <ele>444.0</ele>
1870 <time>2017-09-02T05:37:32Z</time>
1871 <cmt><![CDATA[compass: 325.95880126953125
1872 compAccuracy: 0]]></cmt>
1873 <extensions>
1874 <speed>2.5199999809265137</speed>
1875 </extensions>
1876 </trkpt>
1877 <trkpt lat="48.74473258" lon="11.01534463">
1878 <ele>445.0</ele>
1879 <time>2017-09-02T05:37:33Z</time>
1880 <cmt><![CDATA[compass: 338.32159423828125
1881 compAccuracy: 0]]></cmt>
1882 <extensions>
1883 <speed>2.950000047683716</speed>
1884 </extensions>
1885 </trkpt>
1886 <trkpt lat="48.74475809" lon="11.01533208">
1887 <ele>445.0</ele>
1888 <time>2017-09-02T05:37:34Z</time>
1889 <cmt><![CDATA[compass: 343.5138854980469
1890 compAccuracy: 0]]></cmt>
1891 <extensions>
1892 <speed>3.119999885559082</speed>
1893 </extensions>
1894 </trkpt>
1895 <trkpt lat="48.74478216" lon="11.01532328">
1896 <ele>447.0</ele>
1897 <time>2017-09-02T05:37:35Z</time>
1898 <cmt><![CDATA[compass: 340.3127746582031
1899 compAccuracy: 0]]></cmt>
1900 <extensions>
1901 <speed>2.619999885559082</speed>
1902 </extensions>
1903 </trkpt>
1904 <trkpt lat="48.74480421" lon="11.01531579">
1905 <ele>447.0</ele>
1906 <time>2017-09-02T05:37:36Z</time>
1907 <cmt><![CDATA[compass: 329.9976501464844
1908 compAccuracy: 0]]></cmt>
1909 <extensions>
1910 <speed>2.5</speed>
1911 </extensions>
1912 </trkpt>
1913 <trkpt lat="48.74482877" lon="11.01530646">
1914 <ele>448.0</ele>
1915 <time>2017-09-02T05:37:37Z</time>
1916 <cmt><![CDATA[compass: 332.3350830078125
1917 compAccuracy: 0]]></cmt>
1918 <extensions>
1919 <speed>2.869999885559082</speed>
1920 </extensions>
1921 </trkpt>
1922 <trkpt lat="48.7448501" lon="11.01530022">
1923 <ele>448.0</ele>
1924 <time>2017-09-02T05:37:38Z</time>
1925 <cmt><![CDATA[compass: 334.9632873535156
1926 compAccuracy: 0]]></cmt>
1927 <extensions>
1928 <speed>2.299999952316284</speed>
1929 </extensions>
1930 </trkpt>
1931 <trkpt lat="48.74486817" lon="11.01529614">
1932 <ele>448.0</ele>
1933 <time>2017-09-02T05:37:39Z</time>
1934 <cmt><![CDATA[compass: 345.58941650390625
1935 compAccuracy: 0]]></cmt>
1936 <extensions>
1937 <speed>1.9600000381469727</speed>
1938 </extensions>
1939 </trkpt>
1940 <trkpt lat="48.74488653" lon="11.01529253">
1941 <ele>449.0</ele>
1942 <time>2017-09-02T05:37:40Z</time>
1943 <cmt><![CDATA[compass: 333.80615234375
1944 compAccuracy: 0]]></cmt>
1945 <extensions>
1946 <speed>2.5899999141693115</speed>
1947 </extensions>
1948 </trkpt>
1949 <trkpt lat="48.74490679" lon="11.0152904">
1950 <ele>450.0</ele>
1951 <time>2017-09-02T05:37:41Z</time>
1952 <cmt><![CDATA[compass: 346.6733093261719
1953 compAccuracy: 0]]></cmt>
1954 <extensions>
1955 <speed>2.3499999046325684</speed>
1956 </extensions>
1957 </trkpt>
1958 <trkpt lat="48.7449186" lon="11.01529131">
1959 <ele>452.0</ele>
1960 <time>2017-09-02T05:37:42Z</time>
1961 <cmt><![CDATA[compass: 357.1542663574219
1962 compAccuracy: 0]]></cmt>
1963 <extensions>
1964 <speed>1.1200000047683716</speed>
1965 </extensions>
1966 </trkpt>
1967 <trkpt lat="48.74492598" lon="11.01529144">
1968 <ele>451.0</ele>
1969 <time>2017-09-02T05:37:43Z</time>
1970 <cmt><![CDATA[compass: 357.875244140625
1971 compAccuracy: 0]]></cmt>
1972 <extensions>
1973 <speed>1.0299999713897705</speed>
1974 </extensions>
1975 </trkpt>
1976 <trkpt lat="48.74493079" lon="11.01529286">
1977 <ele>452.0</ele>
1978 <time>2017-09-02T05:37:44Z</time>
1979 <cmt><![CDATA[compass: 344.0712585449219
1980 compAccuracy: 0]]></cmt>
1981 <extensions>
1982 <speed>0.800000011920929</speed>
1983 </extensions>
1984 </trkpt>
1985 <trkpt lat="48.74493707" lon="11.01529833">
1986 <ele>450.0</ele>
1987 <time>2017-09-02T05:37:45Z</time>
1988 <cmt><![CDATA[compass: 241.46595764160156
1989 compAccuracy: 0]]></cmt>
1990 <extensions>
1991 <speed>1.0499999523162842</speed>
1992 </extensions>
1993 </trkpt>
1994 <trkpt lat="48.74493359" lon="11.01531233">
1995 <ele>451.0</ele>
1996 <time>2017-09-02T05:37:46Z</time>
1997 <cmt><![CDATA[compass: 238.408935546875
1998 compAccuracy: 0]]></cmt>
1999 <extensions>
2000 <speed>0.0</speed>
2001 </extensions>
2002 </trkpt>
2003 <trkpt lat="48.74493183" lon="11.01531931">
2004 <ele>450.0</ele>
2005 <time>2017-09-02T05:37:47Z</time>
2006 <cmt><![CDATA[compass: 237.55352783203125
2007 compAccuracy: 0]]></cmt>
2008 <extensions>
2009 <speed>0.0</speed>
2010 </extensions>
2011 </trkpt>
2012 <trkpt lat="48.74493011" lon="11.0153202">
2013 <ele>450.0</ele>
2014 <time>2017-09-02T05:37:48Z</time>
2015 <cmt><![CDATA[compass: 237.54635620117188
2016 compAccuracy: 0]]></cmt>
2017 <extensions>
2018 <speed>0.0</speed>
2019 </extensions>
2020 </trkpt>
2021 <trkpt lat="48.74493076" lon="11.01531862">
2022 <ele>448.0</ele>
2023 <time>2017-09-02T05:37:49Z</time>
2024 <cmt><![CDATA[compass: 222.48855590820312
2025 compAccuracy: 0]]></cmt>
2026 <extensions>
2027 <speed>0.0</speed>
2028 </extensions>
2029 </trkpt>
2030 <trkpt lat="48.74493419" lon="11.01531667">
2031 <ele>448.0</ele>
2032 <time>2017-09-02T05:37:50Z</time>
2033 <cmt><![CDATA[compass: 332.4573669433594
2034 compAccuracy: 0]]></cmt>
2035 <extensions>
2036 <speed>0.4000000059604645</speed>
2037 </extensions>
2038 </trkpt>
2039 <trkpt lat="48.74494068" lon="11.01531634">
2040 <ele>448.0</ele>
2041 <time>2017-09-02T05:37:51Z</time>
2042 <cmt><![CDATA[compass: 314.57708740234375
2043 compAccuracy: 0]]></cmt>
2044 <extensions>
2045 <speed>0.6499999761581421</speed>
2046 </extensions>
2047 </trkpt>
2048 <trkpt lat="48.74494982" lon="11.01530765">
2049 <ele>448.0</ele>
2050 <time>2017-09-02T05:37:52Z</time>
2051 <cmt><![CDATA[compass: 306.28118896484375
2052 compAccuracy: 0]]></cmt>
2053 <extensions>
2054 <speed>1.7999999523162842</speed>
2055 </extensions>
2056 </trkpt>
2057 <trkpt lat="48.74496768" lon="11.01528887">
2058 <ele>449.0</ele>
2059 <time>2017-09-02T05:37:53Z</time>
2060 <cmt><![CDATA[compass: 317.6935729980469
2061 compAccuracy: 0]]></cmt>
2062 <extensions>
2063 <speed>3.0</speed>
2064 </extensions>
2065 </trkpt>
2066 <trkpt lat="48.74499152" lon="11.01527213">
2067 <ele>449.0</ele>
2068 <time>2017-09-02T05:37:54Z</time>
2069 <cmt><![CDATA[compass: 325.6236572265625
2070 compAccuracy: 0]]></cmt>
2071 <extensions>
2072 <speed>2.4800000190734863</speed>
2073 </extensions>
2074 </trkpt>
2075 <trkpt lat="48.74501131" lon="11.01525938">
2076 <ele>448.0</ele>
2077 <time>2017-09-02T05:37:55Z</time>
2078 <cmt><![CDATA[compass: 333.9884338378906
2079 compAccuracy: 0]]></cmt>
2080 <extensions>
2081 <speed>2.5899999141693115</speed>
2082 </extensions>
2083 </trkpt>
2084 <trkpt lat="48.7450316" lon="11.01525003">
2085 <ele>449.0</ele>
2086 <time>2017-09-02T05:37:56Z</time>
2087 <cmt><![CDATA[compass: 331.7748718261719
2088 compAccuracy: 0]]></cmt>
2089 <extensions>
2090 <speed>2.259999990463257</speed>
2091 </extensions>
2092 </trkpt>
2093 <trkpt lat="48.74505292" lon="11.0152473">
2094 <ele>450.0</ele>
2095 <time>2017-09-02T05:37:57Z</time>
2096 <cmt><![CDATA[compass: 334.2099914550781
2097 compAccuracy: 0]]></cmt>
2098 <extensions>
2099 <speed>2.490000009536743</speed>
2100 </extensions>
2101 </trkpt>
2102 <trkpt lat="48.74507467" lon="11.01524457">
2103 <ele>450.0</ele>
2104 <time>2017-09-02T05:37:58Z</time>
2105 <cmt><![CDATA[compass: 350.2503967285156
2106 compAccuracy: 0]]></cmt>
2107 <extensions>
2108 <speed>2.5799999237060547</speed>
2109 </extensions>
2110 </trkpt>
2111 <trkpt lat="48.74509174" lon="11.01524673">
2112 <ele>451.0</ele>
2113 <time>2017-09-02T05:37:59Z</time>
2114 <cmt><![CDATA[compass: 3.434600830078125
2115 compAccuracy: 0]]></cmt>
2116 <extensions>
2117 <speed>1.9900000095367432</speed>
2118 </extensions>
2119 </trkpt>
2120 <trkpt lat="48.74510263" lon="11.01525126">
2121 <ele>450.0</ele>
2122 <time>2017-09-02T05:38:00Z</time>
2123 <cmt><![CDATA[compass: 335.7637634277344
2124 compAccuracy: 0]]></cmt>
2125 <extensions>
2126 <speed>1.3899999856948853</speed>
2127 </extensions>
2128 </trkpt>
2129 <trkpt lat="48.74510883" lon="11.01525993">
2130 <ele>450.0</ele>
2131 <time>2017-09-02T05:38:01Z</time>
2132 <cmt><![CDATA[compass: 335.07843017578125
2133 compAccuracy: 0]]></cmt>
2134 <extensions>
2135 <speed>1.1299999952316284</speed>
2136 </extensions>
2137 </trkpt>
2138 <trkpt lat="48.74511437" lon="11.01526831">
2139 <ele>450.0</ele>
2140 <time>2017-09-02T05:38:02Z</time>
2141 <cmt><![CDATA[compass: 350.9486083984375
2142 compAccuracy: 0]]></cmt>
2143 <extensions>
2144 <speed>1.2300000190734863</speed>
2145 </extensions>
2146 </trkpt>
2147 <trkpt lat="48.74512139" lon="11.01527342">
2148 <ele>450.0</ele>
2149 <time>2017-09-02T05:38:03Z</time>
2150 <cmt><![CDATA[compass: 347.26519775390625
2151 compAccuracy: 0]]></cmt>
2152 <extensions>
2153 <speed>1.059999942779541</speed>
2154 </extensions>
2155 </trkpt>
2156 <trkpt lat="48.74512504" lon="11.01527762">
2157 <ele>449.0</ele>
2158 <time>2017-09-02T05:38:04Z</time>
2159 <cmt><![CDATA[compass: 333.9395446777344
2160 compAccuracy: 0]]></cmt>
2161 <extensions>
2162 <speed>0.9100000262260437</speed>
2163 </extensions>
2164 </trkpt>
2165 <trkpt lat="48.74513056" lon="11.01528173">
2166 <ele>448.0</ele>
2167 <time>2017-09-02T05:38:05Z</time>
2168 <cmt><![CDATA[compass: 341.0783996582031
2169 compAccuracy: 0]]></cmt>
2170 <extensions>
2171 <speed>1.149999976158142</speed>
2172 </extensions>
2173 </trkpt>
2174 <trkpt lat="48.74514127" lon="11.01528406">
2175 <ele>446.0</ele>
2176 <time>2017-09-02T05:38:06Z</time>
2177 <cmt><![CDATA[compass: 329.9045715332031
2178 compAccuracy: 0]]></cmt>
2179 <extensions>
2180 <speed>1.309999942779541</speed>
2181 </extensions>
2182 </trkpt>
2183 <trkpt lat="48.74515017" lon="11.01528418">
2184 <ele>446.0</ele>
2185 <time>2017-09-02T05:38:07Z</time>
2186 <cmt><![CDATA[compass: 351.0623474121094
2187 compAccuracy: 0]]></cmt>
2188 <extensions>
2189 <speed>1.0199999809265137</speed>
2190 </extensions>
2191 </trkpt>
2192 <trkpt lat="48.74515816" lon="11.01528568">
2193 <ele>446.0</ele>
2194 <time>2017-09-02T05:38:08Z</time>
2195 <cmt><![CDATA[compass: 345.1356201171875
2196 compAccuracy: 0]]></cmt>
2197 <extensions>
2198 <speed>0.949999988079071</speed>
2199 </extensions>
2200 </trkpt>
2201 <trkpt lat="48.74516666" lon="11.01528838">
2202 <ele>446.0</ele>
2203 <time>2017-09-02T05:38:09Z</time>
2204 <cmt><![CDATA[compass: 353.7279968261719
2205 compAccuracy: 0]]></cmt>
2206 <extensions>
2207 <speed>1.1699999570846558</speed>
2208 </extensions>
2209 </trkpt>
2210 <trkpt lat="48.74517039" lon="11.01528968">
2211 <ele>446.0</ele>
2212 <time>2017-09-02T05:38:10Z</time>
2213 <cmt><![CDATA[compass: 342.4031982421875
2214 compAccuracy: 0]]></cmt>
2215 <extensions>
2216 <speed>0.0</speed>
2217 </extensions>
2218 </trkpt>
2219 <trkpt lat="48.74517221" lon="11.01528733">
2220 <ele>447.0</ele>
2221 <time>2017-09-02T05:38:11Z</time>
2222 <cmt><![CDATA[compass: 341.3045654296875
2223 compAccuracy: 0]]></cmt>
2224 <extensions>
2225 <speed>0.8500000238418579</speed>
2226 </extensions>
2227 </trkpt>
2228 <trkpt lat="48.74517499" lon="11.01528221">
2229 <ele>447.0</ele>
2230 <time>2017-09-02T05:38:12Z</time>
2231 <cmt><![CDATA[compass: 356.8265686035156
2232 compAccuracy: 0]]></cmt>
2233 <extensions>
2234 <speed>0.2800000011920929</speed>
2235 </extensions>
2236 </trkpt>
2237 <trkpt lat="48.74517703" lon="11.01527966">
2238 <ele>448.0</ele>
2239 <time>2017-09-02T05:38:13Z</time>
2240 <cmt><![CDATA[compass: 346.3505859375
2241 compAccuracy: 0]]></cmt>
2242 <extensions>
2243 <speed>0.4300000071525574</speed>
2244 </extensions>
2245 </trkpt>
2246 <trkpt lat="48.74518062" lon="11.01527829">
2247 <ele>447.0</ele>
2248 <time>2017-09-02T05:38:14Z</time>
2249 <cmt><![CDATA[compass: 351.7705383300781
2250 compAccuracy: 0]]></cmt>
2251 <extensions>
2252 <speed>0.4699999988079071</speed>
2253 </extensions>
2254 </trkpt>
2255 <trkpt lat="48.7451844" lon="11.0152735">
2256 <ele>447.0</ele>
2257 <time>2017-09-02T05:38:15Z</time>
2258 <cmt><![CDATA[compass: 0.98590087890625
2259 compAccuracy: 0]]></cmt>
2260 <extensions>
2261 <speed>0.7099999785423279</speed>
2262 </extensions>
2263 </trkpt>
2264 <trkpt lat="48.74518811" lon="11.01526465">
2265 <ele>446.0</ele>
2266 <time>2017-09-02T05:38:16Z</time>
2267 <cmt><![CDATA[compass: 11.02020263671875
2268 compAccuracy: 0]]></cmt>
2269 <extensions>
2270 <speed>0.8100000023841858</speed>
2271 </extensions>
2272 </trkpt>
2273 <trkpt lat="48.74519342" lon="11.01525815">
2274 <ele>446.0</ele>
2275 <time>2017-09-02T05:38:17Z</time>
2276 <cmt><![CDATA[compass: 6.452117919921875
2277 compAccuracy: 0]]></cmt>
2278 <extensions>
2279 <speed>0.6399999856948853</speed>
2280 </extensions>
2281 </trkpt>
2282 <trkpt lat="48.7452008" lon="11.01525656">
2283 <ele>445.0</ele>
2284 <time>2017-09-02T05:38:18Z</time>
2285 <cmt><![CDATA[compass: 2.556671142578125
2286 compAccuracy: 0]]></cmt>
2287 <extensions>
2288 <speed>0.8600000143051147</speed>
2289 </extensions>
2290 </trkpt>
2291 <trkpt lat="48.74521147" lon="11.01525861">
2292 <ele>445.0</ele>
2293 <time>2017-09-02T05:38:19Z</time>
2294 <cmt><![CDATA[compass: 3.210784912109375
2295 compAccuracy: 0]]></cmt>
2296 <extensions>
2297 <speed>0.9300000071525574</speed>
2298 </extensions>
2299 </trkpt>
2300 <trkpt lat="48.74522473" lon="11.01526726">
2301 <ele>446.0</ele>
2302 <time>2017-09-02T05:38:20Z</time>
2303 <cmt><![CDATA[compass: 17.9715576171875
2304 compAccuracy: 0]]></cmt>
2305 <extensions>
2306 <speed>1.3799999952316284</speed>
2307 </extensions>
2308 </trkpt>
2309 <trkpt lat="48.74524369" lon="11.01527643">
2310 <ele>446.0</ele>
2311 <time>2017-09-02T05:38:21Z</time>
2312 <cmt><![CDATA[compass: 28.37615966796875
2313 compAccuracy: 0]]></cmt>
2314 <extensions>
2315 <speed>2.049999952316284</speed>
2316 </extensions>
2317 </trkpt>
2318 <trkpt lat="48.74526501" lon="11.01528527">
2319 <ele>446.0</ele>
2320 <time>2017-09-02T05:38:22Z</time>
2321 <cmt><![CDATA[compass: 23.675537109375
2322 compAccuracy: 0]]></cmt>
2323 <extensions>
2324 <speed>2.0199999809265137</speed>
2325 </extensions>
2326 </trkpt>
2327 <trkpt lat="48.74529135" lon="11.01529332">
2328 <ele>447.0</ele>
2329 <time>2017-09-02T05:38:23Z</time>
2330 <cmt><![CDATA[compass: 10.02716064453125
2331 compAccuracy: 0]]></cmt>
2332 <extensions>
2333 <speed>3.0799999237060547</speed>
2334 </extensions>
2335 </trkpt>
2336 <trkpt lat="48.74532057" lon="11.01530047">
2337 <ele>448.0</ele>
2338 <time>2017-09-02T05:38:24Z</time>
2339 <cmt><![CDATA[compass: 0.11749267578125
2340 compAccuracy: 0]]></cmt>
2341 <extensions>
2342 <speed>2.7799999713897705</speed>
2343 </extensions>
2344 </trkpt>
2345 <trkpt lat="48.74534577" lon="11.01530772">
2346 <ele>450.0</ele>
2347 <time>2017-09-02T05:38:25Z</time>
2348 <cmt><![CDATA[compass: 355.9560546875
2349 compAccuracy: 0]]></cmt>
2350 <extensions>
2351 <speed>2.390000104904175</speed>
2352 </extensions>
2353 </trkpt>
2354 <trkpt lat="48.74536969" lon="11.01531335">
2355 <ele>449.0</ele>
2356 <time>2017-09-02T05:38:26Z</time>
2357 <cmt><![CDATA[compass: 346.3480224609375
2358 compAccuracy: 0]]></cmt>
2359 <extensions>
2360 <speed>2.7300000190734863</speed>
2361 </extensions>
2362 </trkpt>
2363 <trkpt lat="48.74539294" lon="11.01531485">
2364 <ele>450.0</ele>
2365 <time>2017-09-02T05:38:27Z</time>
2366 <cmt><![CDATA[compass: 26.198577880859375
2367 compAccuracy: 0]]></cmt>
2368 <extensions>
2369 <speed>2.0199999809265137</speed>
2370 </extensions>
2371 </trkpt>
2372 <trkpt lat="48.74540935" lon="11.01531552">
2373 <ele>449.0</ele>
2374 <time>2017-09-02T05:38:28Z</time>
2375 <cmt><![CDATA[compass: 13.7357177734375
2376 compAccuracy: 0]]></cmt>
2377 <extensions>
2378 <speed>1.340000033378601</speed>
2379 </extensions>
2380 </trkpt>
2381 <trkpt lat="48.74542487" lon="11.01532993">
2382 <ele>448.0</ele>
2383 <time>2017-09-02T05:38:29Z</time>
2384 <cmt><![CDATA[compass: 28.06024169921875
2385 compAccuracy: 0]]></cmt>
2386 <extensions>
2387 <speed>2.430000066757202</speed>
2388 </extensions>
2389 </trkpt>
2390 <trkpt lat="48.74543693" lon="11.01535314">
2391 <ele>448.0</ele>
2392 <time>2017-09-02T05:38:30Z</time>
2393 <cmt><![CDATA[compass: 333.6594543457031
2394 compAccuracy: 0]]></cmt>
2395 <extensions>
2396 <speed>1.440000057220459</speed>
2397 </extensions>
2398 </trkpt>
2399 <trkpt lat="48.74544404" lon="11.01537596">
2400 <ele>448.0</ele>
2401 <time>2017-09-02T05:38:31Z</time>
2402 <cmt><![CDATA[compass: 297.489013671875
2403 compAccuracy: 0]]></cmt>
2404 <extensions>
2405 <speed>1.6699999570846558</speed>
2406 </extensions>
2407 </trkpt>
2408 <trkpt lat="48.74545198" lon="11.01539889">
2409 <ele>448.0</ele>
2410 <time>2017-09-02T05:38:32Z</time>
2411 <cmt><![CDATA[compass: 348.9072265625
2412 compAccuracy: 0]]></cmt>
2413 <extensions>
2414 <speed>1.6699999570846558</speed>
2415 </extensions>
2416 </trkpt>
2417 <trkpt lat="48.7454592" lon="11.01542056">
2418 <ele>447.0</ele>
2419 <time>2017-09-02T05:38:33Z</time>
2420 <cmt><![CDATA[compass: 311.4793701171875
2421 compAccuracy: 0]]></cmt>
2422 <extensions>
2423 <speed>1.7599999904632568</speed>
2424 </extensions>
2425 </trkpt>
2426 <trkpt lat="48.74546378" lon="11.01544722">
2427 <ele>447.0</ele>
2428 <time>2017-09-02T05:38:34Z</time>
2429 <cmt><![CDATA[compass: 306.8601989746094
2430 compAccuracy: 0]]></cmt>
2431 <extensions>
2432 <speed>1.7300000190734863</speed>
2433 </extensions>
2434 </trkpt>
2435 <trkpt lat="48.74546466" lon="11.01547655">
2436 <ele>447.0</ele>
2437 <time>2017-09-02T05:38:35Z</time>
2438 <cmt><![CDATA[compass: 318.544677734375
2439 compAccuracy: 0]]></cmt>
2440 <extensions>
2441 <speed>1.75</speed>
2442 </extensions>
2443 </trkpt>
2444 <trkpt lat="48.74546389" lon="11.01550517">
2445 <ele>447.0</ele>
2446 <time>2017-09-02T05:38:36Z</time>
2447 <cmt><![CDATA[compass: 356.64044189453125
2448 compAccuracy: 0]]></cmt>
2449 <extensions>
2450 <speed>1.75</speed>
2451 </extensions>
2452 </trkpt>
2453 <trkpt lat="48.74545873" lon="11.01551528">
2454 <ele>447.0</ele>
2455 <time>2017-09-02T05:38:37Z</time>
2456 <cmt><![CDATA[compass: 88.87313842773438
2457 compAccuracy: 0]]></cmt>
2458 <extensions>
2459 <speed>0.3199999928474426</speed>
2460 </extensions>
2461 </trkpt>
2462 <trkpt lat="48.74545368" lon="11.01551467">
2463 <ele>447.0</ele>
2464 <time>2017-09-02T05:38:38Z</time>
2465 <cmt><![CDATA[compass: 88.93948364257812
2466 compAccuracy: 0]]></cmt>
2467 <extensions>
2468 <speed>0.4699999988079071</speed>
2469 </extensions>
2470 </trkpt>
2471 <trkpt lat="48.74544454" lon="11.01550535">
2472 <ele>447.0</ele>
2473 <time>2017-09-02T05:38:39Z</time>
2474 <cmt><![CDATA[compass: 103.73281860351562
2475 compAccuracy: 0]]></cmt>
2476 <extensions>
2477 <speed>0.0</speed>
2478 </extensions>
2479 </trkpt>
2480 <trkpt lat="48.74543943" lon="11.01549898">
2481 <ele>447.0</ele>
2482 <time>2017-09-02T05:38:40Z</time>
2483 <cmt><![CDATA[compass: 105.13998413085938
2484 compAccuracy: 0]]></cmt>
2485 <extensions>
2486 <speed>0.0</speed>
2487 </extensions>
2488 </trkpt>
2489 <trkpt lat="48.74543361" lon="11.01549438">
2490 <ele>447.0</ele>
2491 <time>2017-09-02T05:38:41Z</time>
2492 <cmt><![CDATA[compass: 105.50775146484375
2493 compAccuracy: 0]]></cmt>
2494 <extensions>
2495 <speed>0.0</speed>
2496 </extensions>
2497 </trkpt>
2498 <trkpt lat="48.74543455" lon="11.0154934">
2499 <ele>447.0</ele>
2500 <time>2017-09-02T05:38:42Z</time>
2501 <cmt><![CDATA[compass: 87.35537719726562
2502 compAccuracy: 0]]></cmt>
2503 <extensions>
2504 <speed>0.0</speed>
2505 </extensions>
2506 </trkpt>
2507 <trkpt lat="48.74543698" lon="11.01549436">
2508 <ele>447.0</ele>
2509 <time>2017-09-02T05:38:43Z</time>
2510 <cmt><![CDATA[compass: 87.35537719726562
2511 compAccuracy: 0]]></cmt>
2512 <extensions>
2513 <speed>0.0</speed>
2514 </extensions>
2515 </trkpt>
2516 <trkpt lat="48.74543809" lon="11.01549429">
2517 <ele>447.0</ele>
2518 <time>2017-09-02T05:38:44Z</time>
2519 <cmt><![CDATA[compass: 87.35537719726562
2520 compAccuracy: 0]]></cmt>
2521 <extensions>
2522 <speed>0.0</speed>
2523 </extensions>
2524 </trkpt>
2525 <trkpt lat="48.74543783" lon="11.01549354">
2526 <ele>447.0</ele>
2527 <time>2017-09-02T05:38:45Z</time>
2528 <cmt><![CDATA[compass: 39.7620849609375
2529 compAccuracy: 0]]></cmt>
2530 <extensions>
2531 <speed>0.0</speed>
2532 </extensions>
2533 </trkpt>
2534 <trkpt lat="48.74543935" lon="11.01549335">
2535 <ele>447.0</ele>
2536 <time>2017-09-02T05:38:46Z</time>
2537 <cmt><![CDATA[compass: 41.99188232421875
2538 compAccuracy: 0]]></cmt>
2539 <extensions>
2540 <speed>0.0</speed>
2541 </extensions>
2542 </trkpt>
2543 <trkpt lat="48.74544043" lon="11.01549273">
2544 <ele>446.0</ele>
2545 <time>2017-09-02T05:38:47Z</time>
2546 <cmt><![CDATA[compass: 38.919525146484375
2547 compAccuracy: 0]]></cmt>
2548 <extensions>
2549 <speed>0.0</speed>
2550 </extensions>
2551 </trkpt>
2552 <trkpt lat="48.74544109" lon="11.0154936">
2553 <ele>447.0</ele>
2554 <time>2017-09-02T05:38:48Z</time>
2555 <cmt><![CDATA[compass: 38.810882568359375
2556 compAccuracy: 0]]></cmt>
2557 <extensions>
2558 <speed>0.0</speed>
2559 </extensions>
2560 </trkpt>
2561 <trkpt lat="48.74544093" lon="11.01549417">
2562 <ele>447.0</ele>
2563 <time>2017-09-02T05:38:49Z</time>
2564 <cmt><![CDATA[compass: 38.810882568359375
2565 compAccuracy: 0]]></cmt>
2566 <extensions>
2567 <speed>0.0</speed>
2568 </extensions>
2569 </trkpt>
2570 <trkpt lat="48.74543681" lon="11.01549542">
2571 <ele>447.0</ele>
2572 <time>2017-09-02T05:38:50Z</time>
2573 <cmt><![CDATA[compass: 38.810882568359375
2574 compAccuracy: 0]]></cmt>
2575 <extensions>
2576 <speed>0.0</speed>
2577 </extensions>
2578 </trkpt>
2579 <trkpt lat="48.74543315" lon="11.01549633">
2580 <ele>446.0</ele>
2581 <time>2017-09-02T05:38:51Z</time>
2582 <cmt><![CDATA[compass: 38.810882568359375
2583 compAccuracy: 0]]></cmt>
2584 <extensions>
2585 <speed>0.0</speed>
2586 </extensions>
2587 </trkpt>
2588 <trkpt lat="48.74543145" lon="11.0154968">
2589 <ele>446.0</ele>
2590 <time>2017-09-02T05:38:52Z</time>
2591 <cmt><![CDATA[compass: 38.810882568359375
2592 compAccuracy: 0]]></cmt>
2593 <extensions>
2594 <speed>0.0</speed>
2595 </extensions>
2596 </trkpt>
2597 <trkpt lat="48.74542971" lon="11.01549548">
2598 <ele>447.0</ele>
2599 <time>2017-09-02T05:38:53Z</time>
2600 <cmt><![CDATA[compass: 38.810882568359375
2601 compAccuracy: 0]]></cmt>
2602 <extensions>
2603 <speed>0.0</speed>
2604 </extensions>
2605 </trkpt>
2606 <trkpt lat="48.74542982" lon="11.01549531">
2607 <ele>447.0</ele>
2608 <time>2017-09-02T05:38:54Z</time>
2609 <cmt><![CDATA[compass: 38.810882568359375
2610 compAccuracy: 0]]></cmt>
2611 <extensions>
2612 <speed>0.0</speed>
2613 </extensions>
2614 </trkpt>
2615 <trkpt lat="48.74542885" lon="11.01549497">
2616 <ele>447.0</ele>
2617 <time>2017-09-02T05:38:55Z</time>
2618 <cmt><![CDATA[compass: 38.810882568359375
2619 compAccuracy: 0]]></cmt>
2620 <extensions>
2621 <speed>0.0</speed>
2622 </extensions>
2623 </trkpt>
2624 <trkpt lat="48.74542781" lon="11.01549462">
2625 <ele>447.0</ele>
2626 <time>2017-09-02T05:38:56Z</time>
2627 <cmt><![CDATA[compass: 38.810882568359375
2628 compAccuracy: 0]]></cmt>
2629 <extensions>
2630 <speed>0.0</speed>
2631 </extensions>
2632 </trkpt>
2633 <trkpt lat="48.7454271" lon="11.01549438">
2634 <ele>446.0</ele>
2635 <time>2017-09-02T05:38:57Z</time>
2636 <cmt><![CDATA[compass: 38.810882568359375
2637 compAccuracy: 0]]></cmt>
2638 <extensions>
2639 <speed>0.0</speed>
2640 </extensions>
2641 </trkpt>
2642 <trkpt lat="48.74542665" lon="11.01549421">
2643 <ele>446.0</ele>
2644 <time>2017-09-02T05:38:58Z</time>
2645 <cmt><![CDATA[compass: 38.810882568359375
2646 compAccuracy: 0]]></cmt>
2647 <extensions>
2648 <speed>0.0</speed>
2649 </extensions>
2650 </trkpt>
2651 <trkpt lat="48.74542654" lon="11.01549416">
2652 <ele>447.0</ele>
2653 <time>2017-09-02T05:38:59Z</time>
2654 <cmt><![CDATA[compass: 38.810882568359375
2655 compAccuracy: 0]]></cmt>
2656 <extensions>
2657 <speed>0.0</speed>
2658 </extensions>
2659 </trkpt>
2660 <trkpt lat="48.74542648" lon="11.01549412">
2661 <ele>447.0</ele>
2662 <time>2017-09-02T05:39:00Z</time>
2663 <cmt><![CDATA[compass: 38.810882568359375
2664 compAccuracy: 0]]></cmt>
2665 <extensions>
2666 <speed>0.0</speed>
2667 </extensions>
2668 </trkpt>
2669 <trkpt lat="48.74542644" lon="11.0154941">
2670 <ele>447.0</ele>
2671 <time>2017-09-02T05:39:01Z</time>
2672 <cmt><![CDATA[compass: 38.810882568359375
2673 compAccuracy: 0]]></cmt>
2674 <extensions>
2675 <speed>0.0</speed>
2676 </extensions>
2677 </trkpt>
2678 <trkpt lat="48.74542642" lon="11.01549408">
2679 <ele>447.0</ele>
2680 <time>2017-09-02T05:39:02Z</time>
2681 <cmt><![CDATA[compass: 38.810882568359375
2682 compAccuracy: 0]]></cmt>
2683 <extensions>
2684 <speed>0.0</speed>
2685 </extensions>
2686 </trkpt>
2687 <trkpt lat="48.74542641" lon="11.01549406">
2688 <ele>447.0</ele>
2689 <time>2017-09-02T05:39:03Z</time>
2690 <cmt><![CDATA[compass: 38.810882568359375
2691 compAccuracy: 0]]></cmt>
2692 <extensions>
2693 <speed>0.0</speed>
2694 </extensions>
2695 </trkpt>
2696 <trkpt lat="48.74542632" lon="11.01549397">
2697 <ele>447.0</ele>
2698 <time>2017-09-02T05:39:04Z</time>
2699 <cmt><![CDATA[compass: 38.810882568359375
2700 compAccuracy: 0]]></cmt>
2701 <extensions>
2702 <speed>0.0</speed>
2703 </extensions>
2704 </trkpt>
2705 <trkpt lat="48.74542607" lon="11.01549366">
2706 <ele>447.0</ele>
2707 <time>2017-09-02T05:39:05Z</time>
2708 <cmt><![CDATA[compass: 49.27679443359375
2709 compAccuracy: 0]]></cmt>
2710 <extensions>
2711 <speed>0.0</speed>
2712 </extensions>
2713 </trkpt>
2714 <trkpt lat="48.74542601" lon="11.01549346">
2715 <ele>446.0</ele>
2716 <time>2017-09-02T05:39:06Z</time>
2717 <cmt><![CDATA[compass: 48.62738037109375
2718 compAccuracy: 0]]></cmt>
2719 <extensions>
2720 <speed>0.0</speed>
2721 </extensions>
2722 </trkpt>
2723 <trkpt lat="48.745426" lon="11.01549338">
2724 <ele>446.0</ele>
2725 <time>2017-09-02T05:39:07Z</time>
2726 <cmt><![CDATA[compass: 69.31927490234375
2727 compAccuracy: 0]]></cmt>
2728 <extensions>
2729 <speed>0.0</speed>
2730 </extensions>
2731 </trkpt>
2732 <trkpt lat="48.74542598" lon="11.01549333">
2733 <ele>446.0</ele>
2734 <time>2017-09-02T05:39:08Z</time>
2735 <cmt><![CDATA[compass: 104.85049438476562
2736 compAccuracy: 0]]></cmt>
2737 <extensions>
2738 <speed>0.0</speed>
2739 </extensions>
2740 </trkpt>
2741 <trkpt lat="48.74542596" lon="11.0154933">
2742 <ele>446.0</ele>
2743 <time>2017-09-02T05:39:09Z</time>
2744 <cmt><![CDATA[compass: 57.707366943359375
2745 compAccuracy: 0]]></cmt>
2746 <extensions>
2747 <speed>0.0</speed>
2748 </extensions>
2749 </trkpt>
2750 <trkpt lat="48.74542594" lon="11.01549328">
2751 <ele>446.0</ele>
2752 <time>2017-09-02T05:39:10Z</time>
2753 <cmt><![CDATA[compass: 67.2677001953125
2754 compAccuracy: 0]]></cmt>
2755 <extensions>
2756 <speed>0.0</speed>
2757 </extensions>
2758 </trkpt>
2759 <trkpt lat="48.74542593" lon="11.01549327">
2760 <ele>446.0</ele>
2761 <time>2017-09-02T05:39:11Z</time>
2762 <cmt><![CDATA[compass: 63.94927978515625
2763 compAccuracy: 0]]></cmt>
2764 <extensions>
2765 <speed>0.0</speed>
2766 </extensions>
2767 </trkpt>
2768 <trkpt lat="48.74542591" lon="11.01549326">
2769 <ele>446.0</ele>
2770 <time>2017-09-02T05:39:12Z</time>
2771 <cmt><![CDATA[compass: 60.91094970703125
2772 compAccuracy: 0]]></cmt>
2773 <extensions>
2774 <speed>0.0</speed>
2775 </extensions>
2776 </trkpt>
2777 <trkpt lat="48.7454259" lon="11.01549325">
2778 <ele>446.0</ele>
2779 <time>2017-09-02T05:39:13Z</time>
2780 <cmt><![CDATA[compass: 60.4483642578125
2781 compAccuracy: 0]]></cmt>
2782 <extensions>
2783 <speed>0.0</speed>
2784 </extensions>
2785 </trkpt>
2786 <trkpt lat="48.7454259" lon="11.01549325">
2787 <ele>446.0</ele>
2788 <time>2017-09-02T05:39:14Z</time>
2789 <cmt><![CDATA[compass: 64.486083984375
2790 compAccuracy: 0]]></cmt>
2791 <extensions>
2792 <speed>0.0</speed>
2793 </extensions>
2794 </trkpt>
2795 <trkpt lat="48.7454259" lon="11.01549324">
2796 <ele>446.0</ele>
2797 <time>2017-09-02T05:39:15Z</time>
2798 <cmt><![CDATA[compass: 65.46755981445312
2799 compAccuracy: 0]]></cmt>
2800 <extensions>
2801 <speed>0.0</speed>
2802 </extensions>
2803 </trkpt>
2804 <trkpt lat="48.7454259" lon="11.01549324">
2805 <ele>446.0</ele>
2806 <time>2017-09-02T05:39:16Z</time>
2807 <cmt><![CDATA[compass: 65.2694091796875
2808 compAccuracy: 0]]></cmt>
2809 <extensions>
2810 <speed>0.0</speed>
2811 </extensions>
2812 </trkpt>
2813 <trkpt lat="48.7454259" lon="11.01549324">
2814 <ele>446.0</ele>
2815 <time>2017-09-02T05:39:17Z</time>
2816 <cmt><![CDATA[compass: 65.2694091796875
2817 compAccuracy: 0]]></cmt>
2818 <extensions>
2819 <speed>0.0</speed>
2820 </extensions>
2821 </trkpt>
2822 <trkpt lat="48.7454259" lon="11.01549324">
2823 <ele>446.0</ele>
2824 <time>2017-09-02T05:39:18Z</time>
2825 <cmt><![CDATA[compass: 65.2694091796875
2826 compAccuracy: 0]]></cmt>
2827 <extensions>
2828 <speed>0.0</speed>
2829 </extensions>
2830 </trkpt>
2831 <trkpt lat="48.7454259" lon="11.01549323">
2832 <ele>446.0</ele>
2833 <time>2017-09-02T05:39:19Z</time>
2834 <cmt><![CDATA[compass: 65.2694091796875
2835 compAccuracy: 0]]></cmt>
2836 <extensions>
2837 <speed>0.0</speed>
2838 </extensions>
2839 </trkpt>
2840 <trkpt lat="48.74542588" lon="11.01549322">
2841 <ele>446.0</ele>
2842 <time>2017-09-02T05:39:20Z</time>
2843 <cmt><![CDATA[compass: 65.2694091796875
2844 compAccuracy: 0]]></cmt>
2845 <extensions>
2846 <speed>0.0</speed>
2847 </extensions>
2848 </trkpt>
2849 <trkpt lat="48.74542586" lon="11.01549321">
2850 <ele>446.0</ele>
2851 <time>2017-09-02T05:39:21Z</time>
2852 <cmt><![CDATA[compass: 65.2694091796875
2853 compAccuracy: 0]]></cmt>
2854 <extensions>
2855 <speed>0.0</speed>
2856 </extensions>
2857 </trkpt>
2858 <trkpt lat="48.74542585" lon="11.01549321">
2859 <ele>446.0</ele>
2860 <time>2017-09-02T05:39:22Z</time>
2861 <cmt><![CDATA[compass: 65.2694091796875
2862 compAccuracy: 0]]></cmt>
2863 <extensions>
2864 <speed>0.0</speed>
2865 </extensions>
2866 </trkpt>
2867 <trkpt lat="48.74542585" lon="11.01549321">
2868 <ele>446.0</ele>
2869 <time>2017-09-02T05:39:23Z</time>
2870 <cmt><![CDATA[compass: 65.2694091796875
2871 compAccuracy: 0]]></cmt>
2872 <extensions>
2873 <speed>0.0</speed>
2874 </extensions>
2875 </trkpt>
2876 <trkpt lat="48.74542587" lon="11.01549322">
2877 <ele>446.0</ele>
2878 <time>2017-09-02T05:39:24Z</time>
2879 <cmt><![CDATA[compass: 65.2694091796875
2880 compAccuracy: 0]]></cmt>
2881 <extensions>
2882 <speed>0.0</speed>
2883 </extensions>
2884 </trkpt>
2885 <trkpt lat="48.74542589" lon="11.01549323">
2886 <ele>446.0</ele>
2887 <time>2017-09-02T05:39:25Z</time>
2888 <cmt><![CDATA[compass: 65.2694091796875
2889 compAccuracy: 0]]></cmt>
2890 <extensions>
2891 <speed>0.0</speed>
2892 </extensions>
2893 </trkpt>
2894 <trkpt lat="48.7454259" lon="11.01549323">
2895 <ele>446.0</ele>
2896 <time>2017-09-02T05:39:26Z</time>
2897 <cmt><![CDATA[compass: 65.2694091796875
2898 compAccuracy: 0]]></cmt>
2899 <extensions>
2900 <speed>0.0</speed>
2901 </extensions>
2902 </trkpt>
2903 <trkpt lat="48.74542591" lon="11.01549324">
2904 <ele>446.0</ele>
2905 <time>2017-09-02T05:39:27Z</time>
2906 <cmt><![CDATA[compass: 65.2694091796875
2907 compAccuracy: 0]]></cmt>
2908 <extensions>
2909 <speed>0.0</speed>
2910 </extensions>
2911 </trkpt>
2912 <trkpt lat="48.74542591" lon="11.01549324">
2913 <ele>446.0</ele>
2914 <time>2017-09-02T05:39:28Z</time>
2915 <cmt><![CDATA[compass: 65.2694091796875
2916 compAccuracy: 0]]></cmt>
2917 <extensions>
2918 <speed>0.0</speed>
2919 </extensions>
2920 </trkpt>
2921 <trkpt lat="48.74542305" lon="11.01549401">
2922 <ele>446.0</ele>
2923 <time>2017-09-02T05:39:29Z</time>
2924 <cmt><![CDATA[compass: 64.29583740234375
2925 compAccuracy: 0]]></cmt>
2926 <extensions>
2927 <speed>0.0</speed>
2928 </extensions>
2929 </trkpt>
2930 <trkpt lat="48.74541969" lon="11.01549414">
2931 <ele>446.0</ele>
2932 <time>2017-09-02T05:39:30Z</time>
2933 <cmt><![CDATA[compass: 65.889404296875
2934 compAccuracy: 0]]></cmt>
2935 <extensions>
2936 <speed>0.0</speed>
2937 </extensions>
2938 </trkpt>
2939 <trkpt lat="48.74541801" lon="11.01549419">
2940 <ele>446.0</ele>
2941 <time>2017-09-02T05:39:31Z</time>
2942 <cmt><![CDATA[compass: 65.889404296875
2943 compAccuracy: 0]]></cmt>
2944 <extensions>
2945 <speed>0.0</speed>
2946 </extensions>
2947 </trkpt>
2948 <trkpt lat="48.74541717" lon="11.01549421">
2949 <ele>446.0</ele>
2950 <time>2017-09-02T05:39:32Z</time>
2951 <cmt><![CDATA[compass: 66.31729125976562
2952 compAccuracy: 0]]></cmt>
2953 <extensions>
2954 <speed>0.0</speed>
2955 </extensions>
2956 </trkpt>
2957 <trkpt lat="48.74541671" lon="11.01549421">
2958 <ele>446.0</ele>
2959 <time>2017-09-02T05:39:33Z</time>
2960 <cmt><![CDATA[compass: 66.41983032226562
2961 compAccuracy: 0]]></cmt>
2962 <extensions>
2963 <speed>0.0</speed>
2964 </extensions>
2965 </trkpt>
2966 <trkpt lat="48.74541647" lon="11.01549421">
2967 <ele>446.0</ele>
2968 <time>2017-09-02T05:39:34Z</time>
2969 <cmt><![CDATA[compass: 65.72119140625
2970 compAccuracy: 0]]></cmt>
2971 <extensions>
2972 <speed>0.0</speed>
2973 </extensions>
2974 </trkpt>
2975 <trkpt lat="48.74541636" lon="11.01549423">
2976 <ele>446.0</ele>
2977 <time>2017-09-02T05:39:35Z</time>
2978 <cmt><![CDATA[compass: 65.72119140625
2979 compAccuracy: 0]]></cmt>
2980 <extensions>
2981 <speed>0.0</speed>
2982 </extensions>
2983 </trkpt>
2984 <trkpt lat="48.74541632" lon="11.01549424">
2985 <ele>446.0</ele>
2986 <time>2017-09-02T05:39:36Z</time>
2987 <cmt><![CDATA[compass: 65.72119140625
2988 compAccuracy: 0]]></cmt>
2989 <extensions>
2990 <speed>0.0</speed>
2991 </extensions>
2992 </trkpt>
2993 <trkpt lat="48.74541629" lon="11.01549426">
2994 <ele>446.0</ele>
2995 <time>2017-09-02T05:39:37Z</time>
2996 <cmt><![CDATA[compass: 65.72119140625
2997 compAccuracy: 0]]></cmt>
2998 <extensions>
2999 <speed>0.0</speed>
3000 </extensions>
3001 </trkpt>
3002 <trkpt lat="48.74541629" lon="11.01549427">
3003 <ele>446.0</ele>
3004 <time>2017-09-02T05:39:38Z</time>
3005 <cmt><![CDATA[compass: 65.72119140625
3006 compAccuracy: 0]]></cmt>
3007 <extensions>
3008 <speed>0.0</speed>
3009 </extensions>
3010 </trkpt>
3011 <trkpt lat="48.74541627" lon="11.01549428">
3012 <ele>446.0</ele>
3013 <time>2017-09-02T05:39:39Z</time>
3014 <cmt><![CDATA[compass: 65.72119140625
3015 compAccuracy: 0]]></cmt>
3016 <extensions>
3017 <speed>0.0</speed>
3018 </extensions>
3019 </trkpt>
3020 <trkpt lat="48.74541626" lon="11.01549427">
3021 <ele>446.0</ele>
3022 <time>2017-09-02T05:39:40Z</time>
3023 <cmt><![CDATA[compass: 65.72119140625
3024 compAccuracy: 0]]></cmt>
3025 <extensions>
3026 <speed>0.0</speed>
3027 </extensions>
3028 </trkpt>
3029 <trkpt lat="48.74541625" lon="11.01549427">
3030 <ele>446.0</ele>
3031 <time>2017-09-02T05:39:41Z</time>
3032 <cmt><![CDATA[compass: 65.72119140625
3033 compAccuracy: 0]]></cmt>
3034 <extensions>
3035 <speed>0.0</speed>
3036 </extensions>
3037 </trkpt>
3038 <trkpt lat="48.74541626" lon="11.01549427">
3039 <ele>446.0</ele>
3040 <time>2017-09-02T05:39:42Z</time>
3041 <cmt><![CDATA[compass: 65.72119140625
3042 compAccuracy: 0]]></cmt>
3043 <extensions>
3044 <speed>0.0</speed>
3045 </extensions>
3046 </trkpt>
3047 <trkpt lat="48.74541625" lon="11.01549427">
3048 <ele>446.0</ele>
3049 <time>2017-09-02T05:39:43Z</time>
3050 <cmt><![CDATA[compass: 66.519775390625
3051 compAccuracy: 0]]></cmt>
3052 <extensions>
3053 <speed>0.0</speed>
3054 </extensions>
3055 </trkpt>
3056 <trkpt lat="48.74541626" lon="11.01549427">
3057 <ele>446.0</ele>
3058 <time>2017-09-02T05:39:44Z</time>
3059 <cmt><![CDATA[compass: 66.9637451171875
3060 compAccuracy: 0]]></cmt>
3061 <extensions>
3062 <speed>0.0</speed>
3063 </extensions>
3064 </trkpt>
3065 <trkpt lat="48.74541625" lon="11.01549427">
3066 <ele>446.0</ele>
3067 <time>2017-09-02T05:39:45Z</time>
3068 <cmt><![CDATA[compass: 67.1998291015625
3069 compAccuracy: 0]]></cmt>
3070 <extensions>
3071 <speed>0.0</speed>
3072 </extensions>
3073 </trkpt>
3074 <trkpt lat="48.74541625" lon="11.01549426">
3075 <ele>446.0</ele>
3076 <time>2017-09-02T05:39:46Z</time>
3077 <cmt><![CDATA[compass: 67.1998291015625
3078 compAccuracy: 0]]></cmt>
3079 <extensions>
3080 <speed>0.0</speed>
3081 </extensions>
3082 </trkpt>
3083 <trkpt lat="48.74541624" lon="11.01549426">
3084 <ele>446.0</ele>
3085 <time>2017-09-02T05:39:47Z</time>
3086 <cmt><![CDATA[compass: 67.1998291015625
3087 compAccuracy: 0]]></cmt>
3088 <extensions>
3089 <speed>0.0</speed>
3090 </extensions>
3091 </trkpt>
3092 <trkpt lat="48.74541624" lon="11.01549425">
3093 <ele>446.0</ele>
3094 <time>2017-09-02T05:39:48Z</time>
3095 <cmt><![CDATA[compass: 67.1998291015625
3096 compAccuracy: 0]]></cmt>
3097 <extensions>
3098 <speed>0.0</speed>
3099 </extensions>
3100 </trkpt>
3101 <trkpt lat="48.74541624" lon="11.01549425">
3102 <ele>446.0</ele>
3103 <time>2017-09-02T05:39:49Z</time>
3104 <cmt><![CDATA[compass: 67.1998291015625
3105 compAccuracy: 0]]></cmt>
3106 <extensions>
3107 <speed>0.0</speed>
3108 </extensions>
3109 </trkpt>
3110 <trkpt lat="48.74541625" lon="11.01549425">
3111 <ele>446.0</ele>
3112 <time>2017-09-02T05:39:50Z</time>
3113 <cmt><![CDATA[compass: 67.1998291015625
3114 compAccuracy: 0]]></cmt>
3115 <extensions>
3116 <speed>0.0</speed>
3117 </extensions>
3118 </trkpt>
3119 <trkpt lat="48.74541626" lon="11.01549425">
3120 <ele>446.0</ele>
3121 <time>2017-09-02T05:39:51Z</time>
3122 <cmt><![CDATA[compass: 67.1998291015625
3123 compAccuracy: 0]]></cmt>
3124 <extensions>
3125 <speed>0.0</speed>
3126 </extensions>
3127 </trkpt>
3128 <trkpt lat="48.74541627" lon="11.01549424">
3129 <ele>446.0</ele>
3130 <time>2017-09-02T05:39:52Z</time>
3131 <cmt><![CDATA[compass: 67.1998291015625
3132 compAccuracy: 0]]></cmt>
3133 <extensions>
3134 <speed>0.0</speed>
3135 </extensions>
3136 </trkpt>
3137 <trkpt lat="48.74541628" lon="11.01549424">
3138 <ele>446.0</ele>
3139 <time>2017-09-02T05:39:53Z</time>
3140 <cmt><![CDATA[compass: 67.1998291015625
3141 compAccuracy: 0]]></cmt>
3142 <extensions>
3143 <speed>0.0</speed>
3144 </extensions>
3145 </trkpt>
3146 <trkpt lat="48.74541628" lon="11.01549423">
3147 <ele>446.0</ele>
3148 <time>2017-09-02T05:39:54Z</time>
3149 <cmt><![CDATA[compass: 67.1998291015625
3150 compAccuracy: 0]]></cmt>
3151 <extensions>
3152 <speed>0.0</speed>
3153 </extensions>
3154 </trkpt>
3155 <trkpt lat="48.74541629" lon="11.01549423">
3156 <ele>446.0</ele>
3157 <time>2017-09-02T05:39:55Z</time>
3158 <cmt><![CDATA[compass: 66.56759643554688
3159 compAccuracy: 0]]></cmt>
3160 <extensions>
3161 <speed>0.0</speed>
3162 </extensions>
3163 </trkpt>
3164 <trkpt lat="48.7454145" lon="11.01549392">
3165 <ele>446.0</ele>
3166 <time>2017-09-02T05:39:56Z</time>
3167 <cmt><![CDATA[compass: 62.181976318359375
3168 compAccuracy: 0]]></cmt>
3169 <extensions>
3170 <speed>0.0</speed>
3171 </extensions>
3172 </trkpt>
3173 <trkpt lat="48.74541358" lon="11.01549376">
3174 <ele>446.0</ele>
3175 <time>2017-09-02T05:39:57Z</time>
3176 <cmt><![CDATA[compass: 62.181976318359375
3177 compAccuracy: 0]]></cmt>
3178 <extensions>
3179 <speed>0.0</speed>
3180 </extensions>
3181 </trkpt>
3182 <trkpt lat="48.74541312" lon="11.01549367">
3183 <ele>446.0</ele>
3184 <time>2017-09-02T05:39:58Z</time>
3185 <cmt><![CDATA[compass: 60.1103515625
3186 compAccuracy: 0]]></cmt>
3187 <extensions>
3188 <speed>0.0</speed>
3189 </extensions>
3190 </trkpt>
3191 <trkpt lat="48.74541289" lon="11.01549362">
3192 <ele>446.0</ele>
3193 <time>2017-09-02T05:39:59Z</time>
3194 <cmt><![CDATA[compass: 63.855712890625
3195 compAccuracy: 0]]></cmt>
3196 <extensions>
3197 <speed>0.0</speed>
3198 </extensions>
3199 </trkpt>
3200 <trkpt lat="48.74541279" lon="11.01549359">
3201 <ele>446.0</ele>
3202 <time>2017-09-02T05:40:00Z</time>
3203 <cmt><![CDATA[compass: 63.929351806640625
3204 compAccuracy: 0]]></cmt>
3205 <extensions>
3206 <speed>0.0</speed>
3207 </extensions>
3208 </trkpt>
3209 <trkpt lat="48.74541273" lon="11.01549357">
3210 <ele>446.0</ele>
3211 <time>2017-09-02T05:40:01Z</time>
3212 <cmt><![CDATA[compass: 63.929351806640625
3213 compAccuracy: 0]]></cmt>
3214 <extensions>
3215 <speed>0.0</speed>
3216 </extensions>
3217 </trkpt>
3218 <trkpt lat="48.74541269" lon="11.01549354">
3219 <ele>446.0</ele>
3220 <time>2017-09-02T05:40:02Z</time>
3221 <cmt><![CDATA[compass: 63.929351806640625
3222 compAccuracy: 0]]></cmt>
3223 <extensions>
3224 <speed>0.0</speed>
3225 </extensions>
3226 </trkpt>
3227 <trkpt lat="48.74541267" lon="11.01549353">
3228 <ele>446.0</ele>
3229 <time>2017-09-02T05:40:03Z</time>
3230 <cmt><![CDATA[compass: 63.929351806640625
3231 compAccuracy: 0]]></cmt>
3232 <extensions>
3233 <speed>0.0</speed>
3234 </extensions>
3235 </trkpt>
3236 <trkpt lat="48.74541267" lon="11.01549352">
3237 <ele>446.0</ele>
3238 <time>2017-09-02T05:40:04Z</time>
3239 <cmt><![CDATA[compass: 63.929351806640625
3240 compAccuracy: 0]]></cmt>
3241 <extensions>
3242 <speed>0.0</speed>
3243 </extensions>
3244 </trkpt>
3245 <trkpt lat="48.74541269" lon="11.01549351">
3246 <ele>446.0</ele>
3247 <time>2017-09-02T05:40:05Z</time>
3248 <cmt><![CDATA[compass: 63.929351806640625
3249 compAccuracy: 0]]></cmt>
3250 <extensions>
3251 <speed>0.0</speed>
3252 </extensions>
3253 </trkpt>
3254 <trkpt lat="48.74541268" lon="11.0154935">
3255 <ele>446.0</ele>
3256 <time>2017-09-02T05:40:06Z</time>
3257 <cmt><![CDATA[compass: 64.1529541015625
3258 compAccuracy: 0]]></cmt>
3259 <extensions>
3260 <speed>0.0</speed>
3261 </extensions>
3262 </trkpt>
3263 <trkpt lat="48.74541266" lon="11.01549349">
3264 <ele>446.0</ele>
3265 <time>2017-09-02T05:40:07Z</time>
3266 <cmt><![CDATA[compass: 58.971832275390625
3267 compAccuracy: 0]]></cmt>
3268 <extensions>
3269 <speed>0.0</speed>
3270 </extensions>
3271 </trkpt>
3272 <trkpt lat="48.74541264" lon="11.01549347">
3273 <ele>446.0</ele>
3274 <time>2017-09-02T05:40:08Z</time>
3275 <cmt><![CDATA[compass: 59.65386962890625
3276 compAccuracy: 0]]></cmt>
3277 <extensions>
3278 <speed>0.0</speed>
3279 </extensions>
3280 </trkpt>
3281 <trkpt lat="48.74541267" lon="11.01549345">
3282 <ele>446.0</ele>
3283 <time>2017-09-02T05:40:09Z</time>
3284 <cmt><![CDATA[compass: 59.65386962890625
3285 compAccuracy: 0]]></cmt>
3286 <extensions>
3287 <speed>0.0</speed>
3288 </extensions>
3289 </trkpt>
3290 <trkpt lat="48.74541268" lon="11.01549343">
3291 <ele>446.0</ele>
3292 <time>2017-09-02T05:40:10Z</time>
3293 <cmt><![CDATA[compass: 59.65386962890625
3294 compAccuracy: 0]]></cmt>
3295 <extensions>
3296 <speed>0.0</speed>
3297 </extensions>
3298 </trkpt>
3299 <trkpt lat="48.74541267" lon="11.01549342">
3300 <ele>446.0</ele>
3301 <time>2017-09-02T05:40:11Z</time>
3302 <cmt><![CDATA[compass: 59.65386962890625
3303 compAccuracy: 0]]></cmt>
3304 <extensions>
3305 <speed>0.0</speed>
3306 </extensions>
3307 </trkpt>
3308 <trkpt lat="48.74541271" lon="11.01549339">
3309 <ele>446.0</ele>
3310 <time>2017-09-02T05:40:12Z</time>
3311 <cmt><![CDATA[compass: 59.65386962890625
3312 compAccuracy: 0]]></cmt>
3313 <extensions>
3314 <speed>0.0</speed>
3315 </extensions>
3316 </trkpt>
3317 <trkpt lat="48.74541272" lon="11.01549337">
3318 <ele>446.0</ele>
3319 <time>2017-09-02T05:40:13Z</time>
3320 <cmt><![CDATA[compass: 59.65386962890625
3321 compAccuracy: 0]]></cmt>
3322 <extensions>
3323 <speed>0.0</speed>
3324 </extensions>
3325 </trkpt>
3326 <trkpt lat="48.74541272" lon="11.01549336">
3327 <ele>446.0</ele>
3328 <time>2017-09-02T05:40:14Z</time>
3329 <cmt><![CDATA[compass: 52.29693603515625
3330 compAccuracy: 0]]></cmt>
3331 <extensions>
3332 <speed>0.0</speed>
3333 </extensions>
3334 </trkpt>
3335 <trkpt lat="48.7454127" lon="11.01549333">
3336 <ele>446.0</ele>
3337 <time>2017-09-02T05:40:15Z</time>
3338 <cmt><![CDATA[compass: 60.413604736328125
3339 compAccuracy: 0]]></cmt>
3340 <extensions>
3341 <speed>0.0</speed>
3342 </extensions>
3343 </trkpt>
3344 <trkpt lat="48.74541268" lon="11.01549332">
3345 <ele>446.0</ele>
3346 <time>2017-09-02T05:40:16Z</time>
3347 <cmt><![CDATA[compass: 60.32476806640625
3348 compAccuracy: 0]]></cmt>
3349 <extensions>
3350 <speed>0.0</speed>
3351 </extensions>
3352 </trkpt>
3353 <trkpt lat="48.74541266" lon="11.01549331">
3354 <ele>446.0</ele>
3355 <time>2017-09-02T05:40:17Z</time>
3356 <cmt><![CDATA[compass: 61.5084228515625
3357 compAccuracy: 0]]></cmt>
3358 <extensions>
3359 <speed>0.0</speed>
3360 </extensions>
3361 </trkpt>
3362 <trkpt lat="48.74541265" lon="11.0154933">
3363 <ele>446.0</ele>
3364 <time>2017-09-02T05:40:18Z</time>
3365 <cmt><![CDATA[compass: 61.5084228515625
3366 compAccuracy: 0]]></cmt>
3367 <extensions>
3368 <speed>0.0</speed>
3369 </extensions>
3370 </trkpt>
3371 <trkpt lat="48.74541263" lon="11.0154933">
3372 <ele>446.0</ele>
3373 <time>2017-09-02T05:40:19Z</time>
3374 <cmt><![CDATA[compass: 58.29571533203125
3375 compAccuracy: 0]]></cmt>
3376 <extensions>
3377 <speed>0.0</speed>
3378 </extensions>
3379 </trkpt>
3380 <trkpt lat="48.74541262" lon="11.01549329">
3381 <ele>446.0</ele>
3382 <time>2017-09-02T05:40:20Z</time>
3383 <cmt><![CDATA[compass: 57.09539794921875
3384 compAccuracy: 0]]></cmt>
3385 <extensions>
3386 <speed>0.0</speed>
3387 </extensions>
3388 </trkpt>
3389 <trkpt lat="48.74541262" lon="11.01549329">
3390 <ele>446.0</ele>
3391 <time>2017-09-02T05:40:21Z</time>
3392 <cmt><![CDATA[compass: 52.880950927734375
3393 compAccuracy: 0]]></cmt>
3394 <extensions>
3395 <speed>0.0</speed>
3396 </extensions>
3397 </trkpt>
3398 <trkpt lat="48.74541263" lon="11.01549328">
3399 <ele>446.0</ele>
3400 <time>2017-09-02T05:40:22Z</time>
3401 <cmt><![CDATA[compass: 52.880950927734375
3402 compAccuracy: 0]]></cmt>
3403 <extensions>
3404 <speed>0.0</speed>
3405 </extensions>
3406 </trkpt>
3407 <trkpt lat="48.74541263" lon="11.01549328">
3408 <ele>446.0</ele>
3409 <time>2017-09-02T05:40:23Z</time>
3410 <cmt><![CDATA[compass: 52.880950927734375
3411 compAccuracy: 0]]></cmt>
3412 <extensions>
3413 <speed>0.0</speed>
3414 </extensions>
3415 </trkpt>
3416 <trkpt lat="48.74541263" lon="11.01549328">
3417 <ele>446.0</ele>
3418 <time>2017-09-02T05:40:24Z</time>
3419 <cmt><![CDATA[compass: 52.880950927734375
3420 compAccuracy: 0]]></cmt>
3421 <extensions>
3422 <speed>0.0</speed>
3423 </extensions>
3424 </trkpt>
3425 <trkpt lat="48.74541262" lon="11.01549328">
3426 <ele>446.0</ele>
3427 <time>2017-09-02T05:40:25Z</time>
3428 <cmt><![CDATA[compass: 52.880950927734375
3429 compAccuracy: 0]]></cmt>
3430 <extensions>
3431 <speed>0.0</speed>
3432 </extensions>
3433 </trkpt>
3434 <trkpt lat="48.74541262" lon="11.01549328">
3435 <ele>446.0</ele>
3436 <time>2017-09-02T05:40:26Z</time>
3437 <cmt><![CDATA[compass: 52.880950927734375
3438 compAccuracy: 0]]></cmt>
3439 <extensions>
3440 <speed>0.0</speed>
3441 </extensions>
3442 </trkpt>
3443 <trkpt lat="48.74541261" lon="11.01549327">
3444 <ele>446.0</ele>
3445 <time>2017-09-02T05:40:27Z</time>
3446 <cmt><![CDATA[compass: 52.880950927734375
3447 compAccuracy: 0]]></cmt>
3448 <extensions>
3449 <speed>0.0</speed>
3450 </extensions>
3451 </trkpt>
3452 <trkpt lat="48.7454126" lon="11.01549326">
3453 <ele>446.0</ele>
3454 <time>2017-09-02T05:40:28Z</time>
3455 <cmt><![CDATA[compass: 52.880950927734375
3456 compAccuracy: 0]]></cmt>
3457 <extensions>
3458 <speed>0.0</speed>
3459 </extensions>
3460 </trkpt>
3461 <trkpt lat="48.74541259" lon="11.01549325">
3462 <ele>446.0</ele>
3463 <time>2017-09-02T05:40:29Z</time>
3464 <cmt><![CDATA[compass: 52.880950927734375
3465 compAccuracy: 0]]></cmt>
3466 <extensions>
3467 <speed>0.0</speed>
3468 </extensions>
3469 </trkpt>
3470 <trkpt lat="48.74541259" lon="11.01549325">
3471 <ele>446.0</ele>
3472 <time>2017-09-02T05:40:30Z</time>
3473 <cmt><![CDATA[compass: 52.880950927734375
3474 compAccuracy: 0]]></cmt>
3475 <extensions>
3476 <speed>0.0</speed>
3477 </extensions>
3478 </trkpt>
3479 <trkpt lat="48.74541259" lon="11.01549325">
3480 <ele>446.0</ele>
3481 <time>2017-09-02T05:40:31Z</time>
3482 <cmt><![CDATA[compass: 52.880950927734375
3483 compAccuracy: 0]]></cmt>
3484 <extensions>
3485 <speed>0.0</speed>
3486 </extensions>
3487 </trkpt>
3488 <trkpt lat="48.7454126" lon="11.01549325">
3489 <ele>446.0</ele>
3490 <time>2017-09-02T05:40:32Z</time>
3491 <cmt><![CDATA[compass: 52.880950927734375
3492 compAccuracy: 0]]></cmt>
3493 <extensions>
3494 <speed>0.0</speed>
3495 </extensions>
3496 </trkpt>
3497 <trkpt lat="48.7454126" lon="11.01549326">
3498 <ele>446.0</ele>
3499 <time>2017-09-02T05:40:33Z</time>
3500 <cmt><![CDATA[compass: 52.880950927734375
3501 compAccuracy: 0]]></cmt>
3502 <extensions>
3503 <speed>0.0</speed>
3504 </extensions>
3505 </trkpt>
3506 <trkpt lat="48.7454126" lon="11.01549326">
3507 <ele>446.0</ele>
3508 <time>2017-09-02T05:40:34Z</time>
3509 <cmt><![CDATA[compass: 52.880950927734375
3510 compAccuracy: 0]]></cmt>
3511 <extensions>
3512 <speed>0.0</speed>
3513 </extensions>
3514 </trkpt>
3515 <trkpt lat="48.7454126" lon="11.01549326">
3516 <ele>446.0</ele>
3517 <time>2017-09-02T05:40:35Z</time>
3518 <cmt><![CDATA[compass: 52.880950927734375
3519 compAccuracy: 0]]></cmt>
3520 <extensions>
3521 <speed>0.0</speed>
3522 </extensions>
3523 </trkpt>
3524 <trkpt lat="48.74541259" lon="11.01549325">
3525 <ele>446.0</ele>
3526 <time>2017-09-02T05:40:36Z</time>
3527 <cmt><![CDATA[compass: 125.972412109375
3528 compAccuracy: 0]]></cmt>
3529 <extensions>
3530 <speed>0.0</speed>
3531 </extensions>
3532 </trkpt>
3533 <trkpt lat="48.7454126" lon="11.01549325">
3534 <ele>446.0</ele>
3535 <time>2017-09-02T05:40:37Z</time>
3536 <cmt><![CDATA[compass: 131.07684326171875
3537 compAccuracy: 0]]></cmt>
3538 <extensions>
3539 <speed>0.0</speed>
3540 </extensions>
3541 </trkpt>
3542 <trkpt lat="48.74541265" lon="11.01549324">
3543 <ele>446.0</ele>
3544 <time>2017-09-02T05:40:38Z</time>
3545 <cmt><![CDATA[compass: 129.79971313476562
3546 compAccuracy: 0]]></cmt>
3547 <extensions>
3548 <speed>0.0</speed>
3549 </extensions>
3550 </trkpt>
3551 <trkpt lat="48.74541265" lon="11.01549322">
3552 <ele>446.0</ele>
3553 <time>2017-09-02T05:40:39Z</time>
3554 <cmt><![CDATA[compass: 132.818115234375
3555 compAccuracy: 0]]></cmt>
3556 <extensions>
3557 <speed>0.0</speed>
3558 </extensions>
3559 </trkpt>
3560 <trkpt lat="48.74541265" lon="11.0154932">
3561 <ele>446.0</ele>
3562 <time>2017-09-02T05:40:40Z</time>
3563 <cmt><![CDATA[compass: 108.60833740234375
3564 compAccuracy: 0]]></cmt>
3565 <extensions>
3566 <speed>0.0</speed>
3567 </extensions>
3568 </trkpt>
3569 <trkpt lat="48.74541266" lon="11.01549319">
3570 <ele>446.0</ele>
3571 <time>2017-09-02T05:40:41Z</time>
3572 <cmt><![CDATA[compass: 95.88751220703125
3573 compAccuracy: 0]]></cmt>
3574 <extensions>
3575 <speed>0.0</speed>
3576 </extensions>
3577 </trkpt>
3578 <trkpt lat="48.74541267" lon="11.01549318">
3579 <ele>446.0</ele>
3580 <time>2017-09-02T05:40:42Z</time>
3581 <cmt><![CDATA[compass: 114.27325439453125
3582 compAccuracy: 0]]></cmt>
3583 <extensions>
3584 <speed>0.0</speed>
3585 </extensions>
3586 </trkpt>
3587 <trkpt lat="48.74541267" lon="11.01549318">
3588 <ele>446.0</ele>
3589 <time>2017-09-02T05:40:43Z</time>
3590 <cmt><![CDATA[compass: 131.88302612304688
3591 compAccuracy: 0]]></cmt>
3592 <extensions>
3593 <speed>0.0</speed>
3594 </extensions>
3595 </trkpt>
3596 <trkpt lat="48.74541271" lon="11.01549316">
3597 <ele>446.0</ele>
3598 <time>2017-09-02T05:40:44Z</time>
3599 <cmt><![CDATA[compass: 132.65335083007812
3600 compAccuracy: 0]]></cmt>
3601 <extensions>
3602 <speed>0.0</speed>
3603 </extensions>
3604 </trkpt>
3605 <trkpt lat="48.74541272" lon="11.01549315">
3606 <ele>446.0</ele>
3607 <time>2017-09-02T05:40:45Z</time>
3608 <cmt><![CDATA[compass: 133.19232177734375
3609 compAccuracy: 0]]></cmt>
3610 <extensions>
3611 <speed>0.0</speed>
3612 </extensions>
3613 </trkpt>
3614 <trkpt lat="48.74541282" lon="11.01549314">
3615 <ele>446.0</ele>
3616 <time>2017-09-02T05:40:46Z</time>
3617 <cmt><![CDATA[compass: 142.87155151367188
3618 compAccuracy: 0]]></cmt>
3619 <extensions>
3620 <speed>0.0</speed>
3621 </extensions>
3622 </trkpt>
3623 <trkpt lat="48.74541286" lon="11.01549313">
3624 <ele>446.0</ele>
3625 <time>2017-09-02T05:40:47Z</time>
3626 <cmt><![CDATA[compass: 142.87155151367188
3627 compAccuracy: 0]]></cmt>
3628 <extensions>
3629 <speed>0.0</speed>
3630 </extensions>
3631 </trkpt>
3632 <trkpt lat="48.74541287" lon="11.01549312">
3633 <ele>446.0</ele>
3634 <time>2017-09-02T05:40:48Z</time>
3635 <cmt><![CDATA[compass: 142.87155151367188
3636 compAccuracy: 0]]></cmt>
3637 <extensions>
3638 <speed>0.0</speed>
3639 </extensions>
3640 </trkpt>
3641 <trkpt lat="48.74541288" lon="11.01549312">
3642 <ele>446.0</ele>
3643 <time>2017-09-02T05:40:49Z</time>
3644 <cmt><![CDATA[compass: 142.87155151367188
3645 compAccuracy: 0]]></cmt>
3646 <extensions>
3647 <speed>0.0</speed>
3648 </extensions>
3649 </trkpt>
3650 <trkpt lat="48.74541287" lon="11.0154931">
3651 <ele>446.0</ele>
3652 <time>2017-09-02T05:40:50Z</time>
3653 <cmt><![CDATA[compass: 142.87155151367188
3654 compAccuracy: 0]]></cmt>
3655 <extensions>
3656 <speed>0.0</speed>
3657 </extensions>
3658 </trkpt>
3659 <trkpt lat="48.74541289" lon="11.01549309">
3660 <ele>446.0</ele>
3661 <time>2017-09-02T05:40:51Z</time>
3662 <cmt><![CDATA[compass: 142.87155151367188
3663 compAccuracy: 0]]></cmt>
3664 <extensions>
3665 <speed>0.0</speed>
3666 </extensions>
3667 </trkpt>
3668 <trkpt lat="48.74541289" lon="11.01549307">
3669 <ele>446.0</ele>
3670 <time>2017-09-02T05:40:52Z</time>
3671 <cmt><![CDATA[compass: 142.87155151367188
3672 compAccuracy: 0]]></cmt>
3673 <extensions>
3674 <speed>0.0</speed>
3675 </extensions>
3676 </trkpt>
3677 <trkpt lat="48.74541293" lon="11.01549304">
3678 <ele>446.0</ele>
3679 <time>2017-09-02T05:40:53Z</time>
3680 <cmt><![CDATA[compass: 142.87155151367188
3681 compAccuracy: 0]]></cmt>
3682 <extensions>
3683 <speed>0.0</speed>
3684 </extensions>
3685 </trkpt>
3686 <trkpt lat="48.74541296" lon="11.01549301">
3687 <ele>446.0</ele>
3688 <time>2017-09-02T05:40:54Z</time>
3689 <cmt><![CDATA[compass: 142.87155151367188
3690 compAccuracy: 0]]></cmt>
3691 <extensions>
3692 <speed>0.0</speed>
3693 </extensions>
3694 </trkpt>
3695 <trkpt lat="48.74541301" lon="11.01549297">
3696 <ele>446.0</ele>
3697 <time>2017-09-02T05:40:55Z</time>
3698 <cmt><![CDATA[compass: 142.87155151367188
3699 compAccuracy: 0]]></cmt>
3700 <extensions>
3701 <speed>0.0</speed>
3702 </extensions>
3703 </trkpt>
3704 <trkpt lat="48.74541303" lon="11.01549295">
3705 <ele>446.0</ele>
3706 <time>2017-09-02T05:40:56Z</time>
3707 <cmt><![CDATA[compass: 142.87155151367188
3708 compAccuracy: 0]]></cmt>
3709 <extensions>
3710 <speed>0.0</speed>
3711 </extensions>
3712 </trkpt>
3713 <trkpt lat="48.74541304" lon="11.01549293">
3714 <ele>446.0</ele>
3715 <time>2017-09-02T05:40:57Z</time>
3716 <cmt><![CDATA[compass: 142.87155151367188
3717 compAccuracy: 0]]></cmt>
3718 <extensions>
3719 <speed>0.0</speed>
3720 </extensions>
3721 </trkpt>
3722 <trkpt lat="48.74541307" lon="11.01549291">
3723 <ele>446.0</ele>
3724 <time>2017-09-02T05:40:58Z</time>
3725 <cmt><![CDATA[compass: 142.87155151367188
3726 compAccuracy: 0]]></cmt>
3727 <extensions>
3728 <speed>0.0</speed>
3729 </extensions>
3730 </trkpt>
3731 <trkpt lat="48.74541304" lon="11.01549287">
3732 <ele>446.0</ele>
3733 <time>2017-09-02T05:40:59Z</time>
3734 <cmt><![CDATA[compass: 142.87155151367188
3735 compAccuracy: 0]]></cmt>
3736 <extensions>
3737 <speed>0.0</speed>
3738 </extensions>
3739 </trkpt>
3740 <trkpt lat="48.74541301" lon="11.01549282">
3741 <ele>446.0</ele>
3742 <time>2017-09-02T05:41:00Z</time>
3743 <cmt><![CDATA[compass: 142.87155151367188
3744 compAccuracy: 0]]></cmt>
3745 <extensions>
3746 <speed>0.0</speed>
3747 </extensions>
3748 </trkpt>
3749 <trkpt lat="48.74541298" lon="11.01549278">
3750 <ele>446.0</ele>
3751 <time>2017-09-02T05:41:01Z</time>
3752 <cmt><![CDATA[compass: 131.52420043945312
3753 compAccuracy: 0]]></cmt>
3754 <extensions>
3755 <speed>0.0</speed>
3756 </extensions>
3757 </trkpt>
3758 <trkpt lat="48.74541303" lon="11.01549276">
3759 <ele>446.0</ele>
3760 <time>2017-09-02T05:41:02Z</time>
3761 <cmt><![CDATA[compass: 131.52420043945312
3762 compAccuracy: 0]]></cmt>
3763 <extensions>
3764 <speed>0.0</speed>
3765 </extensions>
3766 </trkpt>
3767 <trkpt lat="48.74541307" lon="11.01549271">
3768 <ele>446.0</ele>
3769 <time>2017-09-02T05:41:03Z</time>
3770 <cmt><![CDATA[compass: 131.52420043945312
3771 compAccuracy: 0]]></cmt>
3772 <extensions>
3773 <speed>0.0</speed>
3774 </extensions>
3775 </trkpt>
3776 <trkpt lat="48.74541309" lon="11.01549267">
3777 <ele>446.0</ele>
3778 <time>2017-09-02T05:41:04Z</time>
3779 <cmt><![CDATA[compass: 131.52420043945312
3780 compAccuracy: 0]]></cmt>
3781 <extensions>
3782 <speed>0.0</speed>
3783 </extensions>
3784 </trkpt>
3785 <trkpt lat="48.74541385" lon="11.01548599">
3786 <ele>445.0</ele>
3787 <time>2017-09-02T05:41:05Z</time>
3788 <cmt><![CDATA[compass: 131.52420043945312
3789 compAccuracy: 0]]></cmt>
3790 <extensions>
3791 <speed>0.5299999713897705</speed>
3792 </extensions>
3793 </trkpt>
3794 <trkpt lat="48.7454123" lon="11.01548039">
3795 <ele>445.0</ele>
3796 <time>2017-09-02T05:41:06Z</time>
3797 <cmt><![CDATA[compass: 56.2987060546875
3798 compAccuracy: 0]]></cmt>
3799 <extensions>
3800 <speed>0.18000000715255737</speed>
3801 </extensions>
3802 </trkpt>
3803 <trkpt lat="48.74541115" lon="11.01546978">
3804 <ele>443.0</ele>
3805 <time>2017-09-02T05:41:07Z</time>
3806 <cmt><![CDATA[compass: 105.77008056640625
3807 compAccuracy: 0]]></cmt>
3808 <extensions>
3809 <speed>0.800000011920929</speed>
3810 </extensions>
3811 </trkpt>
3812 <trkpt lat="48.74541512" lon="11.0154529">
3813 <ele>445.0</ele>
3814 <time>2017-09-02T05:41:08Z</time>
3815 <cmt><![CDATA[compass: 175.042236328125
3816 compAccuracy: 0]]></cmt>
3817 <extensions>
3818 <speed>1.0199999809265137</speed>
3819 </extensions>
3820 </trkpt>
3821 <trkpt lat="48.74545959" lon="11.01537042">
3822 <ele>452.0</ele>
3823 <time>2017-09-02T05:41:08Z</time>
3824 <cmt><![CDATA[compass: 180.8209228515625
3825 compAccuracy: 0]]></cmt>
3826 <extensions>
3827 <speed>1.100000023841858</speed>
3828 </extensions>
3829 </trkpt>
3830 <trkpt lat="48.74546274" lon="11.01536324">
3831 <ele>452.0</ele>
3832 <time>2017-09-02T05:41:09Z</time>
3833 <cmt><![CDATA[compass: 180.8209228515625
3834 compAccuracy: 0]]></cmt>
3835 <extensions>
3836 <speed>1.100000023841858</speed>
3837 </extensions>
3838 </trkpt>
3839 <trkpt lat="48.74545055" lon="11.01536105">
3840 <ele>451.0</ele>
3841 <time>2017-09-02T05:41:10Z</time>
3842 <cmt><![CDATA[compass: 166.6810302734375
3843 compAccuracy: 0]]></cmt>
3844 <extensions>
3845 <speed>1.2300000190734863</speed>
3846 </extensions>
3847 </trkpt>
3848 <trkpt lat="48.74544989" lon="11.01535711">
3849 <ele>449.0</ele>
3850 <time>2017-09-02T05:41:11Z</time>
3851 <cmt><![CDATA[compass: 168.9158935546875
3852 compAccuracy: 0]]></cmt>
3853 <extensions>
3854 <speed>1.1200000047683716</speed>
3855 </extensions>
3856 </trkpt>
3857 <trkpt lat="48.74545853" lon="11.01536075">
3858 <ele>449.0</ele>
3859 <time>2017-09-02T05:41:12Z</time>
3860 <cmt><![CDATA[compass: 154.4556884765625
3861 compAccuracy: 0]]></cmt>
3862 <extensions>
3863 <speed>0.5899999737739563</speed>
3864 </extensions>
3865 </trkpt>
3866 <trkpt lat="48.74545724" lon="11.01535865">
3867 <ele>449.0</ele>
3868 <time>2017-09-02T05:41:13Z</time>
3869 <cmt><![CDATA[compass: 146.63055419921875
3870 compAccuracy: 0]]></cmt>
3871 <extensions>
3872 <speed>0.17000000178813934</speed>
3873 </extensions>
3874 </trkpt>
3875 <trkpt lat="48.74546077" lon="11.01536601">
3876 <ele>449.0</ele>
3877 <time>2017-09-02T05:41:14Z</time>
3878 <cmt><![CDATA[compass: 145.086181640625
3879 compAccuracy: 0]]></cmt>
3880 <extensions>
3881 <speed>0.0</speed>
3882 </extensions>
3883 </trkpt>
3884 <trkpt lat="48.74545721" lon="11.01536846">
3885 <ele>449.0</ele>
3886 <time>2017-09-02T05:41:15Z</time>
3887 <cmt><![CDATA[compass: 146.4210205078125
3888 compAccuracy: 0]]></cmt>
3889 <extensions>
3890 <speed>0.0</speed>
3891 </extensions>
3892 </trkpt>
3893 <trkpt lat="48.74544897" lon="11.01536859">
3894 <ele>449.0</ele>
3895 <time>2017-09-02T05:41:16Z</time>
3896 <cmt><![CDATA[compass: 150.21121215820312
3897 compAccuracy: 0]]></cmt>
3898 <extensions>
3899 <speed>0.0</speed>
3900 </extensions>
3901 </trkpt>
3902 <trkpt lat="48.7454412" lon="11.01536489">
3903 <ele>449.0</ele>
3904 <time>2017-09-02T05:41:17Z</time>
3905 <cmt><![CDATA[compass: 116.1993408203125
3906 compAccuracy: 0]]></cmt>
3907 <extensions>
3908 <speed>0.0</speed>
3909 </extensions>
3910 </trkpt>
3911 <trkpt lat="48.74543605" lon="11.01536316">
3912 <ele>449.0</ele>
3913 <time>2017-09-02T05:41:18Z</time>
3914 <cmt><![CDATA[compass: 48.08099365234375
3915 compAccuracy: 0]]></cmt>
3916 <extensions>
3917 <speed>0.949999988079071</speed>
3918 </extensions>
3919 </trkpt>
3920 <trkpt lat="48.7454213" lon="11.01536739">
3921 <ele>449.0</ele>
3922 <time>2017-09-02T05:41:19Z</time>
3923 <cmt><![CDATA[compass: 31.2701416015625
3924 compAccuracy: 0]]></cmt>
3925 <extensions>
3926 <speed>1.4199999570846558</speed>
3927 </extensions>
3928 </trkpt>
3929 <trkpt lat="48.74541603" lon="11.015384">
3930 <ele>448.0</ele>
3931 <time>2017-09-02T05:41:20Z</time>
3932 <cmt><![CDATA[compass: 39.863250732421875
3933 compAccuracy: 0]]></cmt>
3934 <extensions>
3935 <speed>1.3300000429153442</speed>
3936 </extensions>
3937 </trkpt>
3938 <trkpt lat="48.74540569" lon="11.01538411">
3939 <ele>449.0</ele>
3940 <time>2017-09-02T05:41:21Z</time>
3941 <cmt><![CDATA[compass: 18.737548828125
3942 compAccuracy: 0]]></cmt>
3943 <extensions>
3944 <speed>1.4199999570846558</speed>
3945 </extensions>
3946 </trkpt>
3947 <trkpt lat="48.74539578" lon="11.01538214">
3948 <ele>451.0</ele>
3949 <time>2017-09-02T05:41:22Z</time>
3950 <cmt><![CDATA[compass: 21.3785400390625
3951 compAccuracy: 0]]></cmt>
3952 <extensions>
3953 <speed>1.100000023841858</speed>
3954 </extensions>
3955 </trkpt>
3956 <trkpt lat="48.74538928" lon="11.01537756">
3957 <ele>452.0</ele>
3958 <time>2017-09-02T05:41:23Z</time>
3959 <cmt><![CDATA[compass: 91.29718017578125
3960 compAccuracy: 0]]></cmt>
3961 <extensions>
3962 <speed>0.949999988079071</speed>
3963 </extensions>
3964 </trkpt>
3965 <trkpt lat="48.74537539" lon="11.01537016">
3966 <ele>450.0</ele>
3967 <time>2017-09-02T05:41:24Z</time>
3968 <cmt><![CDATA[compass: 54.39556884765625
3969 compAccuracy: 0]]></cmt>
3970 <extensions>
3971 <speed>1.1200000047683716</speed>
3972 </extensions>
3973 </trkpt>
3974 <trkpt lat="48.74535991" lon="11.01536416">
3975 <ele>450.0</ele>
3976 <time>2017-09-02T05:41:25Z</time>
3977 <cmt><![CDATA[compass: 54.6217041015625
3978 compAccuracy: 0]]></cmt>
3979 <extensions>
3980 <speed>1.3200000524520874</speed>
3981 </extensions>
3982 </trkpt>
3983 <trkpt lat="48.74534822" lon="11.01536044">
3984 <ele>449.0</ele>
3985 <time>2017-09-02T05:41:26Z</time>
3986 <cmt><![CDATA[compass: 53.829620361328125
3987 compAccuracy: 0]]></cmt>
3988 <extensions>
3989 <speed>0.8500000238418579</speed>
3990 </extensions>
3991 </trkpt>
3992 <trkpt lat="48.74533579" lon="11.01535557">
3993 <ele>450.0</ele>
3994 <time>2017-09-02T05:41:27Z</time>
3995 <cmt><![CDATA[compass: 56.07086181640625
3996 compAccuracy: 0]]></cmt>
3997 <extensions>
3998 <speed>1.4199999570846558</speed>
3999 </extensions>
4000 </trkpt>
4001 <trkpt lat="48.74532109" lon="11.01535088">
4002 <ele>451.0</ele>
4003 <time>2017-09-02T05:41:28Z</time>
4004 <cmt><![CDATA[compass: 30.675201416015625
4005 compAccuracy: 0]]></cmt>
4006 <extensions>
4007 <speed>1.090000033378601</speed>
4008 </extensions>
4009 </trkpt>
4010 <trkpt lat="48.74530469" lon="11.01535027">
4011 <ele>450.0</ele>
4012 <time>2017-09-02T05:41:29Z</time>
4013 <cmt><![CDATA[compass: 47.37677001953125
4014 compAccuracy: 0]]></cmt>
4015 <extensions>
4016 <speed>1.649999976158142</speed>
4017 </extensions>
4018 </trkpt>
4019 <trkpt lat="48.74528385" lon="11.01535111">
4020 <ele>449.0</ele>
4021 <time>2017-09-02T05:41:30Z</time>
4022 <cmt><![CDATA[compass: 53.097320556640625
4023 compAccuracy: 0]]></cmt>
4024 <extensions>
4025 <speed>1.8200000524520874</speed>
4026 </extensions>
4027 </trkpt>
4028 <trkpt lat="48.74526562" lon="11.01535052">
4029 <ele>448.0</ele>
4030 <time>2017-09-02T05:41:31Z</time>
4031 <cmt><![CDATA[compass: 69.38235473632812
4032 compAccuracy: 0]]></cmt>
4033 <extensions>
4034 <speed>1.6699999570846558</speed>
4035 </extensions>
4036 </trkpt>
4037 <trkpt lat="48.74524945" lon="11.01534913">
4038 <ele>449.0</ele>
4039 <time>2017-09-02T05:41:32Z</time>
4040 <cmt><![CDATA[compass: 97.39715576171875
4041 compAccuracy: 0]]></cmt>
4042 <extensions>
4043 <speed>1.5700000524520874</speed>
4044 </extensions>
4045 </trkpt>
4046 <trkpt lat="48.74523408" lon="11.01534171">
4047 <ele>448.0</ele>
4048 <time>2017-09-02T05:41:33Z</time>
4049 <cmt><![CDATA[compass: 128.5853271484375
4050 compAccuracy: 0]]></cmt>
4051 <extensions>
4052 <speed>1.6699999570846558</speed>
4053 </extensions>
4054 </trkpt>
4055 <trkpt lat="48.74521886" lon="11.01533072">
4056 <ele>448.0</ele>
4057 <time>2017-09-02T05:41:34Z</time>
4058 <cmt><![CDATA[compass: 121.80792236328125
4059 compAccuracy: 0]]></cmt>
4060 <extensions>
4061 <speed>1.5499999523162842</speed>
4062 </extensions>
4063 </trkpt>
4064 <trkpt lat="48.74520941" lon="11.0153208">
4065 <ele>447.0</ele>
4066 <time>2017-09-02T05:41:35Z</time>
4067 <cmt><![CDATA[compass: 126.1893310546875
4068 compAccuracy: 0]]></cmt>
4069 <extensions>
4070 <speed>0.8899999856948853</speed>
4071 </extensions>
4072 </trkpt>
4073 <trkpt lat="48.74520433" lon="11.01531487">
4074 <ele>446.0</ele>
4075 <time>2017-09-02T05:41:36Z</time>
4076 <cmt><![CDATA[compass: 141.95477294921875
4077 compAccuracy: 0]]></cmt>
4078 <extensions>
4079 <speed>0.4699999988079071</speed>
4080 </extensions>
4081 </trkpt>
4082 <trkpt lat="48.74520036" lon="11.01530585">
4083 <ele>447.0</ele>
4084 <time>2017-09-02T05:41:37Z</time>
4085 <cmt><![CDATA[compass: 145.80551147460938
4086 compAccuracy: 0]]></cmt>
4087 <extensions>
4088 <speed>0.9100000262260437</speed>
4089 </extensions>
4090 </trkpt>
4091 <trkpt lat="48.74520042" lon="11.01529193">
4092 <ele>447.0</ele>
4093 <time>2017-09-02T05:41:38Z</time>
4094 <cmt><![CDATA[compass: 147.52691650390625
4095 compAccuracy: 0]]></cmt>
4096 <extensions>
4097 <speed>0.7699999809265137</speed>
4098 </extensions>
4099 </trkpt>
4100 <trkpt lat="48.74520694" lon="11.01527795">
4101 <ele>447.0</ele>
4102 <time>2017-09-02T05:41:39Z</time>
4103 <cmt><![CDATA[compass: 138.59515380859375
4104 compAccuracy: 0]]></cmt>
4105 <extensions>
4106 <speed>0.0</speed>
4107 </extensions>
4108 </trkpt>
4109 <trkpt lat="48.7452087" lon="11.01527633">
4110 <ele>447.0</ele>
4111 <time>2017-09-02T05:41:40Z</time>
4112 <cmt><![CDATA[compass: 135.424560546875
4113 compAccuracy: 0]]></cmt>
4114 <extensions>
4115 <speed>0.0</speed>
4116 </extensions>
4117 </trkpt>
4118 <trkpt lat="48.74521136" lon="11.01527487">
4119 <ele>447.0</ele>
4120 <time>2017-09-02T05:41:41Z</time>
4121 <cmt><![CDATA[compass: 144.7391357421875
4122 compAccuracy: 0]]></cmt>
4123 <extensions>
4124 <speed>0.0</speed>
4125 </extensions>
4126 </trkpt>
4127 <trkpt lat="48.74521329" lon="11.01527452">
4128 <ele>447.0</ele>
4129 <time>2017-09-02T05:41:42Z</time>
4130 <cmt><![CDATA[compass: 142.30010986328125
4131 compAccuracy: 0]]></cmt>
4132 <extensions>
4133 <speed>0.0</speed>
4134 </extensions>
4135 </trkpt>
4136 <trkpt lat="48.74521386" lon="11.0152719">
4137 <ele>447.0</ele>
4138 <time>2017-09-02T05:41:43Z</time>
4139 <cmt><![CDATA[compass: 138.35260009765625
4140 compAccuracy: 0]]></cmt>
4141 <extensions>
4142 <speed>0.0</speed>
4143 </extensions>
4144 </trkpt>
4145 <trkpt lat="48.7452118" lon="11.01526865">
4146 <ele>448.0</ele>
4147 <time>2017-09-02T05:41:44Z</time>
4148 <cmt><![CDATA[compass: 137.8121337890625
4149 compAccuracy: 0]]></cmt>
4150 <extensions>
4151 <speed>0.0</speed>
4152 </extensions>
4153 </trkpt>
4154 <trkpt lat="48.74521226" lon="11.01526643">
4155 <ele>448.0</ele>
4156 <time>2017-09-02T05:41:45Z</time>
4157 <cmt><![CDATA[compass: 140.9229736328125
4158 compAccuracy: 0]]></cmt>
4159 <extensions>
4160 <speed>0.0</speed>
4161 </extensions>
4162 </trkpt>
4163 <trkpt lat="48.74521299" lon="11.01526503">
4164 <ele>448.0</ele>
4165 <time>2017-09-02T05:41:46Z</time>
4166 <cmt><![CDATA[compass: 147.695556640625
4167 compAccuracy: 0]]></cmt>
4168 <extensions>
4169 <speed>0.0</speed>
4170 </extensions>
4171 </trkpt>
4172 <trkpt lat="48.74521324" lon="11.01526332">
4173 <ele>448.0</ele>
4174 <time>2017-09-02T05:41:47Z</time>
4175 <cmt><![CDATA[compass: 157.4271240234375
4176 compAccuracy: 0]]></cmt>
4177 <extensions>
4178 <speed>0.0</speed>
4179 </extensions>
4180 </trkpt>
4181 <trkpt lat="48.74521232" lon="11.0152617">
4182 <ele>448.0</ele>
4183 <time>2017-09-02T05:41:48Z</time>
4184 <cmt><![CDATA[compass: 164.3907470703125
4185 compAccuracy: 0]]></cmt>
4186 <extensions>
4187 <speed>0.0</speed>
4188 </extensions>
4189 </trkpt>
4190 <trkpt lat="48.74521183" lon="11.01526094">
4191 <ele>448.0</ele>
4192 <time>2017-09-02T05:41:49Z</time>
4193 <cmt><![CDATA[compass: 164.82843017578125
4194 compAccuracy: 0]]></cmt>
4195 <extensions>
4196 <speed>0.0</speed>
4197 </extensions>
4198 </trkpt>
4199 <trkpt lat="48.74521058" lon="11.01526167">
4200 <ele>449.0</ele>
4201 <time>2017-09-02T05:41:50Z</time>
4202 <cmt><![CDATA[compass: 166.10009765625
4203 compAccuracy: 0]]></cmt>
4204 <extensions>
4205 <speed>0.0</speed>
4206 </extensions>
4207 </trkpt>
4208 <trkpt lat="48.74521002" lon="11.01526196">
4209 <ele>448.0</ele>
4210 <time>2017-09-02T05:41:51Z</time>
4211 <cmt><![CDATA[compass: 161.2401123046875
4212 compAccuracy: 0]]></cmt>
4213 <extensions>
4214 <speed>0.0</speed>
4215 </extensions>
4216 </trkpt>
4217 <trkpt lat="48.74520972" lon="11.01526204">
4218 <ele>448.0</ele>
4219 <time>2017-09-02T05:41:52Z</time>
4220 <cmt><![CDATA[compass: 156.37890625
4221 compAccuracy: 0]]></cmt>
4222 <extensions>
4223 <speed>0.0</speed>
4224 </extensions>
4225 </trkpt>
4226 <trkpt lat="48.74520959" lon="11.01526207">
4227 <ele>448.0</ele>
4228 <time>2017-09-02T05:41:53Z</time>
4229 <cmt><![CDATA[compass: 154.84759521484375
4230 compAccuracy: 0]]></cmt>
4231 <extensions>
4232 <speed>0.0</speed>
4233 </extensions>
4234 </trkpt>
4235 <trkpt lat="48.74520954" lon="11.01526208">
4236 <ele>448.0</ele>
4237 <time>2017-09-02T05:41:54Z</time>
4238 <cmt><![CDATA[compass: 155.8250732421875
4239 compAccuracy: 0]]></cmt>
4240 <extensions>
4241 <speed>0.0</speed>
4242 </extensions>
4243 </trkpt>
4244 <trkpt lat="48.74520951" lon="11.01526206">
4245 <ele>448.0</ele>
4246 <time>2017-09-02T05:41:55Z</time>
4247 <cmt><![CDATA[compass: 163.88690185546875
4248 compAccuracy: 0]]></cmt>
4249 <extensions>
4250 <speed>0.0</speed>
4251 </extensions>
4252 </trkpt>
4253 <trkpt lat="48.74520968" lon="11.01525248">
4254 <ele>448.0</ele>
4255 <time>2017-09-02T05:41:56Z</time>
4256 <cmt><![CDATA[compass: 355.197265625
4257 compAccuracy: 0]]></cmt>
4258 <extensions>
4259 <speed>1.0800000429153442</speed>
4260 </extensions>
4261 </trkpt>
4262 <trkpt lat="48.74521085" lon="11.01523986">
4263 <ele>448.0</ele>
4264 <time>2017-09-02T05:41:57Z</time>
4265 <cmt><![CDATA[compass: 140.99655151367188
4266 compAccuracy: 0]]></cmt>
4267 <extensions>
4268 <speed>0.7099999785423279</speed>
4269 </extensions>
4270 </trkpt>
4271 <trkpt lat="48.74521263" lon="11.01522668">
4272 <ele>448.0</ele>
4273 <time>2017-09-02T05:41:58Z</time>
4274 <cmt><![CDATA[compass: 144.538330078125
4275 compAccuracy: 0]]></cmt>
4276 <extensions>
4277 <speed>0.9700000286102295</speed>
4278 </extensions>
4279 </trkpt>
4280 <trkpt lat="48.74521499" lon="11.01521257">
4281 <ele>447.0</ele>
4282 <time>2017-09-02T05:41:59Z</time>
4283 <cmt><![CDATA[compass: 129.0975341796875
4284 compAccuracy: 0]]></cmt>
4285 <extensions>
4286 <speed>0.7599999904632568</speed>
4287 </extensions>
4288 </trkpt>
4289 <trkpt lat="48.74521702" lon="11.01520032">
4290 <ele>447.0</ele>
4291 <time>2017-09-02T05:42:00Z</time>
4292 <cmt><![CDATA[compass: 41.652191162109375
4293 compAccuracy: 0]]></cmt>
4294 <extensions>
4295 <speed>0.7699999809265137</speed>
4296 </extensions>
4297 </trkpt>
4298 <trkpt lat="48.74521814" lon="11.01518677">
4299 <ele>445.0</ele>
4300 <time>2017-09-02T05:42:01Z</time>
4301 <cmt><![CDATA[compass: 50.335540771484375
4302 compAccuracy: 0]]></cmt>
4303 <extensions>
4304 <speed>0.8899999856948853</speed>
4305 </extensions>
4306 </trkpt>
4307 <trkpt lat="48.74521817" lon="11.01517277">
4308 <ele>444.0</ele>
4309 <time>2017-09-02T05:42:02Z</time>
4310 <cmt><![CDATA[compass: 303.6630859375
4311 compAccuracy: 0]]></cmt>
4312 <extensions>
4313 <speed>0.8899999856948853</speed>
4314 </extensions>
4315 </trkpt>
4316 <trkpt lat="48.7452114" lon="11.01515838">
4317 <ele>443.0</ele>
4318 <time>2017-09-02T05:42:03Z</time>
4319 <cmt><![CDATA[compass: 311.40631103515625
4320 compAccuracy: 0]]></cmt>
4321 <extensions>
4322 <speed>1.899999976158142</speed>
4323 </extensions>
4324 </trkpt>
4325 <trkpt lat="48.7452015" lon="11.01514182">
4326 <ele>443.0</ele>
4327 <time>2017-09-02T05:42:04Z</time>
4328 <cmt><![CDATA[compass: 291.92535400390625
4329 compAccuracy: 0]]></cmt>
4330 <extensions>
4331 <speed>1.5</speed>
4332 </extensions>
4333 </trkpt>
4334 <trkpt lat="48.74519286" lon="11.01512634">
4335 <ele>443.0</ele>
4336 <time>2017-09-02T05:42:05Z</time>
4337 <cmt><![CDATA[compass: 290.5744934082031
4338 compAccuracy: 0]]></cmt>
4339 <extensions>
4340 <speed>1.5199999809265137</speed>
4341 </extensions>
4342 </trkpt>
4343 <trkpt lat="48.74518709" lon="11.01510729">
4344 <ele>443.0</ele>
4345 <time>2017-09-02T05:42:06Z</time>
4346 <cmt><![CDATA[compass: 285.069091796875
4347 compAccuracy: 0]]></cmt>
4348 <extensions>
4349 <speed>1.6200000047683716</speed>
4350 </extensions>
4351 </trkpt>
4352 <trkpt lat="48.74518214" lon="11.01508127">
4353 <ele>443.0</ele>
4354 <time>2017-09-02T05:42:07Z</time>
4355 <cmt><![CDATA[compass: 293.4073181152344
4356 compAccuracy: 0]]></cmt>
4357 <extensions>
4358 <speed>1.9600000381469727</speed>
4359 </extensions>
4360 </trkpt>
4361 <trkpt lat="48.74517474" lon="11.01505658">
4362 <ele>442.0</ele>
4363 <time>2017-09-02T05:42:08Z</time>
4364 <cmt><![CDATA[compass: 312.17486572265625
4365 compAccuracy: 0]]></cmt>
4366 <extensions>
4367 <speed>1.5399999618530273</speed>
4368 </extensions>
4369 </trkpt>
4370 <trkpt lat="48.74516618" lon="11.01503648">
4371 <ele>442.0</ele>
4372 <time>2017-09-02T05:42:09Z</time>
4373 <cmt><![CDATA[compass: 305.7664794921875
4374 compAccuracy: 0]]></cmt>
4375 <extensions>
4376 <speed>1.5399999618530273</speed>
4377 </extensions>
4378 </trkpt>
4379 <trkpt lat="48.74515203" lon="11.01501736">
4380 <ele>440.0</ele>
4381 <time>2017-09-02T05:42:10Z</time>
4382 <cmt><![CDATA[compass: 329.66400146484375
4383 compAccuracy: 0]]></cmt>
4384 <extensions>
4385 <speed>1.8600000143051147</speed>
4386 </extensions>
4387 </trkpt>
4388 <trkpt lat="48.74513182" lon="11.01499447">
4389 <ele>440.0</ele>
4390 <time>2017-09-02T05:42:11Z</time>
4391 <cmt><![CDATA[compass: 320.9622802734375
4392 compAccuracy: 0]]></cmt>
4393 <extensions>
4394 <speed>2.6500000953674316</speed>
4395 </extensions>
4396 </trkpt>
4397 <trkpt lat="48.74511191" lon="11.0149702">
4398 <ele>440.0</ele>
4399 <time>2017-09-02T05:42:12Z</time>
4400 <cmt><![CDATA[compass: 316.87225341796875
4401 compAccuracy: 0]]></cmt>
4402 <extensions>
4403 <speed>2.369999885559082</speed>
4404 </extensions>
4405 </trkpt>
4406 <trkpt lat="48.74509485" lon="11.01494646">
4407 <ele>440.0</ele>
4408 <time>2017-09-02T05:42:13Z</time>
4409 <cmt><![CDATA[compass: 313.6373291015625
4410 compAccuracy: 0]]></cmt>
4411 <extensions>
4412 <speed>2.369999885559082</speed>
4413 </extensions>
4414 </trkpt>
4415 <trkpt lat="48.74508646" lon="11.01492245">
4416 <ele>446.0</ele>
4417 <time>2017-09-02T05:42:14Z</time>
4418 <cmt><![CDATA[compass: 311.61175537109375
4419 compAccuracy: 0]]></cmt>
4420 <extensions>
4421 <speed>1.8600000143051147</speed>
4422 </extensions>
4423 </trkpt>
4424 <trkpt lat="48.74508246" lon="11.01489366">
4425 <ele>444.0</ele>
4426 <time>2017-09-02T05:42:15Z</time>
4427 <cmt><![CDATA[compass: 317.4652099609375
4428 compAccuracy: 0]]></cmt>
4429 <extensions>
4430 <speed>2.309999942779541</speed>
4431 </extensions>
4432 </trkpt>
4433 <trkpt lat="48.74508777" lon="11.01486892">
4434 <ele>443.0</ele>
4435 <time>2017-09-02T05:42:16Z</time>
4436 <cmt><![CDATA[compass: 319.83746337890625
4437 compAccuracy: 0]]></cmt>
4438 <extensions>
4439 <speed>1.5299999713897705</speed>
4440 </extensions>
4441 </trkpt>
4442 <trkpt lat="48.74509724" lon="11.01484509">
4443 <ele>442.0</ele>
4444 <time>2017-09-02T05:42:17Z</time>
4445 <cmt><![CDATA[compass: 312.9683532714844
4446 compAccuracy: 0]]></cmt>
4447 <extensions>
4448 <speed>1.9600000381469727</speed>
4449 </extensions>
4450 </trkpt>
4451 <trkpt lat="48.74510365" lon="11.0148214">
4452 <ele>442.0</ele>
4453 <time>2017-09-02T05:42:18Z</time>
4454 <cmt><![CDATA[compass: 293.4369812011719
4455 compAccuracy: 0]]></cmt>
4456 <extensions>
4457 <speed>1.7100000381469727</speed>
4458 </extensions>
4459 </trkpt>
4460 <trkpt lat="48.74510398" lon="11.01480392">
4461 <ele>439.0</ele>
4462 <time>2017-09-02T05:42:19Z</time>
4463 <cmt><![CDATA[compass: 293.4369812011719
4464 compAccuracy: 0]]></cmt>
4465 <extensions>
4466 <speed>1.4299999475479126</speed>
4467 </extensions>
4468 </trkpt>
4469 <trkpt lat="48.7450999" lon="11.01479474">
4470 <ele>440.0</ele>
4471 <time>2017-09-02T05:42:20Z</time>
4472 <cmt><![CDATA[compass: 293.4369812011719
4473 compAccuracy: 0]]></cmt>
4474 <extensions>
4475 <speed>0.5299999713897705</speed>
4476 </extensions>
4477 </trkpt>
4478 <trkpt lat="48.74509467" lon="11.01479309">
4479 <ele>440.0</ele>
4480 <time>2017-09-02T05:42:21Z</time>
4481 <cmt><![CDATA[compass: 298.53082275390625
4482 compAccuracy: 0]]></cmt>
4483 <extensions>
4484 <speed>0.5299999713897705</speed>
4485 </extensions>
4486 </trkpt>
4487 <trkpt lat="48.74508901" lon="11.01478848">
4488 <ele>440.0</ele>
4489 <time>2017-09-02T05:42:22Z</time>
4490 <cmt><![CDATA[compass: 34.91204833984375
4491 compAccuracy: 0]]></cmt>
4492 <extensions>
4493 <speed>0.699999988079071</speed>
4494 </extensions>
4495 </trkpt>
4496 <trkpt lat="48.7450817" lon="11.01477728">
4497 <ele>441.0</ele>
4498 <time>2017-09-02T05:42:23Z</time>
4499 <cmt><![CDATA[compass: 90.27679443359375
4500 compAccuracy: 0]]></cmt>
4501 <extensions>
4502 <speed>1.2599999904632568</speed>
4503 </extensions>
4504 </trkpt>
4505 <trkpt lat="48.7450726" lon="11.01476231">
4506 <ele>441.0</ele>
4507 <time>2017-09-02T05:42:24Z</time>
4508 <cmt><![CDATA[compass: 78.544189453125
4509 compAccuracy: 0]]></cmt>
4510 <extensions>
4511 <speed>1.3300000429153442</speed>
4512 </extensions>
4513 </trkpt>
4514 <trkpt lat="48.74506597" lon="11.01475034">
4515 <ele>440.0</ele>
4516 <time>2017-09-02T05:42:25Z</time>
4517 <cmt><![CDATA[compass: 130.40093994140625
4518 compAccuracy: 0]]></cmt>
4519 <extensions>
4520 <speed>0.7699999809265137</speed>
4521 </extensions>
4522 </trkpt>
4523 <trkpt lat="48.74506032" lon="11.01474185">
4524 <ele>440.0</ele>
4525 <time>2017-09-02T05:42:26Z</time>
4526 <cmt><![CDATA[compass: 133.27752685546875
4527 compAccuracy: 0]]></cmt>
4528 <extensions>
4529 <speed>1.309999942779541</speed>
4530 </extensions>
4531 </trkpt>
4532 <trkpt lat="48.74505456" lon="11.01472723">
4533 <ele>441.0</ele>
4534 <time>2017-09-02T05:42:27Z</time>
4535 <cmt><![CDATA[compass: 138.9593505859375
4536 compAccuracy: 0]]></cmt>
4537 <extensions>
4538 <speed>1.3700000047683716</speed>
4539 </extensions>
4540 </trkpt>
4541 <trkpt lat="48.7450517" lon="11.01471414">
4542 <ele>443.0</ele>
4543 <time>2017-09-02T05:42:28Z</time>
4544 <cmt><![CDATA[compass: 141.889892578125
4545 compAccuracy: 0]]></cmt>
4546 <extensions>
4547 <speed>0.5099999904632568</speed>
4548 </extensions>
4549 </trkpt>
4550 <trkpt lat="48.74505051" lon="11.01470675">
4551 <ele>442.0</ele>
4552 <time>2017-09-02T05:42:29Z</time>
4553 <cmt><![CDATA[compass: 144.5775146484375
4554 compAccuracy: 0]]></cmt>
4555 <extensions>
4556 <speed>0.6600000262260437</speed>
4557 </extensions>
4558 </trkpt>
4559 <trkpt lat="48.74504771" lon="11.014698">
4560 <ele>443.0</ele>
4561 <time>2017-09-02T05:42:30Z</time>
4562 <cmt><![CDATA[compass: 119.20413208007812
4563 compAccuracy: 0]]></cmt>
4564 <extensions>
4565 <speed>0.8299999833106995</speed>
4566 </extensions>
4567 </trkpt>
4568 <trkpt lat="48.74504113" lon="11.01468939">
4569 <ele>443.0</ele>
4570 <time>2017-09-02T05:42:31Z</time>
4571 <cmt><![CDATA[compass: 84.36001586914062
4572 compAccuracy: 0]]></cmt>
4573 <extensions>
4574 <speed>1.2599999904632568</speed>
4575 </extensions>
4576 </trkpt>
4577 <trkpt lat="48.74503202" lon="11.01468508">
4578 <ele>442.0</ele>
4579 <time>2017-09-02T05:42:32Z</time>
4580 <cmt><![CDATA[compass: 60.640716552734375
4581 compAccuracy: 0]]></cmt>
4582 <extensions>
4583 <speed>1.2100000381469727</speed>
4584 </extensions>
4585 </trkpt>
4586 <trkpt lat="48.74502233" lon="11.01468081">
4587 <ele>442.0</ele>
4588 <time>2017-09-02T05:42:33Z</time>
4589 <cmt><![CDATA[compass: 340.5825500488281
4590 compAccuracy: 0]]></cmt>
4591 <extensions>
4592 <speed>1.600000023841858</speed>
4593 </extensions>
4594 </trkpt>
4595 <trkpt lat="48.74501124" lon="11.01467791">
4596 <ele>442.0</ele>
4597 <time>2017-09-02T05:42:34Z</time>
4598 <cmt><![CDATA[compass: 340.74114990234375
4599 compAccuracy: 0]]></cmt>
4600 <extensions>
4601 <speed>1.3300000429153442</speed>
4602 </extensions>
4603 </trkpt>
4604 <trkpt lat="48.74500078" lon="11.01467799">
4605 <ele>442.0</ele>
4606 <time>2017-09-02T05:42:35Z</time>
4607 <cmt><![CDATA[compass: 335.1664733886719
4608 compAccuracy: 0]]></cmt>
4609 <extensions>
4610 <speed>1.309999942779541</speed>
4611 </extensions>
4612 </trkpt>
4613 <trkpt lat="48.74498969" lon="11.01468235">
4614 <ele>442.0</ele>
4615 <time>2017-09-02T05:42:36Z</time>
4616 <cmt><![CDATA[compass: 11.82977294921875
4617 compAccuracy: 0]]></cmt>
4618 <extensions>
4619 <speed>1.4800000190734863</speed>
4620 </extensions>
4621 </trkpt>
4622 <trkpt lat="48.74497776" lon="11.01468859">
4623 <ele>443.0</ele>
4624 <time>2017-09-02T05:42:37Z</time>
4625 <cmt><![CDATA[compass: 355.1297302246094
4626 compAccuracy: 0]]></cmt>
4627 <extensions>
4628 <speed>1.4600000381469727</speed>
4629 </extensions>
4630 </trkpt>
4631 <trkpt lat="48.74496735" lon="11.01469509">
4632 <ele>442.0</ele>
4633 <time>2017-09-02T05:42:38Z</time>
4634 <cmt><![CDATA[compass: 347.5418701171875
4635 compAccuracy: 0]]></cmt>
4636 <extensions>
4637 <speed>1.4299999475479126</speed>
4638 </extensions>
4639 </trkpt>
4640 <trkpt lat="48.74495766" lon="11.01470198">
4641 <ele>442.0</ele>
4642 <time>2017-09-02T05:42:39Z</time>
4643 <cmt><![CDATA[compass: 349.97216796875
4644 compAccuracy: 0]]></cmt>
4645 <extensions>
4646 <speed>1.3700000047683716</speed>
4647 </extensions>
4648 </trkpt>
4649 <trkpt lat="48.74494835" lon="11.01470982">
4650 <ele>442.0</ele>
4651 <time>2017-09-02T05:42:40Z</time>
4652 <cmt><![CDATA[compass: 27.5386962890625
4653 compAccuracy: 0]]></cmt>
4654 <extensions>
4655 <speed>1.4700000286102295</speed>
4656 </extensions>
4657 </trkpt>
4658 <trkpt lat="48.74493774" lon="11.01471707">
4659 <ele>442.0</ele>
4660 <time>2017-09-02T05:42:41Z</time>
4661 <cmt><![CDATA[compass: 343.57318115234375
4662 compAccuracy: 0]]></cmt>
4663 <extensions>
4664 <speed>1.5499999523162842</speed>
4665 </extensions>
4666 </trkpt>
4667 <trkpt lat="48.74492768" lon="11.01472399">
4668 <ele>441.0</ele>
4669 <time>2017-09-02T05:42:42Z</time>
4670 <cmt><![CDATA[compass: 346.0105285644531
4671 compAccuracy: 0]]></cmt>
4672 <extensions>
4673 <speed>1.4900000095367432</speed>
4674 </extensions>
4675 </trkpt>
4676 <trkpt lat="48.74491698" lon="11.01473234">
4677 <ele>441.0</ele>
4678 <time>2017-09-02T05:42:43Z</time>
4679 <cmt><![CDATA[compass: 321.44598388671875
4680 compAccuracy: 0]]></cmt>
4681 <extensions>
4682 <speed>1.600000023841858</speed>
4683 </extensions>
4684 </trkpt>
4685 <trkpt lat="48.74490681" lon="11.01474392">
4686 <ele>441.0</ele>
4687 <time>2017-09-02T05:42:44Z</time>
4688 <cmt><![CDATA[compass: 333.1317443847656
4689 compAccuracy: 0]]></cmt>
4690 <extensions>
4691 <speed>1.5</speed>
4692 </extensions>
4693 </trkpt>
4694 <trkpt lat="48.74489746" lon="11.01475761">
4695 <ele>442.0</ele>
4696 <time>2017-09-02T05:42:45Z</time>
4697 <cmt><![CDATA[compass: 355.65386962890625
4698 compAccuracy: 0]]></cmt>
4699 <extensions>
4700 <speed>1.4800000190734863</speed>
4701 </extensions>
4702 </trkpt>
4703 <trkpt lat="48.74488682" lon="11.01476949">
4704 <ele>442.0</ele>
4705 <time>2017-09-02T05:42:46Z</time>
4706 <cmt><![CDATA[compass: 334.7489013671875
4707 compAccuracy: 0]]></cmt>
4708 <extensions>
4709 <speed>1.590000033378601</speed>
4710 </extensions>
4711 </trkpt>
4712 <trkpt lat="48.74487558" lon="11.0147804">
4713 <ele>442.0</ele>
4714 <time>2017-09-02T05:42:47Z</time>
4715 <cmt><![CDATA[compass: 324.3117370605469
4716 compAccuracy: 0]]></cmt>
4717 <extensions>
4718 <speed>1.4900000095367432</speed>
4719 </extensions>
4720 </trkpt>
4721 <trkpt lat="48.74486469" lon="11.01479164">
4722 <ele>442.0</ele>
4723 <time>2017-09-02T05:42:48Z</time>
4724 <cmt><![CDATA[compass: 324.3117370605469
4725 compAccuracy: 0]]></cmt>
4726 <extensions>
4727 <speed>1.4600000381469727</speed>
4728 </extensions>
4729 </trkpt>
4730 <trkpt lat="48.74485524" lon="11.01480426">
4731 <ele>441.0</ele>
4732 <time>2017-09-02T05:42:49Z</time>
4733 <cmt><![CDATA[compass: 324.3117370605469
4734 compAccuracy: 0]]></cmt>
4735 <extensions>
4736 <speed>1.3600000143051147</speed>
4737 </extensions>
4738 </trkpt>
4739 <trkpt lat="48.74484395" lon="11.01481833">
4740 <ele>442.0</ele>
4741 <time>2017-09-02T05:42:50Z</time>
4742 <cmt><![CDATA[compass: 352.3514709472656
4743 compAccuracy: 0]]></cmt>
4744 <extensions>
4745 <speed>1.7000000476837158</speed>
4746 </extensions>
4747 </trkpt>
4748 <trkpt lat="48.74483157" lon="11.01483434">
4749 <ele>442.0</ele>
4750 <time>2017-09-02T05:42:51Z</time>
4751 <cmt><![CDATA[compass: 9.257568359375
4752 compAccuracy: 0]]></cmt>
4753 <extensions>
4754 <speed>1.75</speed>
4755 </extensions>
4756 </trkpt>
4757 <trkpt lat="48.74481869" lon="11.01485037">
4758 <ele>443.0</ele>
4759 <time>2017-09-02T05:42:52Z</time>
4760 <cmt><![CDATA[compass: 354.9518737792969
4761 compAccuracy: 0]]></cmt>
4762 <extensions>
4763 <speed>1.7599999904632568</speed>
4764 </extensions>
4765 </trkpt>
4766 <trkpt lat="48.74480694" lon="11.01486355">
4767 <ele>442.0</ele>
4768 <time>2017-09-02T05:42:53Z</time>
4769 <cmt><![CDATA[compass: 304.28668212890625
4770 compAccuracy: 0]]></cmt>
4771 <extensions>
4772 <speed>1.2899999618530273</speed>
4773 </extensions>
4774 </trkpt>
4775 <trkpt lat="48.74479488" lon="11.0148761">
4776 <ele>442.0</ele>
4777 <time>2017-09-02T05:42:54Z</time>
4778 <cmt><![CDATA[compass: 327.4373779296875
4779 compAccuracy: 0]]></cmt>
4780 <extensions>
4781 <speed>1.7300000190734863</speed>
4782 </extensions>
4783 </trkpt>
4784 <trkpt lat="48.74478067" lon="11.01488979">
4785 <ele>442.0</ele>
4786 <time>2017-09-02T05:42:55Z</time>
4787 <cmt><![CDATA[compass: 325.3257141113281
4788 compAccuracy: 0]]></cmt>
4789 <extensions>
4790 <speed>1.7799999713897705</speed>
4791 </extensions>
4792 </trkpt>
4793 <trkpt lat="48.74476794" lon="11.01490313">
4794 <ele>442.0</ele>
4795 <time>2017-09-02T05:42:56Z</time>
4796 <cmt><![CDATA[compass: 348.84271240234375
4797 compAccuracy: 0]]></cmt>
4798 <extensions>
4799 <speed>1.5099999904632568</speed>
4800 </extensions>
4801 </trkpt>
4802 <trkpt lat="48.74475943" lon="11.01491322">
4803 <ele>442.0</ele>
4804 <time>2017-09-02T05:42:57Z</time>
4805 <cmt><![CDATA[compass: 352.1864929199219
4806 compAccuracy: 0]]></cmt>
4807 <extensions>
4808 <speed>0.8199999928474426</speed>
4809 </extensions>
4810 </trkpt>
4811 <trkpt lat="48.74475303" lon="11.01492285">
4812 <ele>442.0</ele>
4813 <time>2017-09-02T05:42:58Z</time>
4814 <cmt><![CDATA[compass: 342.2570495605469
4815 compAccuracy: 0]]></cmt>
4816 <extensions>
4817 <speed>1.1100000143051147</speed>
4818 </extensions>
4819 </trkpt>
4820 <trkpt lat="48.74474373" lon="11.0149311">
4821 <ele>442.0</ele>
4822 <time>2017-09-02T05:42:59Z</time>
4823 <cmt><![CDATA[compass: 345.4228210449219
4824 compAccuracy: 0]]></cmt>
4825 <extensions>
4826 <speed>1.2400000095367432</speed>
4827 </extensions>
4828 </trkpt>
4829 <trkpt lat="48.74473649" lon="11.01493379">
4830 <ele>440.0</ele>
4831 <time>2017-09-02T05:43:00Z</time>
4832 <cmt><![CDATA[compass: 286.056396484375
4833 compAccuracy: 0]]></cmt>
4834 <extensions>
4835 <speed>0.38999998569488525</speed>
4836 </extensions>
4837 </trkpt>
4838 <trkpt lat="48.74472838" lon="11.014932">
4839 <ele>439.0</ele>
4840 <time>2017-09-02T05:43:01Z</time>
4841 <cmt><![CDATA[compass: 11.895721435546875
4842 compAccuracy: 0]]></cmt>
4843 <extensions>
4844 <speed>0.8500000238418579</speed>
4845 </extensions>
4846 </trkpt>
4847 <trkpt lat="48.74471695" lon="11.014932">
4848 <ele>440.0</ele>
4849 <time>2017-09-02T05:43:02Z</time>
4850 <cmt><![CDATA[compass: 101.72125244140625
4851 compAccuracy: 0]]></cmt>
4852 <extensions>
4853 <speed>1.1699999570846558</speed>
4854 </extensions>
4855 </trkpt>
4856 <trkpt lat="48.744705" lon="11.01493472">
4857 <ele>440.0</ele>
4858 <time>2017-09-02T05:43:03Z</time>
4859 <cmt><![CDATA[compass: 66.55941772460938
4860 compAccuracy: 0]]></cmt>
4861 <extensions>
4862 <speed>1.2799999713897705</speed>
4863 </extensions>
4864 </trkpt>
4865 <trkpt lat="48.74469365" lon="11.0149362">
4866 <ele>440.0</ele>
4867 <time>2017-09-02T05:43:04Z</time>
4868 <cmt><![CDATA[compass: 71.31597900390625
4869 compAccuracy: 0]]></cmt>
4870 <extensions>
4871 <speed>1.059999942779541</speed>
4872 </extensions>
4873 </trkpt>
4874 <trkpt lat="48.7446827" lon="11.0149351">
4875 <ele>440.0</ele>
4876 <time>2017-09-02T05:43:05Z</time>
4877 <cmt><![CDATA[compass: 63.8489990234375
4878 compAccuracy: 0]]></cmt>
4879 <extensions>
4880 <speed>1.0800000429153442</speed>
4881 </extensions>
4882 </trkpt>
4883 <trkpt lat="48.74467419" lon="11.01493388">
4884 <ele>440.0</ele>
4885 <time>2017-09-02T05:43:06Z</time>
4886 <cmt><![CDATA[compass: 55.699615478515625
4887 compAccuracy: 0]]></cmt>
4888 <extensions>
4889 <speed>0.7099999785423279</speed>
4890 </extensions>
4891 </trkpt>
4892 <trkpt lat="48.74467132" lon="11.01493133">
4893 <ele>441.0</ele>
4894 <time>2017-09-02T05:43:07Z</time>
4895 <cmt><![CDATA[compass: 52.7403564453125
4896 compAccuracy: 0]]></cmt>
4897 <extensions>
4898 <speed>0.0</speed>
4899 </extensions>
4900 </trkpt>
4901 <trkpt lat="48.74466992" lon="11.01493011">
4902 <ele>442.0</ele>
4903 <time>2017-09-02T05:43:08Z</time>
4904 <cmt><![CDATA[compass: 54.5716552734375
4905 compAccuracy: 0]]></cmt>
4906 <extensions>
4907 <speed>0.0</speed>
4908 </extensions>
4909 </trkpt>
4910 <trkpt lat="48.74466824" lon="11.01493141">
4911 <ele>442.0</ele>
4912 <time>2017-09-02T05:43:09Z</time>
4913 <cmt><![CDATA[compass: 54.074981689453125
4914 compAccuracy: 0]]></cmt>
4915 <extensions>
4916 <speed>0.0</speed>
4917 </extensions>
4918 </trkpt>
4919 <trkpt lat="48.74466342" lon="11.01493399">
4920 <ele>443.0</ele>
4921 <time>2017-09-02T05:43:10Z</time>
4922 <cmt><![CDATA[compass: 51.360443115234375
4923 compAccuracy: 0]]></cmt>
4924 <extensions>
4925 <speed>0.0</speed>
4926 </extensions>
4927 </trkpt>
4928 <trkpt lat="48.74466239" lon="11.01493417">
4929 <ele>443.0</ele>
4930 <time>2017-09-02T05:43:11Z</time>
4931 <cmt><![CDATA[compass: 51.060333251953125
4932 compAccuracy: 0]]></cmt>
4933 <extensions>
4934 <speed>0.0</speed>
4935 </extensions>
4936 </trkpt>
4937 <trkpt lat="48.74466365" lon="11.01493486">
4938 <ele>443.0</ele>
4939 <time>2017-09-02T05:43:12Z</time>
4940 <cmt><![CDATA[compass: 49.08087158203125
4941 compAccuracy: 0]]></cmt>
4942 <extensions>
4943 <speed>0.0</speed>
4944 </extensions>
4945 </trkpt>
4946 <trkpt lat="48.74466156" lon="11.01493424">
4947 <ele>443.0</ele>
4948 <time>2017-09-02T05:43:13Z</time>
4949 <cmt><![CDATA[compass: 49.229248046875
4950 compAccuracy: 0]]></cmt>
4951 <extensions>
4952 <speed>0.0</speed>
4953 </extensions>
4954 </trkpt>
4955 <trkpt lat="48.74466015" lon="11.0149348">
4956 <ele>442.0</ele>
4957 <time>2017-09-02T05:43:14Z</time>
4958 <cmt><![CDATA[compass: 54.017608642578125
4959 compAccuracy: 0]]></cmt>
4960 <extensions>
4961 <speed>0.0</speed>
4962 </extensions>
4963 </trkpt>
4964 <trkpt lat="48.74465828" lon="11.01493928">
4965 <ele>442.0</ele>
4966 <time>2017-09-02T05:43:15Z</time>
4967 <cmt><![CDATA[compass: 9.95635986328125
4968 compAccuracy: 0]]></cmt>
4969 <extensions>
4970 <speed>0.6499999761581421</speed>
4971 </extensions>
4972 </trkpt>
4973 <trkpt lat="48.74465384" lon="11.01494449">
4974 <ele>442.0</ele>
4975 <time>2017-09-02T05:43:16Z</time>
4976 <cmt><![CDATA[compass: 199.82113647460938
4977 compAccuracy: 0]]></cmt>
4978 <extensions>
4979 <speed>0.6299999952316284</speed>
4980 </extensions>
4981 </trkpt>
4982 <trkpt lat="48.74465" lon="11.01495338">
4983 <ele>442.0</ele>
4984 <time>2017-09-02T05:43:17Z</time>
4985 <cmt><![CDATA[compass: 205.4596405029297
4986 compAccuracy: 0]]></cmt>
4987 <extensions>
4988 <speed>0.9200000166893005</speed>
4989 </extensions>
4990 </trkpt>
4991 <trkpt lat="48.74464761" lon="11.01496731">
4992 <ele>442.0</ele>
4993 <time>2017-09-02T05:43:18Z</time>
4994 <cmt><![CDATA[compass: 205.36431884765625
4995 compAccuracy: 0]]></cmt>
4996 <extensions>
4997 <speed>1.1799999475479126</speed>
4998 </extensions>
4999 </trkpt>
5000 <trkpt lat="48.74464649" lon="11.01497961">
5001 <ele>441.0</ele>
5002 <time>2017-09-02T05:43:19Z</time>
5003 <cmt><![CDATA[compass: 259.7729797363281
5004 compAccuracy: 0]]></cmt>
5005 <extensions>
5006 <speed>0.6100000143051147</speed>
5007 </extensions>
5008 </trkpt>
5009 <trkpt lat="48.74464313" lon="11.01499467">
5010 <ele>442.0</ele>
5011 <time>2017-09-02T05:43:20Z</time>
5012 <cmt><![CDATA[compass: 264.3276672363281
5013 compAccuracy: 0]]></cmt>
5014 <extensions>
5015 <speed>1.6299999952316284</speed>
5016 </extensions>
5017 </trkpt>
5018 <trkpt lat="48.74463646" lon="11.01501285">
5019 <ele>441.0</ele>
5020 <time>2017-09-02T05:43:21Z</time>
5021 <cmt><![CDATA[compass: 240.02609252929688
5022 compAccuracy: 0]]></cmt>
5023 <extensions>
5024 <speed>1.2400000095367432</speed>
5025 </extensions>
5026 </trkpt>
5027 <trkpt lat="48.74462841" lon="11.01502837">
5028 <ele>441.0</ele>
5029 <time>2017-09-02T05:43:22Z</time>
5030 <cmt><![CDATA[compass: 242.2630615234375
5031 compAccuracy: 0]]></cmt>
5032 <extensions>
5033 <speed>1.3799999952316284</speed>
5034 </extensions>
5035 </trkpt>
5036 <trkpt lat="48.74461873" lon="11.01504219">
5037 <ele>441.0</ele>
5038 <time>2017-09-02T05:43:23Z</time>
5039 <cmt><![CDATA[compass: 284.5608825683594
5040 compAccuracy: 0]]></cmt>
5041 <extensions>
5042 <speed>1.2200000286102295</speed>
5043 </extensions>
5044 </trkpt>
5045 <trkpt lat="48.74460957" lon="11.0150526">
5046 <ele>441.0</ele>
5047 <time>2017-09-02T05:43:24Z</time>
5048 <cmt><![CDATA[compass: 242.27247619628906
5049 compAccuracy: 0]]></cmt>
5050 <extensions>
5051 <speed>0.9800000190734863</speed>
5052 </extensions>
5053 </trkpt>
5054 <trkpt lat="48.74459903" lon="11.01506393">
5055 <ele>442.0</ele>
5056 <time>2017-09-02T05:43:25Z</time>
5057 <cmt><![CDATA[compass: 251.43983459472656
5058 compAccuracy: 0]]></cmt>
5059 <extensions>
5060 <speed>1.409999966621399</speed>
5061 </extensions>
5062 </trkpt>
5063 <trkpt lat="48.74458612" lon="11.01507867">
5064 <ele>443.0</ele>
5065 <time>2017-09-02T05:43:26Z</time>
5066 <cmt><![CDATA[compass: 253.86331176757812
5067 compAccuracy: 0]]></cmt>
5068 <extensions>
5069 <speed>1.4900000095367432</speed>
5070 </extensions>
5071 </trkpt>
5072 <trkpt lat="48.74457435" lon="11.01509312">
5073 <ele>444.0</ele>
5074 <time>2017-09-02T05:43:27Z</time>
5075 <cmt><![CDATA[compass: 267.2266540527344
5076 compAccuracy: 0]]></cmt>
5077 <extensions>
5078 <speed>1.0099999904632568</speed>
5079 </extensions>
5080 </trkpt>
5081 <trkpt lat="48.7445644" lon="11.01510905">
5082 <ele>445.0</ele>
5083 <time>2017-09-02T05:43:28Z</time>
5084 <cmt><![CDATA[compass: 205.94384765625
5085 compAccuracy: 0]]></cmt>
5086 <extensions>
5087 <speed>1.3700000047683716</speed>
5088 </extensions>
5089 </trkpt>
5090 <trkpt lat="48.74455662" lon="11.01512243">
5091 <ele>446.0</ele>
5092 <time>2017-09-02T05:43:29Z</time>
5093 <cmt><![CDATA[compass: 1.107818603515625
5094 compAccuracy: 0]]></cmt>
5095 <extensions>
5096 <speed>0.8100000023841858</speed>
5097 </extensions>
5098 </trkpt>
5099 <trkpt lat="48.74454947" lon="11.01513395">
5100 <ele>446.0</ele>
5101 <time>2017-09-02T05:43:30Z</time>
5102 <cmt><![CDATA[compass: 21.63751220703125
5103 compAccuracy: 0]]></cmt>
5104 <extensions>
5105 <speed>0.8299999833106995</speed>
5106 </extensions>
5107 </trkpt>
5108 <trkpt lat="48.7445418" lon="11.01514916">
5109 <ele>445.0</ele>
5110 <time>2017-09-02T05:43:31Z</time>
5111 <cmt><![CDATA[compass: 24.9844970703125
5112 compAccuracy: 0]]></cmt>
5113 <extensions>
5114 <speed>1.2999999523162842</speed>
5115 </extensions>
5116 </trkpt>
5117 <trkpt lat="48.74453132" lon="11.01516681">
5118 <ele>445.0</ele>
5119 <time>2017-09-02T05:43:32Z</time>
5120 <cmt><![CDATA[compass: 39.438568115234375
5121 compAccuracy: 0]]></cmt>
5122 <extensions>
5123 <speed>1.4199999570846558</speed>
5124 </extensions>
5125 </trkpt>
5126 <trkpt lat="48.74451455" lon="11.01519413">
5127 <ele>445.0</ele>
5128 <time>2017-09-02T05:43:36Z</time>
5129 <cmt><![CDATA[compass: 43.817626953125
5130 compAccuracy: 0]]></cmt>
5131 <extensions>
5132 <speed>0.0</speed>
5133 </extensions>
5134 </trkpt>
5135 <trkpt lat="48.74451472" lon="11.01519504">
5136 <ele>445.0</ele>
5137 <time>2017-09-02T05:43:37Z</time>
5138 <cmt><![CDATA[compass: 43.03985595703125
5139 compAccuracy: 0]]></cmt>
5140 <extensions>
5141 <speed>0.0</speed>
5142 </extensions>
5143 </trkpt>
5144 <trkpt lat="48.74451562" lon="11.01519892">
5145 <ele>444.0</ele>
5146 <time>2017-09-02T05:43:38Z</time>
5147 <cmt><![CDATA[compass: 43.46697998046875
5148 compAccuracy: 0]]></cmt>
5149 <extensions>
5150 <speed>0.0</speed>
5151 </extensions>
5152 </trkpt>
5153 <trkpt lat="48.74451531" lon="11.0152011">
5154 <ele>444.0</ele>
5155 <time>2017-09-02T05:43:39Z</time>
5156 <cmt><![CDATA[compass: 87.54745483398438
5157 compAccuracy: 0]]></cmt>
5158 <extensions>
5159 <speed>0.3400000035762787</speed>
5160 </extensions>
5161 </trkpt>
5162 <trkpt lat="48.74451482" lon="11.01520476">
5163 <ele>444.0</ele>
5164 <time>2017-09-02T05:43:40Z</time>
5165 <cmt><![CDATA[compass: 81.12225341796875
5166 compAccuracy: 0]]></cmt>
5167 <extensions>
5168 <speed>0.0</speed>
5169 </extensions>
5170 </trkpt>
5171 <trkpt lat="48.74451511" lon="11.0152093">
5172 <ele>444.0</ele>
5173 <time>2017-09-02T05:43:41Z</time>
5174 <cmt><![CDATA[compass: 80.14962768554688
5175 compAccuracy: 0]]></cmt>
5176 <extensions>
5177 <speed>0.0</speed>
5178 </extensions>
5179 </trkpt>
5180 <trkpt lat="48.74451531" lon="11.01521364">
5181 <ele>444.0</ele>
5182 <time>2017-09-02T05:43:42Z</time>
5183 <cmt><![CDATA[compass: 79.12051391601562
5184 compAccuracy: 0]]></cmt>
5185 <extensions>
5186 <speed>0.0</speed>
5187 </extensions>
5188 </trkpt>
5189 <trkpt lat="48.74451558" lon="11.01521735">
5190 <ele>444.0</ele>
5191 <time>2017-09-02T05:43:43Z</time>
5192 <cmt><![CDATA[compass: 80.19879150390625
5193 compAccuracy: 0]]></cmt>
5194 <extensions>
5195 <speed>0.0</speed>
5196 </extensions>
5197 </trkpt>
5198 <trkpt lat="48.74451564" lon="11.01522006">
5199 <ele>444.0</ele>
5200 <time>2017-09-02T05:43:44Z</time>
5201 <cmt><![CDATA[compass: 77.278076171875
5202 compAccuracy: 0]]></cmt>
5203 <extensions>
5204 <speed>0.0</speed>
5205 </extensions>
5206 </trkpt>
5207 <trkpt lat="48.74451549" lon="11.01522173">
5208 <ele>444.0</ele>
5209 <time>2017-09-02T05:43:45Z</time>
5210 <cmt><![CDATA[compass: 75.73159790039062
5211 compAccuracy: 0]]></cmt>
5212 <extensions>
5213 <speed>0.0</speed>
5214 </extensions>
5215 </trkpt>
5216 <trkpt lat="48.74451524" lon="11.01522253">
5217 <ele>444.0</ele>
5218 <time>2017-09-02T05:43:46Z</time>
5219 <cmt><![CDATA[compass: 77.10293579101562
5220 compAccuracy: 0]]></cmt>
5221 <extensions>
5222 <speed>0.0</speed>
5223 </extensions>
5224 </trkpt>
5225 <trkpt lat="48.74451677" lon="11.01522246">
5226 <ele>443.0</ele>
5227 <time>2017-09-02T05:43:47Z</time>
5228 <cmt><![CDATA[compass: 75.54165649414062
5229 compAccuracy: 0]]></cmt>
5230 <extensions>
5231 <speed>0.0</speed>
5232 </extensions>
5233 </trkpt>
5234 <trkpt lat="48.74451688" lon="11.01522278">
5235 <ele>443.0</ele>
5236 <time>2017-09-02T05:43:48Z</time>
5237 <cmt><![CDATA[compass: 74.9114990234375
5238 compAccuracy: 0]]></cmt>
5239 <extensions>
5240 <speed>0.0</speed>
5241 </extensions>
5242 </trkpt>
5243 <trkpt lat="48.74451718" lon="11.01522361">
5244 <ele>443.0</ele>
5245 <time>2017-09-02T05:43:49Z</time>
5246 <cmt><![CDATA[compass: 73.14926147460938
5247 compAccuracy: 0]]></cmt>
5248 <extensions>
5249 <speed>0.0</speed>
5250 </extensions>
5251 </trkpt>
5252 <trkpt lat="48.74451756" lon="11.01522428">
5253 <ele>443.0</ele>
5254 <time>2017-09-02T05:43:50Z</time>
5255 <cmt><![CDATA[compass: 74.94775390625
5256 compAccuracy: 0]]></cmt>
5257 <extensions>
5258 <speed>0.0</speed>
5259 </extensions>
5260 </trkpt>
5261 <trkpt lat="48.74451796" lon="11.01522468">
5262 <ele>443.0</ele>
5263 <time>2017-09-02T05:43:51Z</time>
5264 <cmt><![CDATA[compass: 73.925537109375
5265 compAccuracy: 0]]></cmt>
5266 <extensions>
5267 <speed>0.0</speed>
5268 </extensions>
5269 </trkpt>
5270 <trkpt lat="48.74451817" lon="11.01522489">
5271 <ele>443.0</ele>
5272 <time>2017-09-02T05:43:52Z</time>
5273 <cmt><![CDATA[compass: 73.63601684570312
5274 compAccuracy: 0]]></cmt>
5275 <extensions>
5276 <speed>0.0</speed>
5277 </extensions>
5278 </trkpt>
5279 <trkpt lat="48.74451828" lon="11.01522504">
5280 <ele>443.0</ele>
5281 <time>2017-09-02T05:43:53Z</time>
5282 <cmt><![CDATA[compass: 82.54791259765625
5283 compAccuracy: 0]]></cmt>
5284 <extensions>
5285 <speed>0.0</speed>
5286 </extensions>
5287 </trkpt>
5288 <trkpt lat="48.74452016" lon="11.01522933">
5289 <ele>443.0</ele>
5290 <time>2017-09-02T05:43:54Z</time>
5291 <cmt><![CDATA[compass: 218.2332305908203
5292 compAccuracy: 0]]></cmt>
5293 <extensions>
5294 <speed>0.7799999713897705</speed>
5295 </extensions>
5296 </trkpt>
5297 <trkpt lat="48.74452185" lon="11.01524026">
5298 <ele>444.0</ele>
5299 <time>2017-09-02T05:43:55Z</time>
5300 <cmt><![CDATA[compass: 185.14927673339844
5301 compAccuracy: 0]]></cmt>
5302 <extensions>
5303 <speed>0.8500000238418579</speed>
5304 </extensions>
5305 </trkpt>
5306 <trkpt lat="48.74452011" lon="11.01525352">
5307 <ele>443.0</ele>
5308 <time>2017-09-02T05:43:56Z</time>
5309 <cmt><![CDATA[compass: 251.4508819580078
5310 compAccuracy: 0]]></cmt>
5311 <extensions>
5312 <speed>1.159999966621399</speed>
5313 </extensions>
5314 </trkpt>
5315 <trkpt lat="48.74451582" lon="11.01526766">
5316 <ele>444.0</ele>
5317 <time>2017-09-02T05:43:57Z</time>
5318 <cmt><![CDATA[compass: 245.78257751464844
5319 compAccuracy: 0]]></cmt>
5320 <extensions>
5321 <speed>1.159999966621399</speed>
5322 </extensions>
5323 </trkpt>
5324 <trkpt lat="48.74450966" lon="11.0152783">
5325 <ele>444.0</ele>
5326 <time>2017-09-02T05:43:58Z</time>
5327 <cmt><![CDATA[compass: 224.0253143310547
5328 compAccuracy: 0]]></cmt>
5329 <extensions>
5330 <speed>0.8600000143051147</speed>
5331 </extensions>
5332 </trkpt>
5333 <trkpt lat="48.74450083" lon="11.01528612">
5334 <ele>444.0</ele>
5335 <time>2017-09-02T05:43:59Z</time>
5336 <cmt><![CDATA[compass: 236.289306640625
5337 compAccuracy: 0]]></cmt>
5338 <extensions>
5339 <speed>1.2999999523162842</speed>
5340 </extensions>
5341 </trkpt>
5342 <trkpt lat="48.74448838" lon="11.01529798">
5343 <ele>445.0</ele>
5344 <time>2017-09-02T05:44:00Z</time>
5345 <cmt><![CDATA[compass: 213.0598602294922
5346 compAccuracy: 0]]></cmt>
5347 <extensions>
5348 <speed>1.8700000047683716</speed>
5349 </extensions>
5350 </trkpt>
5351 <trkpt lat="48.74447806" lon="11.01531185">
5352 <ele>445.0</ele>
5353 <time>2017-09-02T05:44:01Z</time>
5354 <cmt><![CDATA[compass: 239.71043395996094
5355 compAccuracy: 0]]></cmt>
5356 <extensions>
5357 <speed>1.3600000143051147</speed>
5358 </extensions>
5359 </trkpt>
5360 <trkpt lat="48.74446898" lon="11.01532566">
5361 <ele>445.0</ele>
5362 <time>2017-09-02T05:44:02Z</time>
5363 <cmt><![CDATA[compass: 245.12344360351562
5364 compAccuracy: 0]]></cmt>
5365 <extensions>
5366 <speed>1.2100000381469727</speed>
5367 </extensions>
5368 </trkpt>
5369 <trkpt lat="48.7444633" lon="11.01533859">
5370 <ele>446.0</ele>
5371 <time>2017-09-02T05:44:03Z</time>
5372 <cmt><![CDATA[compass: 259.0206298828125
5373 compAccuracy: 0]]></cmt>
5374 <extensions>
5375 <speed>0.8700000047683716</speed>
5376 </extensions>
5377 </trkpt>
5378 <trkpt lat="48.74445754" lon="11.01534925">
5379 <ele>446.0</ele>
5380 <time>2017-09-02T05:44:04Z</time>
5381 <cmt><![CDATA[compass: 267.8194580078125
5382 compAccuracy: 0]]></cmt>
5383 <extensions>
5384 <speed>0.9200000166893005</speed>
5385 </extensions>
5386 </trkpt>
5387 <trkpt lat="48.7444496" lon="11.01536263">
5388 <ele>446.0</ele>
5389 <time>2017-09-02T05:44:05Z</time>
5390 <cmt><![CDATA[compass: 273.7227783203125
5391 compAccuracy: 0]]></cmt>
5392 <extensions>
5393 <speed>1.340000033378601</speed>
5394 </extensions>
5395 </trkpt>
5396 <trkpt lat="48.74444182" lon="11.01537448">
5397 <ele>447.0</ele>
5398 <time>2017-09-02T05:44:06Z</time>
5399 <cmt><![CDATA[compass: 248.7386016845703
5400 compAccuracy: 0]]></cmt>
5401 <extensions>
5402 <speed>0.9900000095367432</speed>
5403 </extensions>
5404 </trkpt>
5405 <trkpt lat="48.7444335" lon="11.01538474">
5406 <ele>446.0</ele>
5407 <time>2017-09-02T05:44:07Z</time>
5408 <cmt><![CDATA[compass: 253.6385498046875
5409 compAccuracy: 0]]></cmt>
5410 <extensions>
5411 <speed>1.3200000524520874</speed>
5412 </extensions>
5413 </trkpt>
5414 <trkpt lat="48.74442418" lon="11.01539859">
5415 <ele>446.0</ele>
5416 <time>2017-09-02T05:44:08Z</time>
5417 <cmt><![CDATA[compass: 259.01611328125
5418 compAccuracy: 0]]></cmt>
5419 <extensions>
5420 <speed>1.5099999904632568</speed>
5421 </extensions>
5422 </trkpt>
5423 <trkpt lat="48.74441369" lon="11.01541204">
5424 <ele>447.0</ele>
5425 <time>2017-09-02T05:44:09Z</time>
5426 <cmt><![CDATA[compass: 295.91864013671875
5427 compAccuracy: 0]]></cmt>
5428 <extensions>
5429 <speed>1.600000023841858</speed>
5430 </extensions>
5431 </trkpt>
5432 <trkpt lat="48.74440279" lon="11.01542311">
5433 <ele>447.0</ele>
5434 <time>2017-09-02T05:44:10Z</time>
5435 <cmt><![CDATA[compass: 272.9307556152344
5436 compAccuracy: 0]]></cmt>
5437 <extensions>
5438 <speed>1.4600000381469727</speed>
5439 </extensions>
5440 </trkpt>
5441 <trkpt lat="48.74439112" lon="11.01543133">
5442 <ele>448.0</ele>
5443 <time>2017-09-02T05:44:11Z</time>
5444 <cmt><![CDATA[compass: 264.2119445800781
5445 compAccuracy: 0]]></cmt>
5446 <extensions>
5447 <speed>1.2799999713897705</speed>
5448 </extensions>
5449 </trkpt>
5450 <trkpt lat="48.74438059" lon="11.01543905">
5451 <ele>448.0</ele>
5452 <time>2017-09-02T05:44:12Z</time>
5453 <cmt><![CDATA[compass: 283.44061279296875
5454 compAccuracy: 0]]></cmt>
5455 <extensions>
5456 <speed>1.1799999475479126</speed>
5457 </extensions>
5458 </trkpt>
5459 <trkpt lat="48.74436984" lon="11.01544636">
5460 <ele>448.0</ele>
5461 <time>2017-09-02T05:44:13Z</time>
5462 <cmt><![CDATA[compass: 296.5096740722656
5463 compAccuracy: 0]]></cmt>
5464 <extensions>
5465 <speed>1.2799999713897705</speed>
5466 </extensions>
5467 </trkpt>
5468 <trkpt lat="48.74435982" lon="11.01545064">
5469 <ele>448.0</ele>
5470 <time>2017-09-02T05:44:14Z</time>
5471 <cmt><![CDATA[compass: 307.4202880859375
5472 compAccuracy: 0]]></cmt>
5473 <extensions>
5474 <speed>1.1699999570846558</speed>
5475 </extensions>
5476 </trkpt>
5477 <trkpt lat="48.74435004" lon="11.01545361">
5478 <ele>448.0</ele>
5479 <time>2017-09-02T05:44:15Z</time>
5480 <cmt><![CDATA[compass: 310.9209289550781
5481 compAccuracy: 0]]></cmt>
5482 <extensions>
5483 <speed>1.149999976158142</speed>
5484 </extensions>
5485 </trkpt>
5486 <trkpt lat="48.74433871" lon="11.01545717">
5487 <ele>447.0</ele>
5488 <time>2017-09-02T05:44:16Z</time>
5489 <cmt><![CDATA[compass: 297.99658203125
5490 compAccuracy: 0]]></cmt>
5491 <extensions>
5492 <speed>1.3700000047683716</speed>
5493 </extensions>
5494 </trkpt>
5495 <trkpt lat="48.74432728" lon="11.01546114">
5496 <ele>447.0</ele>
5497 <time>2017-09-02T05:44:17Z</time>
5498 <cmt><![CDATA[compass: 318.1063232421875
5499 compAccuracy: 0]]></cmt>
5500 <extensions>
5501 <speed>0.9900000095367432</speed>
5502 </extensions>
5503 </trkpt>
5504 <trkpt lat="48.74431867" lon="11.01546392">
5505 <ele>447.0</ele>
5506 <time>2017-09-02T05:44:18Z</time>
5507 <cmt><![CDATA[compass: 313.87396240234375
5508 compAccuracy: 0]]></cmt>
5509 <extensions>
5510 <speed>1.0299999713897705</speed>
5511 </extensions>
5512 </trkpt>
5513 <trkpt lat="48.74430798" lon="11.0154672">
5514 <ele>447.0</ele>
5515 <time>2017-09-02T05:44:19Z</time>
5516 <cmt><![CDATA[compass: 285.4446105957031
5517 compAccuracy: 0]]></cmt>
5518 <extensions>
5519 <speed>1.2300000190734863</speed>
5520 </extensions>
5521 </trkpt>
5522 <trkpt lat="48.74429466" lon="11.01547142">
5523 <ele>446.0</ele>
5524 <time>2017-09-02T05:44:20Z</time>
5525 <cmt><![CDATA[compass: 298.2130126953125
5526 compAccuracy: 0]]></cmt>
5527 <extensions>
5528 <speed>1.3799999952316284</speed>
5529 </extensions>
5530 </trkpt>
5531 <trkpt lat="48.74428049" lon="11.01547556">
5532 <ele>446.0</ele>
5533 <time>2017-09-02T05:44:21Z</time>
5534 <cmt><![CDATA[compass: 304.291748046875
5535 compAccuracy: 0]]></cmt>
5536 <extensions>
5537 <speed>1.409999966621399</speed>
5538 </extensions>
5539 </trkpt>
5540 <trkpt lat="48.74426398" lon="11.01548033">
5541 <ele>446.0</ele>
5542 <time>2017-09-02T05:44:22Z</time>
5543 <cmt><![CDATA[compass: 295.352783203125
5544 compAccuracy: 0]]></cmt>
5545 <extensions>
5546 <speed>1.899999976158142</speed>
5547 </extensions>
5548 </trkpt>
5549 <trkpt lat="48.74424417" lon="11.01548529">
5550 <ele>446.0</ele>
5551 <time>2017-09-02T05:44:23Z</time>
5552 <cmt><![CDATA[compass: 303.16204833984375
5553 compAccuracy: 0]]></cmt>
5554 <extensions>
5555 <speed>2.109999895095825</speed>
5556 </extensions>
5557 </trkpt>
5558 <trkpt lat="48.7442263" lon="11.01548894">
5559 <ele>447.0</ele>
5560 <time>2017-09-02T05:44:24Z</time>
5561 <cmt><![CDATA[compass: 216.3610076904297
5562 compAccuracy: 0]]></cmt>
5563 <extensions>
5564 <speed>1.4800000190734863</speed>
5565 </extensions>
5566 </trkpt>
5567 <trkpt lat="48.74420848" lon="11.01549366">
5568 <ele>446.0</ele>
5569 <time>2017-09-02T05:44:25Z</time>
5570 <cmt><![CDATA[compass: 211.44664001464844
5571 compAccuracy: 0]]></cmt>
5572 <extensions>
5573 <speed>1.8300000429153442</speed>
5574 </extensions>
5575 </trkpt>
5576 <trkpt lat="48.74419175" lon="11.01549872">
5577 <ele>447.0</ele>
5578 <time>2017-09-02T05:44:26Z</time>
5579 <cmt><![CDATA[compass: 215.67388916015625
5580 compAccuracy: 0]]></cmt>
5581 <extensions>
5582 <speed>1.5</speed>
5583 </extensions>
5584 </trkpt>
5585 <trkpt lat="48.74417904" lon="11.01550528">
5586 <ele>446.0</ele>
5587 <time>2017-09-02T05:44:27Z</time>
5588 <cmt><![CDATA[compass: 210.6019287109375
5589 compAccuracy: 0]]></cmt>
5590 <extensions>
5591 <speed>1.25</speed>
5592 </extensions>
5593 </trkpt>
5594 <trkpt lat="48.74416905" lon="11.01551363">
5595 <ele>446.0</ele>
5596 <time>2017-09-02T05:44:28Z</time>
5597 <cmt><![CDATA[compass: 211.40234375
5598 compAccuracy: 0]]></cmt>
5599 <extensions>
5600 <speed>1.399999976158142</speed>
5601 </extensions>
5602 </trkpt>
5603 <trkpt lat="48.74415939" lon="11.01552267">
5604 <ele>446.0</ele>
5605 <time>2017-09-02T05:44:29Z</time>
5606 <cmt><![CDATA[compass: 221.79147338867188
5607 compAccuracy: 0]]></cmt>
5608 <extensions>
5609 <speed>1.25</speed>
5610 </extensions>
5611 </trkpt>
5612 <trkpt lat="48.74414779" lon="11.0155286">
5613 <ele>444.0</ele>
5614 <time>2017-09-02T05:44:30Z</time>
5615 <cmt><![CDATA[compass: 215.05950927734375
5616 compAccuracy: 0]]></cmt>
5617 <extensions>
5618 <speed>1.190000057220459</speed>
5619 </extensions>
5620 </trkpt>
5621 <trkpt lat="48.74413571" lon="11.01553653">
5622 <ele>445.0</ele>
5623 <time>2017-09-02T05:44:31Z</time>
5624 <cmt><![CDATA[compass: 213.94091796875
5625 compAccuracy: 0]]></cmt>
5626 <extensions>
5627 <speed>1.4600000381469727</speed>
5628 </extensions>
5629 </trkpt>
5630 <trkpt lat="48.74412265" lon="11.01554506">
5631 <ele>446.0</ele>
5632 <time>2017-09-02T05:44:32Z</time>
5633 <cmt><![CDATA[compass: 223.14959716796875
5634 compAccuracy: 0]]></cmt>
5635 <extensions>
5636 <speed>1.4199999570846558</speed>
5637 </extensions>
5638 </trkpt>
5639 <trkpt lat="48.74410861" lon="11.01555162">
5640 <ele>445.0</ele>
5641 <time>2017-09-02T05:44:33Z</time>
5642 <cmt><![CDATA[compass: 221.16717529296875
5643 compAccuracy: 0]]></cmt>
5644 <extensions>
5645 <speed>1.6200000047683716</speed>
5646 </extensions>
5647 </trkpt>
5648 <trkpt lat="48.74410168" lon="11.01555437">
5649 <ele>444.0</ele>
5650 <time>2017-09-02T05:44:34Z</time>
5651 <cmt><![CDATA[compass: 228.33840942382812
5652 compAccuracy: 0]]></cmt>
5653 <extensions>
5654 <speed>0.28999999165534973</speed>
5655 </extensions>
5656 </trkpt>
5657 <trkpt lat="48.74409997" lon="11.01555407">
5658 <ele>444.0</ele>
5659 <time>2017-09-02T05:44:35Z</time>
5660 <cmt><![CDATA[compass: 225.39308166503906
5661 compAccuracy: 0]]></cmt>
5662 <extensions>
5663 <speed>0.8199999928474426</speed>
5664 </extensions>
5665 </trkpt>
5666 <trkpt lat="48.7441034" lon="11.01555062">
5667 <ele>445.0</ele>
5668 <time>2017-09-02T05:44:36Z</time>
5669 <cmt><![CDATA[compass: 220.17759704589844
5670 compAccuracy: 0]]></cmt>
5671 <extensions>
5672 <speed>0.6499999761581421</speed>
5673 </extensions>
5674 </trkpt>
5675 <trkpt lat="48.74410799" lon="11.01555696">
5676 <ele>445.0</ele>
5677 <time>2017-09-02T05:44:37Z</time>
5678 <cmt><![CDATA[compass: 214.69390869140625
5679 compAccuracy: 0]]></cmt>
5680 <extensions>
5681 <speed>1.440000057220459</speed>
5682 </extensions>
5683 </trkpt>
5684 <trkpt lat="48.74410065" lon="11.01557375">
5685 <ele>445.0</ele>
5686 <time>2017-09-02T05:44:38Z</time>
5687 <cmt><![CDATA[compass: 219.78176879882812
5688 compAccuracy: 0]]></cmt>
5689 <extensions>
5690 <speed>2.049999952316284</speed>
5691 </extensions>
5692 </trkpt>
5693 <trkpt lat="48.7440884" lon="11.01558783">
5694 <ele>445.0</ele>
5695 <time>2017-09-02T05:44:39Z</time>
5696 <cmt><![CDATA[compass: 211.18019104003906
5697 compAccuracy: 0]]></cmt>
5698 <extensions>
5699 <speed>1.3799999952316284</speed>
5700 </extensions>
5701 </trkpt>
5702 <trkpt lat="48.74407866" lon="11.01559857">
5703 <ele>445.0</ele>
5704 <time>2017-09-02T05:44:40Z</time>
5705 <cmt><![CDATA[compass: 212.53851318359375
5706 compAccuracy: 0]]></cmt>
5707 <extensions>
5708 <speed>1.2400000095367432</speed>
5709 </extensions>
5710 </trkpt>
5711 <trkpt lat="48.74406862" lon="11.01560944">
5712 <ele>445.0</ele>
5713 <time>2017-09-02T05:44:41Z</time>
5714 <cmt><![CDATA[compass: 211.18963623046875
5715 compAccuracy: 0]]></cmt>
5716 <extensions>
5717 <speed>1.2400000095367432</speed>
5718 </extensions>
5719 </trkpt>
5720 <trkpt lat="48.74406217" lon="11.01561998">
5721 <ele>443.0</ele>
5722 <time>2017-09-02T05:44:42Z</time>
5723 <cmt><![CDATA[compass: 212.3649139404297
5724 compAccuracy: 0]]></cmt>
5725 <extensions>
5726 <speed>0.8299999833106995</speed>
5727 </extensions>
5728 </trkpt>
5729 <trkpt lat="48.74405683" lon="11.01563155">
5730 <ele>444.0</ele>
5731 <time>2017-09-02T05:44:43Z</time>
5732 <cmt><![CDATA[compass: 214.2584228515625
5733 compAccuracy: 0]]></cmt>
5734 <extensions>
5735 <speed>1.0499999523162842</speed>
5736 </extensions>
5737 </trkpt>
5738 <trkpt lat="48.74404796" lon="11.01564626">
5739 <ele>442.0</ele>
5740 <time>2017-09-02T05:44:44Z</time>
5741 <cmt><![CDATA[compass: 204.54251098632812
5742 compAccuracy: 0]]></cmt>
5743 <extensions>
5744 <speed>1.440000057220459</speed>
5745 </extensions>
5746 </trkpt>
5747 <trkpt lat="48.74403537" lon="11.01566107">
5748 <ele>441.0</ele>
5749 <time>2017-09-02T05:44:45Z</time>
5750 <cmt><![CDATA[compass: 205.78187561035156
5751 compAccuracy: 0]]></cmt>
5752 <extensions>
5753 <speed>1.350000023841858</speed>
5754 </extensions>
5755 </trkpt>
5756 <trkpt lat="48.7440218" lon="11.01567215">
5757 <ele>441.0</ele>
5758 <time>2017-09-02T05:44:46Z</time>
5759 <cmt><![CDATA[compass: 208.94989013671875
5760 compAccuracy: 0]]></cmt>
5761 <extensions>
5762 <speed>1.2599999904632568</speed>
5763 </extensions>
5764 </trkpt>
5765 <trkpt lat="48.7440128" lon="11.01568069">
5766 <ele>442.0</ele>
5767 <time>2017-09-02T05:44:47Z</time>
5768 <cmt><![CDATA[compass: 215.0865478515625
5769 compAccuracy: 0]]></cmt>
5770 <extensions>
5771 <speed>0.8399999737739563</speed>
5772 </extensions>
5773 </trkpt>
5774 <trkpt lat="48.74400566" lon="11.01568473">
5775 <ele>441.0</ele>
5776 <time>2017-09-02T05:44:48Z</time>
5777 <cmt><![CDATA[compass: 218.70896911621094
5778 compAccuracy: 0]]></cmt>
5779 <extensions>
5780 <speed>0.9200000166893005</speed>
5781 </extensions>
5782 </trkpt>
5783 <trkpt lat="48.74399666" lon="11.01569391">
5784 <ele>442.0</ele>
5785 <time>2017-09-02T05:44:49Z</time>
5786 <cmt><![CDATA[compass: 210.15077209472656
5787 compAccuracy: 0]]></cmt>
5788 <extensions>
5789 <speed>1.4700000286102295</speed>
5790 </extensions>
5791 </trkpt>
5792 <trkpt lat="48.74398666" lon="11.0157073">
5793 <ele>441.0</ele>
5794 <time>2017-09-02T05:44:50Z</time>
5795 <cmt><![CDATA[compass: 215.69631958007812
5796 compAccuracy: 0]]></cmt>
5797 <extensions>
5798 <speed>1.350000023841858</speed>
5799 </extensions>
5800 </trkpt>
5801 <trkpt lat="48.74397444" lon="11.01572193">
5802 <ele>441.0</ele>
5803 <time>2017-09-02T05:44:51Z</time>
5804 <cmt><![CDATA[compass: 218.30406188964844
5805 compAccuracy: 0]]></cmt>
5806 <extensions>
5807 <speed>1.690000057220459</speed>
5808 </extensions>
5809 </trkpt>
5810 <trkpt lat="48.74396001" lon="11.01573659">
5811 <ele>442.0</ele>
5812 <time>2017-09-02T05:44:52Z</time>
5813 <cmt><![CDATA[compass: 218.38470458984375
5814 compAccuracy: 0]]></cmt>
5815 <extensions>
5816 <speed>1.7000000476837158</speed>
5817 </extensions>
5818 </trkpt>
5819 <trkpt lat="48.74394794" lon="11.01575003">
5820 <ele>442.0</ele>
5821 <time>2017-09-02T05:44:53Z</time>
5822 <cmt><![CDATA[compass: 219.1599884033203
5823 compAccuracy: 0]]></cmt>
5824 <extensions>
5825 <speed>1.3300000429153442</speed>
5826 </extensions>
5827 </trkpt>
5828 <trkpt lat="48.74393719" lon="11.01576277">
5829 <ele>442.0</ele>
5830 <time>2017-09-02T05:44:54Z</time>
5831 <cmt><![CDATA[compass: 232.28334045410156
5832 compAccuracy: 0]]></cmt>
5833 <extensions>
5834 <speed>1.309999942779541</speed>
5835 </extensions>
5836 </trkpt>
5837 <trkpt lat="48.7439252" lon="11.01577425">
5838 <ele>443.0</ele>
5839 <time>2017-09-02T05:44:55Z</time>
5840 <cmt><![CDATA[compass: 249.989990234375
5841 compAccuracy: 0]]></cmt>
5842 <extensions>
5843 <speed>1.25</speed>
5844 </extensions>
5845 </trkpt>
5846 <trkpt lat="48.74391172" lon="11.01578179">
5847 <ele>442.0</ele>
5848 <time>2017-09-02T05:44:56Z</time>
5849 <cmt><![CDATA[compass: 263.7861328125
5850 compAccuracy: 0]]></cmt>
5851 <extensions>
5852 <speed>1.5199999809265137</speed>
5853 </extensions>
5854 </trkpt>
5855 <trkpt lat="48.74389559" lon="11.01578601">
5856 <ele>443.0</ele>
5857 <time>2017-09-02T05:44:57Z</time>
5858 <cmt><![CDATA[compass: 262.33551025390625
5859 compAccuracy: 0]]></cmt>
5860 <extensions>
5861 <speed>1.6699999570846558</speed>
5862 </extensions>
5863 </trkpt>
5864 <trkpt lat="48.74388016" lon="11.01578859">
5865 <ele>444.0</ele>
5866 <time>2017-09-02T05:44:58Z</time>
5867 <cmt><![CDATA[compass: 266.6714172363281
5868 compAccuracy: 0]]></cmt>
5869 <extensions>
5870 <speed>1.2799999713897705</speed>
5871 </extensions>
5872 </trkpt>
5873 <trkpt lat="48.74386515" lon="11.01578672">
5874 <ele>444.0</ele>
5875 <time>2017-09-02T05:44:59Z</time>
5876 <cmt><![CDATA[compass: 268.7369384765625
5877 compAccuracy: 0]]></cmt>
5878 <extensions>
5879 <speed>1.4600000381469727</speed>
5880 </extensions>
5881 </trkpt>
5882 <trkpt lat="48.74384876" lon="11.01578102">
5883 <ele>445.0</ele>
5884 <time>2017-09-02T05:45:00Z</time>
5885 <cmt><![CDATA[compass: 271.5527648925781
5886 compAccuracy: 0]]></cmt>
5887 <extensions>
5888 <speed>1.8200000524520874</speed>
5889 </extensions>
5890 </trkpt>
5891 <trkpt lat="48.74383399" lon="11.01577426">
5892 <ele>444.0</ele>
5893 <time>2017-09-02T05:45:01Z</time>
5894 <cmt><![CDATA[compass: 269.8692321777344
5895 compAccuracy: 0]]></cmt>
5896 <extensions>
5897 <speed>1.5299999713897705</speed>
5898 </extensions>
5899 </trkpt>
5900 <trkpt lat="48.74382062" lon="11.01576376">
5901 <ele>444.0</ele>
5902 <time>2017-09-02T05:45:02Z</time>
5903 <cmt><![CDATA[compass: 283.0972900390625
5904 compAccuracy: 0]]></cmt>
5905 <extensions>
5906 <speed>1.7999999523162842</speed>
5907 </extensions>
5908 </trkpt>
5909 <trkpt lat="48.74380859" lon="11.01575197">
5910 <ele>443.0</ele>
5911 <time>2017-09-02T05:45:03Z</time>
5912 <cmt><![CDATA[compass: 281.56982421875
5913 compAccuracy: 0]]></cmt>
5914 <extensions>
5915 <speed>1.409999966621399</speed>
5916 </extensions>
5917 </trkpt>
5918 <trkpt lat="48.74379886" lon="11.01573946">
5919 <ele>443.0</ele>
5920 <time>2017-09-02T05:45:04Z</time>
5921 <cmt><![CDATA[compass: 299.3370056152344
5922 compAccuracy: 0]]></cmt>
5923 <extensions>
5924 <speed>1.4800000190734863</speed>
5925 </extensions>
5926 </trkpt>
5927 <trkpt lat="48.74378899" lon="11.01572544">
5928 <ele>443.0</ele>
5929 <time>2017-09-02T05:45:05Z</time>
5930 <cmt><![CDATA[compass: 294.1112365722656
5931 compAccuracy: 0]]></cmt>
5932 <extensions>
5933 <speed>1.5499999523162842</speed>
5934 </extensions>
5935 </trkpt>
5936 <trkpt lat="48.74377943" lon="11.01571223">
5937 <ele>444.0</ele>
5938 <time>2017-09-02T05:45:06Z</time>
5939 <cmt><![CDATA[compass: 292.8569030761719
5940 compAccuracy: 0]]></cmt>
5941 <extensions>
5942 <speed>1.399999976158142</speed>
5943 </extensions>
5944 </trkpt>
5945 <trkpt lat="48.74376826" lon="11.01570233">
5946 <ele>444.0</ele>
5947 <time>2017-09-02T05:45:07Z</time>
5948 <cmt><![CDATA[compass: 267.21429443359375
5949 compAccuracy: 0]]></cmt>
5950 <extensions>
5951 <speed>1.350000023841858</speed>
5952 </extensions>
5953 </trkpt>
5954 <trkpt lat="48.74375548" lon="11.01569624">
5955 <ele>444.0</ele>
5956 <time>2017-09-02T05:45:08Z</time>
5957 <cmt><![CDATA[compass: 269.3179931640625
5958 compAccuracy: 0]]></cmt>
5959 <extensions>
5960 <speed>1.3799999952316284</speed>
5961 </extensions>
5962 </trkpt>
5963 <trkpt lat="48.74374406" lon="11.01569654">
5964 <ele>443.0</ele>
5965 <time>2017-09-02T05:45:09Z</time>
5966 <cmt><![CDATA[compass: 241.53692626953125
5967 compAccuracy: 0]]></cmt>
5968 <extensions>
5969 <speed>1.0700000524520874</speed>
5970 </extensions>
5971 </trkpt>
5972 <trkpt lat="48.74373283" lon="11.01570395">
5973 <ele>442.0</ele>
5974 <time>2017-09-02T05:45:10Z</time>
5975 <cmt><![CDATA[compass: 229.52301025390625
5976 compAccuracy: 0]]></cmt>
5977 <extensions>
5978 <speed>1.4600000381469727</speed>
5979 </extensions>
5980 </trkpt>
5981 <trkpt lat="48.74372141" lon="11.01571781">
5982 <ele>443.0</ele>
5983 <time>2017-09-02T05:45:11Z</time>
5984 <cmt><![CDATA[compass: 207.4545440673828
5985 compAccuracy: 0]]></cmt>
5986 <extensions>
5987 <speed>1.409999966621399</speed>
5988 </extensions>
5989 </trkpt>
5990 <trkpt lat="48.74371499" lon="11.01573792">
5991 <ele>443.0</ele>
5992 <time>2017-09-02T05:45:12Z</time>
5993 <cmt><![CDATA[compass: 195.9406280517578
5994 compAccuracy: 0]]></cmt>
5995 <extensions>
5996 <speed>1.1399999856948853</speed>
5997 </extensions>
5998 </trkpt>
5999 <trkpt lat="48.7437109" lon="11.01576185">
6000 <ele>444.0</ele>
6001 <time>2017-09-02T05:45:13Z</time>
6002 <cmt><![CDATA[compass: 188.1378936767578
6003 compAccuracy: 0]]></cmt>
6004 <extensions>
6005 <speed>1.690000057220459</speed>
6006 </extensions>
6007 </trkpt>
6008 <trkpt lat="48.74370838" lon="11.01578838">
6009 <ele>445.0</ele>
6010 <time>2017-09-02T05:45:14Z</time>
6011 <cmt><![CDATA[compass: 180.57505798339844
6012 compAccuracy: 0]]></cmt>
6013 <extensions>
6014 <speed>1.5399999618530273</speed>
6015 </extensions>
6016 </trkpt>
6017 <trkpt lat="48.74370489" lon="11.01581488">
6018 <ele>445.0</ele>
6019 <time>2017-09-02T05:45:15Z</time>
6020 <cmt><![CDATA[compass: 183.88938903808594
6021 compAccuracy: 0]]></cmt>
6022 <extensions>
6023 <speed>1.7799999713897705</speed>
6024 </extensions>
6025 </trkpt>
6026 <trkpt lat="48.7436978" lon="11.0158406">
6027 <ele>445.0</ele>
6028 <time>2017-09-02T05:45:16Z</time>
6029 <cmt><![CDATA[compass: 188.22801208496094
6030 compAccuracy: 0]]></cmt>
6031 <extensions>
6032 <speed>1.7699999809265137</speed>
6033 </extensions>
6034 </trkpt>
6035 <trkpt lat="48.7436893" lon="11.01586495">
6036 <ele>444.0</ele>
6037 <time>2017-09-02T05:45:17Z</time>
6038 <cmt><![CDATA[compass: 188.11093139648438
6039 compAccuracy: 0]]></cmt>
6040 <extensions>
6041 <speed>1.899999976158142</speed>
6042 </extensions>
6043 </trkpt>
6044 <trkpt lat="48.7436725" lon="11.01588817">
6045 <ele>442.0</ele>
6046 <time>2017-09-02T05:45:18Z</time>
6047 <cmt><![CDATA[compass: 190.99085998535156
6048 compAccuracy: 0]]></cmt>
6049 <extensions>
6050 <speed>2.990000009536743</speed>
6051 </extensions>
6052 </trkpt>
6053 <trkpt lat="48.74364925" lon="11.01590821">
6054 <ele>440.0</ele>
6055 <time>2017-09-02T05:45:19Z</time>
6056 <cmt><![CDATA[compass: 186.46566772460938
6057 compAccuracy: 0]]></cmt>
6058 <extensions>
6059 <speed>2.8299999237060547</speed>
6060 </extensions>
6061 </trkpt>
6062 <trkpt lat="48.7436288" lon="11.01592084">
6063 <ele>440.0</ele>
6064 <time>2017-09-02T05:45:20Z</time>
6065 <cmt><![CDATA[compass: 188.3953399658203
6066 compAccuracy: 0]]></cmt>
6067 <extensions>
6068 <speed>2.200000047683716</speed>
6069 </extensions>
6070 </trkpt>
6071 <trkpt lat="48.74361357" lon="11.01592981">
6072 <ele>440.0</ele>
6073 <time>2017-09-02T05:45:21Z</time>
6074 <cmt><![CDATA[compass: 194.97146606445312
6075 compAccuracy: 0]]></cmt>
6076 <extensions>
6077 <speed>1.5199999809265137</speed>
6078 </extensions>
6079 </trkpt>
6080 <trkpt lat="48.74360165" lon="11.01594157">
6081 <ele>439.0</ele>
6082 <time>2017-09-02T05:45:22Z</time>
6083 <cmt><![CDATA[compass: 195.07003784179688
6084 compAccuracy: 0]]></cmt>
6085 <extensions>
6086 <speed>1.690000057220459</speed>
6087 </extensions>
6088 </trkpt>
6089 <trkpt lat="48.7435904" lon="11.01595622">
6090 <ele>438.0</ele>
6091 <time>2017-09-02T05:45:23Z</time>
6092 <cmt><![CDATA[compass: 195.2696075439453
6093 compAccuracy: 0]]></cmt>
6094 <extensions>
6095 <speed>1.7400000095367432</speed>
6096 </extensions>
6097 </trkpt>
6098 <trkpt lat="48.74357853" lon="11.01597271">
6099 <ele>438.0</ele>
6100 <time>2017-09-02T05:45:24Z</time>
6101 <cmt><![CDATA[compass: 186.61151123046875
6102 compAccuracy: 0]]></cmt>
6103 <extensions>
6104 <speed>1.9199999570846558</speed>
6105 </extensions>
6106 </trkpt>
6107 <trkpt lat="48.74356827" lon="11.01598528">
6108 <ele>438.0</ele>
6109 <time>2017-09-02T05:45:25Z</time>
6110 <cmt><![CDATA[compass: 190.99234008789062
6111 compAccuracy: 0]]></cmt>
6112 <extensions>
6113 <speed>1.6699999570846558</speed>
6114 </extensions>
6115 </trkpt>
6116 <trkpt lat="48.74356374" lon="11.01599332">
6117 <ele>437.0</ele>
6118 <time>2017-09-02T05:45:26Z</time>
6119 <cmt><![CDATA[compass: 191.9535369873047
6120 compAccuracy: 0]]></cmt>
6121 <extensions>
6122 <speed>0.6200000047683716</speed>
6123 </extensions>
6124 </trkpt>
6125 <trkpt lat="48.74356157" lon="11.01599942">
6126 <ele>437.0</ele>
6127 <time>2017-09-02T05:45:27Z</time>
6128 <cmt><![CDATA[compass: 183.1482391357422
6129 compAccuracy: 0]]></cmt>
6130 <extensions>
6131 <speed>0.9300000071525574</speed>
6132 </extensions>
6133 </trkpt>
6134 <trkpt lat="48.74355774" lon="11.01601384">
6135 <ele>437.0</ele>
6136 <time>2017-09-02T05:45:28Z</time>
6137 <cmt><![CDATA[compass: 196.16200256347656
6138 compAccuracy: 0]]></cmt>
6139 <extensions>
6140 <speed>1.5099999904632568</speed>
6141 </extensions>
6142 </trkpt>
6143 <trkpt lat="48.74355617" lon="11.01603094">
6144 <ele>437.0</ele>
6145 <time>2017-09-02T05:45:29Z</time>
6146 <cmt><![CDATA[compass: 184.94822692871094
6147 compAccuracy: 0]]></cmt>
6148 <extensions>
6149 <speed>1.2100000381469727</speed>
6150 </extensions>
6151 </trkpt>
6152 <trkpt lat="48.74355806" lon="11.01604898">
6153 <ele>439.0</ele>
6154 <time>2017-09-02T05:45:30Z</time>
6155 <cmt><![CDATA[compass: 182.8254852294922
6156 compAccuracy: 0]]></cmt>
6157 <extensions>
6158 <speed>1.340000033378601</speed>
6159 </extensions>
6160 </trkpt>
6161 <trkpt lat="48.74356055" lon="11.01606519">
6162 <ele>440.0</ele>
6163 <time>2017-09-02T05:45:31Z</time>
6164 <cmt><![CDATA[compass: 191.27584838867188
6165 compAccuracy: 0]]></cmt>
6166 <extensions>
6167 <speed>1.0299999713897705</speed>
6168 </extensions>
6169 </trkpt>
6170 <trkpt lat="48.74356159" lon="11.01608262">
6171 <ele>442.0</ele>
6172 <time>2017-09-02T05:45:32Z</time>
6173 <cmt><![CDATA[compass: 194.05783081054688
6174 compAccuracy: 0]]></cmt>
6175 <extensions>
6176 <speed>1.309999942779541</speed>
6177 </extensions>
6178 </trkpt>
6179 <trkpt lat="48.74355783" lon="11.01610097">
6180 <ele>443.0</ele>
6181 <time>2017-09-02T05:45:33Z</time>
6182 <cmt><![CDATA[compass: 192.73199462890625
6183 compAccuracy: 0]]></cmt>
6184 <extensions>
6185 <speed>1.4500000476837158</speed>
6186 </extensions>
6187 </trkpt>
6188 <trkpt lat="48.74355132" lon="11.01611893">
6189 <ele>443.0</ele>
6190 <time>2017-09-02T05:45:34Z</time>
6191 <cmt><![CDATA[compass: 200.63735961914062
6192 compAccuracy: 0]]></cmt>
6193 <extensions>
6194 <speed>1.6699999570846558</speed>
6195 </extensions>
6196 </trkpt>
6197 <trkpt lat="48.74354574" lon="11.01613523">
6198 <ele>442.0</ele>
6199 <time>2017-09-02T05:45:35Z</time>
6200 <cmt><![CDATA[compass: 211.2989959716797
6201 compAccuracy: 0]]></cmt>
6202 <extensions>
6203 <speed>1.2000000476837158</speed>
6204 </extensions>
6205 </trkpt>
6206 <trkpt lat="48.74354292" lon="11.01614842">
6207 <ele>441.0</ele>
6208 <time>2017-09-02T05:45:36Z</time>
6209 <cmt><![CDATA[compass: 219.80247497558594
6210 compAccuracy: 0]]></cmt>
6211 <extensions>
6212 <speed>1.090000033378601</speed>
6213 </extensions>
6214 </trkpt>
6215 <trkpt lat="48.74354" lon="11.01615974">
6216 <ele>439.0</ele>
6217 <time>2017-09-02T05:45:37Z</time>
6218 <cmt><![CDATA[compass: 216.3406219482422
6219 compAccuracy: 0]]></cmt>
6220 <extensions>
6221 <speed>1.1399999856948853</speed>
6222 </extensions>
6223 </trkpt>
6224 <trkpt lat="48.74353727" lon="11.01616751">
6225 <ele>439.0</ele>
6226 <time>2017-09-02T05:45:38Z</time>
6227 <cmt><![CDATA[compass: 216.6151123046875
6228 compAccuracy: 0]]></cmt>
6229 <extensions>
6230 <speed>0.6800000071525574</speed>
6231 </extensions>
6232 </trkpt>
6233 <trkpt lat="48.74353361" lon="11.01617676">
6234 <ele>438.0</ele>
6235 <time>2017-09-02T05:45:39Z</time>
6236 <cmt><![CDATA[compass: 222.43728637695312
6237 compAccuracy: 0]]></cmt>
6238 <extensions>
6239 <speed>1.309999942779541</speed>
6240 </extensions>
6241 </trkpt>
6242 <trkpt lat="48.74352658" lon="11.01618824">
6243 <ele>439.0</ele>
6244 <time>2017-09-02T05:45:40Z</time>
6245 <cmt><![CDATA[compass: 222.22125244140625
6246 compAccuracy: 0]]></cmt>
6247 <extensions>
6248 <speed>1.25</speed>
6249 </extensions>
6250 </trkpt>
6251 <trkpt lat="48.74352098" lon="11.01619856">
6252 <ele>440.0</ele>
6253 <time>2017-09-02T05:45:41Z</time>
6254 <cmt><![CDATA[compass: 216.79483032226562
6255 compAccuracy: 0]]></cmt>
6256 <extensions>
6257 <speed>0.7900000214576721</speed>
6258 </extensions>
6259 </trkpt>
6260 <trkpt lat="48.7435158" lon="11.01620852">
6261 <ele>440.0</ele>
6262 <time>2017-09-02T05:45:42Z</time>
6263 <cmt><![CDATA[compass: 210.46954345703125
6264 compAccuracy: 0]]></cmt>
6265 <extensions>
6266 <speed>1.0399999618530273</speed>
6267 </extensions>
6268 </trkpt>
6269 <trkpt lat="48.7435109" lon="11.01621864">
6270 <ele>440.0</ele>
6271 <time>2017-09-02T05:45:43Z</time>
6272 <cmt><![CDATA[compass: 199.52761840820312
6273 compAccuracy: 0]]></cmt>
6274 <extensions>
6275 <speed>0.7799999713897705</speed>
6276 </extensions>
6277 </trkpt>
6278 <trkpt lat="48.74350605" lon="11.01623165">
6279 <ele>441.0</ele>
6280 <time>2017-09-02T05:45:44Z</time>
6281 <cmt><![CDATA[compass: 200.9532012939453
6282 compAccuracy: 0]]></cmt>
6283 <extensions>
6284 <speed>1.2200000286102295</speed>
6285 </extensions>
6286 </trkpt>
6287 <trkpt lat="48.74350289" lon="11.01624796">
6288 <ele>441.0</ele>
6289 <time>2017-09-02T05:45:45Z</time>
6290 <cmt><![CDATA[compass: 170.5032958984375
6291 compAccuracy: 0]]></cmt>
6292 <extensions>
6293 <speed>1.3200000524520874</speed>
6294 </extensions>
6295 </trkpt>
6296 <trkpt lat="48.7435015" lon="11.0162646">
6297 <ele>440.0</ele>
6298 <time>2017-09-02T05:45:46Z</time>
6299 <cmt><![CDATA[compass: 104.201171875
6300 compAccuracy: 0]]></cmt>
6301 <extensions>
6302 <speed>1.2000000476837158</speed>
6303 </extensions>
6304 </trkpt>
6305 <trkpt lat="48.74350489" lon="11.01628195">
6306 <ele>441.0</ele>
6307 <time>2017-09-02T05:45:47Z</time>
6308 <cmt><![CDATA[compass: 176.2833251953125
6309 compAccuracy: 0]]></cmt>
6310 <extensions>
6311 <speed>1.2599999904632568</speed>
6312 </extensions>
6313 </trkpt>
6314 <trkpt lat="48.74350889" lon="11.01630071">
6315 <ele>440.0</ele>
6316 <time>2017-09-02T05:45:48Z</time>
6317 <cmt><![CDATA[compass: 137.25765991210938
6318 compAccuracy: 0]]></cmt>
6319 <extensions>
6320 <speed>1.3300000429153442</speed>
6321 </extensions>
6322 </trkpt>
6323 <trkpt lat="48.74350895" lon="11.01631664">
6324 <ele>439.0</ele>
6325 <time>2017-09-02T05:45:49Z</time>
6326 <cmt><![CDATA[compass: 8.03118896484375
6327 compAccuracy: 0]]></cmt>
6328 <extensions>
6329 <speed>1.4900000095367432</speed>
6330 </extensions>
6331 </trkpt>
6332 <trkpt lat="48.74350906" lon="11.01633539">
6333 <ele>439.0</ele>
6334 <time>2017-09-02T05:45:50Z</time>
6335 <cmt><![CDATA[compass: 11.2725830078125
6336 compAccuracy: 0]]></cmt>
6337 <extensions>
6338 <speed>1.559999942779541</speed>
6339 </extensions>
6340 </trkpt>
6341 <trkpt lat="48.74350732" lon="11.01635436">
6342 <ele>440.0</ele>
6343 <time>2017-09-02T05:45:51Z</time>
6344 <cmt><![CDATA[compass: 6.036041259765625
6345 compAccuracy: 0]]></cmt>
6346 <extensions>
6347 <speed>1.190000057220459</speed>
6348 </extensions>
6349 </trkpt>
6350 <trkpt lat="48.74350524" lon="11.01636602">
6351 <ele>440.0</ele>
6352 <time>2017-09-02T05:45:52Z</time>
6353 <cmt><![CDATA[compass: 10.89227294921875
6354 compAccuracy: 0]]></cmt>
6355 <extensions>
6356 <speed>0.5400000214576721</speed>
6357 </extensions>
6358 </trkpt>
6359 <trkpt lat="48.74350494" lon="11.0163662">
6360 <ele>440.0</ele>
6361 <time>2017-09-02T05:45:53Z</time>
6362 <cmt><![CDATA[compass: 18.518707275390625
6363 compAccuracy: 0]]></cmt>
6364 <extensions>
6365 <speed>0.0</speed>
6366 </extensions>
6367 </trkpt>
6368 <trkpt lat="48.74350204" lon="11.01636699">
6369 <ele>439.0</ele>
6370 <time>2017-09-02T05:45:54Z</time>
6371 <cmt><![CDATA[compass: 31.2412109375
6372 compAccuracy: 0]]></cmt>
6373 <extensions>
6374 <speed>0.33000001311302185</speed>
6375 </extensions>
6376 </trkpt>
6377 <trkpt lat="48.74349997" lon="11.01636944">
6378 <ele>440.0</ele>
6379 <time>2017-09-02T05:45:55Z</time>
6380 <cmt><![CDATA[compass: 29.89306640625
6381 compAccuracy: 0]]></cmt>
6382 <extensions>
6383 <speed>0.0</speed>
6384 </extensions>
6385 </trkpt>
6386 <trkpt lat="48.74349824" lon="11.01637225">
6387 <ele>440.0</ele>
6388 <time>2017-09-02T05:45:56Z</time>
6389 <cmt><![CDATA[compass: 350.382080078125
6390 compAccuracy: 0]]></cmt>
6391 <extensions>
6392 <speed>0.47999998927116394</speed>
6393 </extensions>
6394 </trkpt>
6395 <trkpt lat="48.74349726" lon="11.01637448">
6396 <ele>441.0</ele>
6397 <time>2017-09-02T05:45:57Z</time>
6398 <cmt><![CDATA[compass: 303.128173828125
6399 compAccuracy: 0]]></cmt>
6400 <extensions>
6401 <speed>0.36000001430511475</speed>
6402 </extensions>
6403 </trkpt>
6404 <trkpt lat="48.74349254" lon="11.01637652">
6405 <ele>443.0</ele>
6406 <time>2017-09-02T05:45:58Z</time>
6407 <cmt><![CDATA[compass: 307.1019592285156
6408 compAccuracy: 0]]></cmt>
6409 <extensions>
6410 <speed>0.0</speed>
6411 </extensions>
6412 </trkpt>
6413 <trkpt lat="48.7434899" lon="11.01637636">
6414 <ele>444.0</ele>
6415 <time>2017-09-02T05:45:59Z</time>
6416 <cmt><![CDATA[compass: 306.406982421875
6417 compAccuracy: 0]]></cmt>
6418 <extensions>
6419 <speed>0.0</speed>
6420 </extensions>
6421 </trkpt>
6422 <trkpt lat="48.74348677" lon="11.01638092">
6423 <ele>444.0</ele>
6424 <time>2017-09-02T05:46:00Z</time>
6425 <cmt><![CDATA[compass: 304.5970764160156
6426 compAccuracy: 0]]></cmt>
6427 <extensions>
6428 <speed>0.0</speed>
6429 </extensions>
6430 </trkpt>
6431 <trkpt lat="48.74348108" lon="11.0163843">
6432 <ele>444.0</ele>
6433 <time>2017-09-02T05:46:01Z</time>
6434 <cmt><![CDATA[compass: 301.9607849121094
6435 compAccuracy: 0]]></cmt>
6436 <extensions>
6437 <speed>0.0</speed>
6438 </extensions>
6439 </trkpt>
6440 <trkpt lat="48.74347721" lon="11.01638572">
6441 <ele>445.0</ele>
6442 <time>2017-09-02T05:46:02Z</time>
6443 <cmt><![CDATA[compass: 303.8876953125
6444 compAccuracy: 0]]></cmt>
6445 <extensions>
6446 <speed>0.0</speed>
6447 </extensions>
6448 </trkpt>
6449 <trkpt lat="48.74347583" lon="11.01638563">
6450 <ele>444.0</ele>
6451 <time>2017-09-02T05:46:03Z</time>
6452 <cmt><![CDATA[compass: 306.3714599609375
6453 compAccuracy: 0]]></cmt>
6454 <extensions>
6455 <speed>0.0</speed>
6456 </extensions>
6457 </trkpt>
6458 <trkpt lat="48.74347522" lon="11.01638606">
6459 <ele>444.0</ele>
6460 <time>2017-09-02T05:46:04Z</time>
6461 <cmt><![CDATA[compass: 311.70849609375
6462 compAccuracy: 0]]></cmt>
6463 <extensions>
6464 <speed>0.0</speed>
6465 </extensions>
6466 </trkpt>
6467 <trkpt lat="48.74347323" lon="11.01638425">
6468 <ele>444.0</ele>
6469 <time>2017-09-02T05:46:05Z</time>
6470 <cmt><![CDATA[compass: 353.7113952636719
6471 compAccuracy: 0]]></cmt>
6472 <extensions>
6473 <speed>0.0</speed>
6474 </extensions>
6475 </trkpt>
6476 <trkpt lat="48.74347223" lon="11.01638334">
6477 <ele>444.0</ele>
6478 <time>2017-09-02T05:46:06Z</time>
6479 <cmt><![CDATA[compass: 221.8837127685547
6480 compAccuracy: 0]]></cmt>
6481 <extensions>
6482 <speed>0.0</speed>
6483 </extensions>
6484 </trkpt>
6485 <trkpt lat="48.74346505" lon="11.01639012">
6486 <ele>444.0</ele>
6487 <time>2017-09-02T05:46:07Z</time>
6488 <cmt><![CDATA[compass: 134.8660888671875
6489 compAccuracy: 0]]></cmt>
6490 <extensions>
6491 <speed>1.0299999713897705</speed>
6492 </extensions>
6493 </trkpt>
6494 <trkpt lat="48.74345458" lon="11.01640145">
6495 <ele>445.0</ele>
6496 <time>2017-09-02T05:46:08Z</time>
6497 <cmt><![CDATA[compass: 66.91818237304688
6498 compAccuracy: 0]]></cmt>
6499 <extensions>
6500 <speed>1.2000000476837158</speed>
6501 </extensions>
6502 </trkpt>
6503 <trkpt lat="48.74344249" lon="11.01640989">
6504 <ele>444.0</ele>
6505 <time>2017-09-02T05:46:09Z</time>
6506 <cmt><![CDATA[compass: 240.47769165039062
6507 compAccuracy: 0]]></cmt>
6508 <extensions>
6509 <speed>1.1799999475479126</speed>
6510 </extensions>
6511 </trkpt>
6512 <trkpt lat="48.74343015" lon="11.01642052">
6513 <ele>444.0</ele>
6514 <time>2017-09-02T05:46:10Z</time>
6515 <cmt><![CDATA[compass: 257.0328674316406
6516 compAccuracy: 0]]></cmt>
6517 <extensions>
6518 <speed>1.3899999856948853</speed>
6519 </extensions>
6520 </trkpt>
6521 <trkpt lat="48.74341956" lon="11.01643461">
6522 <ele>444.0</ele>
6523 <time>2017-09-02T05:46:11Z</time>
6524 <cmt><![CDATA[compass: 5.11383056640625
6525 compAccuracy: 0]]></cmt>
6526 <extensions>
6527 <speed>1.340000033378601</speed>
6528 </extensions>
6529 </trkpt>
6530 <trkpt lat="48.74341082" lon="11.01645024">
6531 <ele>444.0</ele>
6532 <time>2017-09-02T05:46:12Z</time>
6533 <cmt><![CDATA[compass: 170.31195068359375
6534 compAccuracy: 0]]></cmt>
6535 <extensions>
6536 <speed>1.3300000429153442</speed>
6537 </extensions>
6538 </trkpt>
6539 <trkpt lat="48.74340403" lon="11.01646304">
6540 <ele>444.0</ele>
6541 <time>2017-09-02T05:46:13Z</time>
6542 <cmt><![CDATA[compass: 178.7412109375
6543 compAccuracy: 0]]></cmt>
6544 <extensions>
6545 <speed>0.7699999809265137</speed>
6546 </extensions>
6547 </trkpt>
6548 <trkpt lat="48.74339729" lon="11.01647517">
6549 <ele>443.0</ele>
6550 <time>2017-09-02T05:46:14Z</time>
6551 <cmt><![CDATA[compass: 193.04464721679688
6552 compAccuracy: 0]]></cmt>
6553 <extensions>
6554 <speed>1.2599999904632568</speed>
6555 </extensions>
6556 </trkpt>
6557 <trkpt lat="48.74338807" lon="11.01648652">
6558 <ele>443.0</ele>
6559 <time>2017-09-02T05:46:15Z</time>
6560 <cmt><![CDATA[compass: 183.36900329589844
6561 compAccuracy: 0]]></cmt>
6562 <extensions>
6563 <speed>1.25</speed>
6564 </extensions>
6565 </trkpt>
6566 <trkpt lat="48.74337795" lon="11.01649971">
6567 <ele>443.0</ele>
6568 <time>2017-09-02T05:46:16Z</time>
6569 <cmt><![CDATA[compass: 181.0804901123047
6570 compAccuracy: 0]]></cmt>
6571 <extensions>
6572 <speed>1.3799999952316284</speed>
6573 </extensions>
6574 </trkpt>
6575 <trkpt lat="48.74336814" lon="11.0165141">
6576 <ele>443.0</ele>
6577 <time>2017-09-02T05:46:17Z</time>
6578 <cmt><![CDATA[compass: 182.11753845214844
6579 compAccuracy: 0]]></cmt>
6580 <extensions>
6581 <speed>1.3799999952316284</speed>
6582 </extensions>
6583 </trkpt>
6584 <trkpt lat="48.74335718" lon="11.01652489">
6585 <ele>444.0</ele>
6586 <time>2017-09-02T05:46:18Z</time>
6587 <cmt><![CDATA[compass: 187.3851776123047
6588 compAccuracy: 0]]></cmt>
6589 <extensions>
6590 <speed>1.2599999904632568</speed>
6591 </extensions>
6592 </trkpt>
6593 <trkpt lat="48.74334659" lon="11.01653511">
6594 <ele>443.0</ele>
6595 <time>2017-09-02T05:46:19Z</time>
6596 <cmt><![CDATA[compass: 185.09423828125
6597 compAccuracy: 0]]></cmt>
6598 <extensions>
6599 <speed>1.2300000190734863</speed>
6600 </extensions>
6601 </trkpt>
6602 <trkpt lat="48.74333584" lon="11.01654205">
6603 <ele>444.0</ele>
6604 <time>2017-09-02T05:46:20Z</time>
6605 <cmt><![CDATA[compass: 193.547607421875
6606 compAccuracy: 0]]></cmt>
6607 <extensions>
6608 <speed>1.0299999713897705</speed>
6609 </extensions>
6610 </trkpt>
6611 <trkpt lat="48.74332709" lon="11.01654986">
6612 <ele>444.0</ele>
6613 <time>2017-09-02T05:46:21Z</time>
6614 <cmt><![CDATA[compass: 190.48306274414062
6615 compAccuracy: 0]]></cmt>
6616 <extensions>
6617 <speed>1.0299999713897705</speed>
6618 </extensions>
6619 </trkpt>
6620 <trkpt lat="48.74331811" lon="11.01656035">
6621 <ele>443.0</ele>
6622 <time>2017-09-02T05:46:22Z</time>
6623 <cmt><![CDATA[compass: 179.555419921875
6624 compAccuracy: 0]]></cmt>
6625 <extensions>
6626 <speed>1.100000023841858</speed>
6627 </extensions>
6628 </trkpt>
6629 <trkpt lat="48.74330694" lon="11.01657379">
6630 <ele>444.0</ele>
6631 <time>2017-09-02T05:46:23Z</time>
6632 <cmt><![CDATA[compass: 179.555419921875
6633 compAccuracy: 0]]></cmt>
6634 <extensions>
6635 <speed>1.3600000143051147</speed>
6636 </extensions>
6637 </trkpt>
6638 <trkpt lat="48.74329627" lon="11.01658678">
6639 <ele>443.0</ele>
6640 <time>2017-09-02T05:46:24Z</time>
6641 <cmt><![CDATA[compass: 179.555419921875
6642 compAccuracy: 0]]></cmt>
6643 <extensions>
6644 <speed>1.0700000524520874</speed>
6645 </extensions>
6646 </trkpt>
6647 <trkpt lat="48.74328195" lon="11.01659884">
6648 <ele>444.0</ele>
6649 <time>2017-09-02T05:46:25Z</time>
6650 <cmt><![CDATA[compass: 184.9859619140625
6651 compAccuracy: 0]]></cmt>
6652 <extensions>
6653 <speed>1.5099999904632568</speed>
6654 </extensions>
6655 </trkpt>
6656 <trkpt lat="48.74326547" lon="11.01661555">
6657 <ele>444.0</ele>
6658 <time>2017-09-02T05:46:26Z</time>
6659 <cmt><![CDATA[compass: 172.41510009765625
6660 compAccuracy: 0]]></cmt>
6661 <extensions>
6662 <speed>1.9800000190734863</speed>
6663 </extensions>
6664 </trkpt>
6665 <trkpt lat="48.74324923" lon="11.01663418">
6666 <ele>444.0</ele>
6667 <time>2017-09-02T05:46:27Z</time>
6668 <cmt><![CDATA[compass: 157.99755859375
6669 compAccuracy: 0]]></cmt>
6670 <extensions>
6671 <speed>1.7200000286102295</speed>
6672 </extensions>
6673 </trkpt>
6674 <trkpt lat="48.74323438" lon="11.01665351">
6675 <ele>445.0</ele>
6676 <time>2017-09-02T05:46:28Z</time>
6677 <cmt><![CDATA[compass: 153.8184814453125
6678 compAccuracy: 0]]></cmt>
6679 <extensions>
6680 <speed>1.5399999618530273</speed>
6681 </extensions>
6682 </trkpt>
6683 <trkpt lat="48.74322563" lon="11.01667288">
6684 <ele>446.0</ele>
6685 <time>2017-09-02T05:46:29Z</time>
6686 <cmt><![CDATA[compass: 144.06341552734375
6687 compAccuracy: 0]]></cmt>
6688 <extensions>
6689 <speed>0.7699999809265137</speed>
6690 </extensions>
6691 </trkpt>
6692 <trkpt lat="48.74322381" lon="11.01669074">
6693 <ele>445.0</ele>
6694 <time>2017-09-02T05:46:30Z</time>
6695 <cmt><![CDATA[compass: 82.09609985351562
6696 compAccuracy: 0]]></cmt>
6697 <extensions>
6698 <speed>0.7900000214576721</speed>
6699 </extensions>
6700 </trkpt>
6701 <trkpt lat="48.74322938" lon="11.01670934">
6702 <ele>445.0</ele>
6703 <time>2017-09-02T05:46:31Z</time>
6704 <cmt><![CDATA[compass: 50.922454833984375
6705 compAccuracy: 0]]></cmt>
6706 <extensions>
6707 <speed>1.100000023841858</speed>
6708 </extensions>
6709 </trkpt>
6710 <trkpt lat="48.74324055" lon="11.01672783">
6711 <ele>445.0</ele>
6712 <time>2017-09-02T05:46:32Z</time>
6713 <cmt><![CDATA[compass: 50.922454833984375
6714 compAccuracy: 0]]></cmt>
6715 <extensions>
6716 <speed>1.2100000381469727</speed>
6717 </extensions>
6718 </trkpt>
6719 <trkpt lat="48.74325705" lon="11.01674818">
6720 <ele>444.0</ele>
6721 <time>2017-09-02T05:46:33Z</time>
6722 <cmt><![CDATA[compass: 97.22796630859375
6723 compAccuracy: 0]]></cmt>
6724 <extensions>
6725 <speed>1.7400000095367432</speed>
6726 </extensions>
6727 </trkpt>
6728 <trkpt lat="48.74327433" lon="11.01676901">
6729 <ele>444.0</ele>
6730 <time>2017-09-02T05:46:34Z</time>
6731 <cmt><![CDATA[compass: 103.09814453125
6732 compAccuracy: 0]]></cmt>
6733 <extensions>
6734 <speed>1.7400000095367432</speed>
6735 </extensions>
6736 </trkpt>
6737 <trkpt lat="48.74328328" lon="11.01678371">
6738 <ele>447.0</ele>
6739 <time>2017-09-02T05:46:35Z</time>
6740 <cmt><![CDATA[compass: 90.9791259765625
6741 compAccuracy: 0]]></cmt>
6742 <extensions>
6743 <speed>0.9700000286102295</speed>
6744 </extensions>
6745 </trkpt>
6746 <trkpt lat="48.7432899" lon="11.01679694">
6747 <ele>446.0</ele>
6748 <time>2017-09-02T05:46:36Z</time>
6749 <cmt><![CDATA[compass: 91.15386962890625
6750 compAccuracy: 0]]></cmt>
6751 <extensions>
6752 <speed>1.2599999904632568</speed>
6753 </extensions>
6754 </trkpt>
6755 <trkpt lat="48.74329691" lon="11.01680893">
6756 <ele>447.0</ele>
6757 <time>2017-09-02T05:46:37Z</time>
6758 <cmt><![CDATA[compass: 93.71795654296875
6759 compAccuracy: 0]]></cmt>
6760 <extensions>
6761 <speed>0.9700000286102295</speed>
6762 </extensions>
6763 </trkpt>
6764 <trkpt lat="48.74330361" lon="11.01682029">
6765 <ele>447.0</ele>
6766 <time>2017-09-02T05:46:38Z</time>
6767 <cmt><![CDATA[compass: 91.02261352539062
6768 compAccuracy: 0]]></cmt>
6769 <extensions>
6770 <speed>1.059999942779541</speed>
6771 </extensions>
6772 </trkpt>
6773 <trkpt lat="48.74330823" lon="11.01683213">
6774 <ele>446.0</ele>
6775 <time>2017-09-02T05:46:39Z</time>
6776 <cmt><![CDATA[compass: 221.952392578125
6777 compAccuracy: 0]]></cmt>
6778 <extensions>
6779 <speed>1.2899999618530273</speed>
6780 </extensions>
6781 </trkpt>
6782 <trkpt lat="48.74331496" lon="11.01684559">
6783 <ele>447.0</ele>
6784 <time>2017-09-02T05:46:40Z</time>
6785 <cmt><![CDATA[compass: 289.54937744140625
6786 compAccuracy: 0]]></cmt>
6787 <extensions>
6788 <speed>1.3700000047683716</speed>
6789 </extensions>
6790 </trkpt>
6791 <trkpt lat="48.74332237" lon="11.01685966">
6792 <ele>446.0</ele>
6793 <time>2017-09-02T05:46:41Z</time>
6794 <cmt><![CDATA[compass: 290.1087646484375
6795 compAccuracy: 0]]></cmt>
6796 <extensions>
6797 <speed>1.2300000190734863</speed>
6798 </extensions>
6799 </trkpt>
6800 <trkpt lat="48.74332641" lon="11.01687336">
6801 <ele>446.0</ele>
6802 <time>2017-09-02T05:46:42Z</time>
6803 <cmt><![CDATA[compass: 301.6688232421875
6804 compAccuracy: 0]]></cmt>
6805 <extensions>
6806 <speed>0.9100000262260437</speed>
6807 </extensions>
6808 </trkpt>
6809 <trkpt lat="48.7433263" lon="11.01688786">
6810 <ele>447.0</ele>
6811 <time>2017-09-02T05:46:43Z</time>
6812 <cmt><![CDATA[compass: 318.2902526855469
6813 compAccuracy: 0]]></cmt>
6814 <extensions>
6815 <speed>1.1100000143051147</speed>
6816 </extensions>
6817 </trkpt>
6818 <trkpt lat="48.74332269" lon="11.01690482">
6819 <ele>447.0</ele>
6820 <time>2017-09-02T05:46:44Z</time>
6821 <cmt><![CDATA[compass: 340.2587890625
6822 compAccuracy: 0]]></cmt>
6823 <extensions>
6824 <speed>1.2200000286102295</speed>
6825 </extensions>
6826 </trkpt>
6827 <trkpt lat="48.74331704" lon="11.0169196">
6828 <ele>447.0</ele>
6829 <time>2017-09-02T05:46:45Z</time>
6830 <cmt><![CDATA[compass: 348.072021484375
6831 compAccuracy: 0]]></cmt>
6832 <extensions>
6833 <speed>0.9300000071525574</speed>
6834 </extensions>
6835 </trkpt>
6836 <trkpt lat="48.74331147" lon="11.01693172">
6837 <ele>447.0</ele>
6838 <time>2017-09-02T05:46:46Z</time>
6839 <cmt><![CDATA[compass: 358.7247009277344
6840 compAccuracy: 0]]></cmt>
6841 <extensions>
6842 <speed>0.9200000166893005</speed>
6843 </extensions>
6844 </trkpt>
6845 </trkseg>
6846 </trk>
6847</gpx>